     2.11           OBSERVATION DATA    G (GPS)             RINEX VERSION / TYPE
teqc 2010Oct21 OPUS Account 20111027 20:50:25UTC            PGM / RUN BY / DATE
G 1526                                                      MARKER NAME
3043                                                        MARKER NUMBER
CSMIDDLETON NGS                                             OBSERVER / AGENCY
0440103897 TRIMBLE 5700 1.04                                REC # / TYPE / VERS
12299603 TRM41249.00 NONE                                   ANT # / TYPE
  -755213.2067 -5565946.0989  3011619.8626                  APPROX POSITION XYZ
        1.9990        0.0000        0.0000                  ANTENNA: DELTA H/E/N
     1     1                                                WAVELENGTH FACT L1/2
     5    L1    L2    C1    P1    P2                        # / TYPES OF OBSERV
    15                                                      LEAP SECONDS
  2011     8    20     0     0   30.0000000     GPS         TIME OF FIRST OBS
                                                            END OF HEADER
 11  8 20  0  0 30.0000000  0  7G17G10G09G04G12G05G02
 -68039515.52757 -52987449.20055  22877755.0784                   22877754.3874
 -39238203.84558 -30546927.83856  21057005.1954                   21057003.6564
 -31687831.60657 -24660835.71554  23164493.6804                   23164493.2624
 -57811280.42358 -45015228.17256  21221676.8204                   21221675.6174
 -25709761.05658 -20004762.37056  22043106.2584                   22043104.5314
 -17878295.95957 -13901663.37355  22769284.9614                   22769284.4304
 -46599479.36758 -36280107.48656  20743185.1024                   20743181.5004
 11  8 20  0  1  0.0000000  0  7G17G10G09G04G12G05G02
 -68063160.35947 -53005873.81245  22873255.9304                   22873254.5784
 -39332609.83948 -30620490.93046  21039040.2194                   21039038.7814
 -31689444.54646 -24662092.58945  23164186.3914                   23164186.9384
 -57811788.46247 -45015624.06346  21221580.3594                   21221578.7934
 -25855380.20548 -20118231.80246  22015396.0784                   22015393.7704
 -18047967.90647 -14033875.18745  22736997.0164                   22736996.6914
 -46682046.57448 -36344445.55446  20727473.1644                   20727469.1374
 11  8 20  0  1 30.0000000  0  7G17G10G09G04G12G05G02
 -68086626.95747 -53024159.50345  22868790.6564                   22868788.8134
 -39426370.63048 -30693551.26446  21021198.2344                   21021196.4344
 -31690708.53747 -24663077.57345  23163945.7274                   23163946.2584
 -57812028.59948 -45015811.19346  21221534.8054                   21221532.6054
 -26000624.00747 -20231408.76746  21987757.0004                   21987755.0784
 -18217404.75047 -14165903.79345  22704754.4064                   22704754.0394
 -46764237.90648 -36408490.73346  20711833.0864                   20711829.3364
 11  8 20  0  2  0.0000000  0  7G17G10G09G04G12G05G02
 -68109918.22347 -53042308.58845  22864357.7584                   22864356.2304
 -39519488.48548 -30766110.61246  21003478.0474                   21003476.3554
 -31691630.71747 -24663796.22445  23163770.3674                   23163770.9774
 -57812006.89448 -45015794.29546  21221538.2814                   21221537.5354
 -26145493.56848 -20344294.10646  21960188.9224                   21960187.3404
 -18386607.15647 -14297749.74845  22672555.7974                   22672555.4734
 -46846057.73748 -36472246.43646  20696262.9924                   20696258.9694
 11  8 20  0  2 30.0000000  0  7G17G10G09G04G12G05G02
 -68133036.72947 -53060323.03745  22859958.7664                   22859957.4964
 -39611965.02548 -30838170.22846  20985880.7504                   20985878.8284
 -31692217.19047 -24664253.31245  23163658.5474                   23163659.2114
 -57811728.26648 -45015577.19946  21221591.7034                   21221590.0204
 -26289989.13047 -20456888.02746  21932692.3284                   21932690.7304
 -18555574.87747 -14429412.81945  22640401.7974                   22640402.1134
 -46927509.95148 -36535715.68046  20680763.2344                   20680759.2034
 11  8 20  0  3  0.0000000  0  7G17G10G09G04G12G05G02
 -68155978.78047 -53078199.99245  22855593.6804                   22855591.5044
 -39703796.04548 -30909726.84646  20968405.8364                   20968404.5044
 -31692468.52246 -24664449.23144  23163610.2194                   23163611.5944
 -57811192.17748 -45015159.48546  21221693.8984                   21221691.8204
 -26434105.40847 -20569186.39146  21905267.7664                   21905266.0084
 -18724302.23647 -14560888.58345  22608294.4844                   22608294.5044
 -47008592.67548 -36598897.02646  20665333.6564                   20665329.6414
 11  8 20  0  3 30.0000000  0  7G17G10G09G04G12G05G02
 -68178746.78647 -53095941.35745  22851261.0004                   22851259.6764
 -39794983.39048 -30980781.90946  20951053.5864                   20951051.4384
 -31692391.38946 -24664389.24744  23163625.1644                   23163625.7854
 -57810404.03047 -45014545.35846  21221843.5474                   21221842.0944
 -26577842.75347 -20681189.49546  21877915.7814                   21877913.8794
 -18892789.24047 -14692177.07645  22576231.9064                   22576232.3484
 -47089309.53948 -36661793.26646  20649973.8914                   20649969.6764
 11  8 20  0  4  0.0000000  0  7G17G10G09G04G12G05G02
 -68201340.32347 -53113546.75345  22846961.2034                   22846960.5004
 -39885526.22747 -31051334.73346  20933823.6484                   20933821.7424
 -31691989.42746 -24664076.11144  23163701.6254                   23163702.7424
 -57809366.35047 -45013736.80346  21222041.1414                   21222039.6054
 -26721199.03648 -20792895.64246  21850635.9614                   21850633.8134
 -19061033.00647 -14823276.02945  22544216.4774                   22544216.5594
 -47169661.78048 -36724405.39646  20634683.3594                   20634679.1484
 11  8 20  0  4 30.0000000  0  7G17G10G09G04G12G05G02
 -68223758.75747 -53131015.71145  22842695.6094                   22842694.1564
 -39975423.10447 -31121384.23546  20916716.7504                   20916715.1914
 -31691265.36346 -24663511.97644  23163840.2584                   23163840.2734
 -57808081.12647 -45012735.33746  21222285.7034                   21222284.2664
 -26864171.42647 -20904302.67446  21823429.0784                   21823426.5784
 -19229030.60247 -14954183.15045  22512248.0314                   22512247.7304
 -47249650.32648 -36786734.11947  20619461.7344                   20619457.6374
 11  8 20  0  5  0.0000000  0  8G17G10G09G04G12G05G30G02
 -68246000.85047 -53148347.25945  22838462.7504                   22838461.7074
 -40064672.23848 -31190928.99146  20899733.1174                   20899731.3444
 -31690222.23347 -24662699.22244  23164038.6174                   23164038.3364
 -57806549.87748 -45011542.17646  21222577.0704                   21222575.9184
 -27006756.81648 -21015408.15146  21796296.2274                   21796294.1454
 -19396778.07747 -15084895.37645  22480326.5164                   22480325.9694
   -252182.65356   -182678.50852  24300211.5004                   24300210.6374
 -47329275.50648 -36848779.72146  20604309.8284                   20604305.6724
 11  8 20  0  5 30.0000000  0  8G17G10G09G04G12G05G30G02
 -68268078.12047 -53165550.38845  22834261.9224                   22834260.5704
 -40153284.47848 -31259977.46746  20882871.0084                   20882868.9964
 -31688875.94747 -24661650.22344  23164295.2584                   23164294.5354
 -57804787.58748 -45010168.98146  21222912.5634                   21222910.9694
 -27148965.23348 -21126219.85846  21769234.9844                   21769232.3794
 -19564285.27247 -15215420.37245  22448450.8834                   22448450.7544
   -427210.66046   -319063.96542  24266904.4614                   24266903.5234
 -47408550.86648 -36910552.71846  20589224.2194                   20589220.0234
 11  8 20  0  6  0.0000000  0  8G17G10G09G04G12G05G30G02
 -68289996.54247 -53182629.72145  22830091.1414                   22830090.1804
 -40241265.35248 -31328533.96146  20866128.7504                   20866126.7424
 -31687236.11547 -24660372.49444  23164607.1414                   23164606.7544
 -57802802.71248 -45008622.35246  21223290.3444                   21223288.8914
 -27290800.25248 -21236740.63146  21742244.3674                   21742241.9024
 -19731555.45847 -15345760.67445  22416619.8984                   22416619.8244
   -602043.05346   -455296.96542  24233635.7814                   24233633.2814
 -47487483.72348 -36972058.82646  20574203.6024                   20574199.6484
 11  8 20  0  6 30.0000000  0  8G17G10G09G04G12G05G30G02
 -68311753.66147 -53199583.34845  22825950.9454                   22825949.4224
 -40328612.04848 -31396596.29446  20849507.1724                   20849504.6524
 -31685304.39146 -24658867.31444  23164974.5084                   23164974.4344
 -57800595.84248 -45006902.72746  21223710.3914                   21223708.4654
 -27432257.34848 -21346966.90346  21715325.9304                   21715323.2974
 -19898583.92347 -15475912.65645  22384835.7664                   22384835.1604
   -776675.19646   -591373.92642  24200403.9614                   24200402.9804
 -47566073.14148 -37033297.32046  20559248.5394                   20559244.0234
 11  8 20  0  7  0.0000000  0  8G17G10G09G04G12G05G30G02
 -68333344.89647 -53216407.73745  22821842.0394                   22821840.6954
 -40415319.55847 -31464160.57746  20833006.8984                   20833005.8404
 -31683080.28446 -24657134.32344  23165398.0634                   23165398.5124
 -57798164.82347 -45005008.43346  21224172.8284                   21224171.8164
 -27573330.33748 -21456893.88346  21688480.8834                   21688478.4614
 -20065363.69247 -15605870.82145  22353098.5474                   22353097.9614
   -951100.31646   -727289.58943  24167211.8984                   24167211.0084
 -47644316.17248 -37094265.91446  20544359.4384                   20544355.5664
 11  8 20  0  7 30.0000000  0  8G17G10G09G04G12G05G30G02
 -68354771.85947 -53233104.10345  22817764.8204                   22817763.2074
 -40501389.25147 -31531227.84646  20816628.6254                   20816626.7894
 -31680569.51446 -24655177.96644  23165875.4844                   23165876.8014
 -57795514.43347 -45002943.21846  21224677.0634                   21224675.9574
 -27714019.13548 -21566521.48546  21661708.4224                   21661706.4064
 -20231894.25047 -15735634.82745  22321408.3754                   22321408.2854
  -1125318.04546   -863043.59843  24134060.0704                   24134058.9494
 -47722215.93148 -37154967.01446  20529535.5004                   20529531.6414
 11  8 20  0  8  0.0000000  0  9G17G10G09G04G12G05G30G02G25
 -68376033.35047 -53249671.51545  22813718.9224                   22813718.2114
 -40586819.18248 -31597796.59146  20800372.3594                   20800369.9694
 -31677774.77646 -24653000.33144  23166407.1254                   23166408.6724
 -57792646.50747 -45000708.48846  21225223.3364                   21225221.7504
 -27854320.47748 -21675847.19046  21635009.7114                   21635007.3204
 -20398171.76847 -15865201.63345  22289766.6954                   22289766.8204
  -1299325.01546   -998633.40043  24100947.5084                   24100946.5394
 -47799772.95248 -37215401.05447  20514776.8524                   20514772.9104
   -247610.09756   -178361.14753  24509195.8054                   24509196.7544
 11  8 20  0  8 30.0000000  0  9G17G10G09G04G12G05G30G02G25
 -68397132.05047 -53266112.11045  22809703.8754                   22809702.4414
 -40671611.78148 -31663868.73946  20784236.5314                   20784234.5554
 -31674702.95846 -24650606.78244  23166991.4774                   23166992.5824
 -57789566.10448 -44998308.19846  21225809.1884                   21225807.5824
 -27994234.94248 -21784871.42246  21608385.5784                   21608383.1884
 -20564196.60747 -15994571.55945  22258173.3524                   22258172.8244
  -1473121.77046  -1134059.37443  24067874.3284                   24067874.2114
 -47876991.62248 -37275571.43746  20500082.8984                   20500078.6094
   -420389.81946   -312994.71543  24476317.5864                   24476318.1414
 11  8 20  0  9  0.0000000  0  9G17G10G09G04G12G05G30G02G25
 -66842654.94647 -52054831.27645  23105510.7584                   23105509.3324
 -39180351.86048 -30501847.99546  21068013.7114                   21068011.9924
 -30095945.76946 -23420406.47044  23467419.4144                   23467419.9654
 -56210864.10848 -43768150.80246  21526226.2274                   21526225.1844
 -26558343.83848 -20665995.20846  21881626.2274                   21881623.5514
 -19154548.51847 -14896144.39945  22526420.2664                   22526420.2304
    -71288.08946    -41721.42144  24334635.2734                   24334634.4264
 -46378458.62648 -36107883.38447  20785243.9384                   20785239.8874
    982378.63246    780071.67943  24743255.2034                   24743256.5234
 11  8 20  0  9 30.0000000  0  9G17G10G09G04G12G05G30G02G25
 -66863438.89347 -52071026.58545  23101555.7894                   23101554.9924
 -39263879.98448 -30566934.82146  21052118.5704                   21052117.0314
 -30092342.13346 -23417598.51144  23468105.2814                   23468106.0514
 -56207378.35548 -43765434.66546  21526889.6334                   21526887.7854
 -26697489.92348 -20774420.72346  21855147.5474                   21855145.2704
 -19320071.73047 -15025123.46145  22494922.3444                   22494922.0434
   -244668.74346   -176823.13144  24301641.5944                   24301641.2034
 -46455016.15648 -36167538.58946  20770675.7274                   20770671.8364
    809850.25646    645634.00843  24710424.0234                   24710425.7234
 11  8 20  0 10  0.0000000  0  9G17G10G09G04G12G05G30G02G25
 -66884056.75047 -52087092.46445  23097632.3284                   23097631.0554
 -39346766.20548 -30631521.47446  21036346.0864                   21036344.6604
 -30088469.96847 -23414581.34044  23468842.5864                   23468843.3554
 -56203685.46348 -43762557.10946  21527592.0634                   21527590.5984
 -26836240.21048 -20882537.81246  21828744.1484                   21828741.4494
 -19485332.02747 -15153897.62345  22463474.5704                   22463473.8484
   -417829.24546   -311753.36144  24268689.9774                   24268689.9184
 -46531236.75448 -36226931.25846  20756171.2194                   20756167.4884
    637459.16846    511303.32443  24677618.7664                   24677620.3954
 11  8 20  0 10 30.0000000  0  9G17G10G09G04G12G05G30G02G25
 -66904509.94547 -52103030.04245  23093740.8524                   23093738.7624
 -39429012.36348 -30695609.36846  21020695.1334                   21020693.5594
 -30084334.73746 -23411359.17044  23469629.5474                   23469630.6564
 -56199789.99048 -43759521.69946  21528333.5164                   21528331.7544
 -26974594.68848 -20990346.46446  21802416.0704                   21802413.6174
 -19650328.51047 -15282466.23845  22432076.1174                   22432076.2424
   -590769.33346   -446511.79844  24235780.7974                   24235780.7814
 -46607123.59048 -36286063.84146  20741730.7814                   20741726.3914
    465205.42146    377079.65243  24644841.1174                   24644842.4224
 11  8 20  0 11  0.0000000  0  9G17G10G09G04G12G05G30G02G25
 -66924794.28947 -52118836.04045  23089879.9844                   23089878.9264
 -39510613.85347 -30759194.93346  21005166.8134                   21005165.0944
 -30079936.28347 -23407931.86944  23470466.4064                   23470467.4534
 -56195690.06748 -43756326.96845  21529113.8914                   21529112.2664
 -27112546.73248 -21097841.55146  21776164.6644                   21776162.2424
 -19815054.68147 -15410824.22845  22400730.3834                   22400729.5204
   -763482.39246   -581093.36943  24202914.7114                   24202913.9844
 -46682674.27448 -36344934.48646  20727353.9144                   20727349.0474
    293095.31746    242967.96044  24612088.8674                   24612090.6134
 11  8 20  0 11 30.0000000  0  9G17G10G09G04G12G05G30G02G25
 -66944905.29647 -52134507.00945  23086053.5084                   23086052.0234
 -39591565.83048 -30822274.37546  20989762.2734                   20989760.1644
 -30075274.34947 -23404299.28644  23471353.4304                   23471353.9614
 -56191384.25748 -43752971.80845  21529932.6644                   21529931.7934
 -27250090.53648 -21205018.52446  21749991.0704                   21749988.4804
 -19979503.72847 -15538966.26245  22369436.6954                   22369435.6564
   -935961.75646   -715492.81744  24170092.9844                   24170091.7194
 -46757885.82648 -36403540.88146  20713041.6024                   20713037.6414
    121135.18446    108973.10644  24579366.0004                   24579367.5744
 11  8 20  0 12  0.0000000  0  9G17G10G09G04G12G05G30G02G25
 -66964845.04047 -52150044.46745  23082258.9924                   23082257.5004
 -39671869.98948 -30884849.02246  20974480.7584                   20974479.0084
 -30070354.66847 -23400465.84144  23472289.5554                   23472290.2384
 -56186876.96748 -43749459.65746  21530791.1414                   21530789.6094
 -27387225.78048 -21311877.13646  21723895.0864                   21723892.8094
 -20143675.23347 -15666892.03746  22338195.5704                   22338195.1054
  -1108207.04146   -849709.82343  24137315.3674                   24137314.6024
 -46832761.95048 -36461885.88846  20698793.0004                   20698788.6214
    -50674.91047    -24904.84044  24546671.1024                   24546673.0944
 11  8 20  0 12 30.0000000  0  9G17G10G09G04G12G05G30G02G25
 -66984608.03947 -52165444.27145  23078498.6484                   23078497.4964
 -39751520.90648 -30946914.66746  20959323.4844                   20959321.8834
 -30065175.78547 -23396430.46444  23473275.5474                   23473275.7774
 -56182165.63848 -43745788.49646  21531687.5314                   21531686.1484
 -27523945.08248 -21418411.64346  21697878.0784                   21697875.9224
 -20307560.81747 -15794595.01045  22307009.2274                   22307008.8444
  -1280210.76946   -983738.61743  24104582.9924                   24104582.8284
 -46907298.62048 -36519966.40046  20684608.8054                   20684605.2464
   -222327.74947   -158660.22344  24514006.9534                   24514008.5514
 11  8 20  0 13  0.0000000  0  9G17G10G09G04G12G05G30G02G25
 -67004196.76447 -52180708.23445  23074770.3674                   23074770.1254
 -39830521.10248 -31008473.25146  20944290.5474                   20944288.8244
 -30059744.74946 -23392198.57544  23474309.7734                   23474309.8054
 -56177255.82748 -43741962.68645  21532621.3524                   21532620.9844
 -27660249.41648 -21524622.80446  21671940.0554                   21671938.0234
 -20471161.42447 -15922075.92246  22275876.9844                   22275876.3674
  -1451973.45846  -1117579.59043  24071898.0864                   24071896.9224
 -46981500.41648 -36577785.96046  20670489.2274                   20670484.8444
   -393824.13647   -292293.70644  24481372.4844                   24481374.5474
 11  8 20  0 13 30.0000000  0  9G17G10G09G04G12G05G30G02G25
 -67023610.45047 -52195835.84645  23071076.3754                   23071075.7774
 -39908869.42348 -31069523.88346  20929381.4224                   20929379.5434
 -30054064.74746 -23387772.69444  23475389.5554                   23475390.4574
 -56172149.40247 -43737983.67645  21533593.3204                   21533591.9964
 -27796136.29547 -21630508.66346  21646082.0234                   21646079.8364
 -20634474.24147 -16049332.59346  22244799.7274                   22244799.1174
  -1623492.09046  -1251230.45643  24039258.7274                   24039258.1374
 -47055368.21248 -36635345.27547  20656432.5474                   20656428.3754
   -565161.35547   -425803.14944  24448768.1884                   24448769.4064
 11  8 20  0 14  0.0000000  0  9G17G10G09G04G12G05G30G02G25
 -67042843.14147 -52210822.37645  23067416.9384                   23067415.3484
 -39986559.93848 -31130061.93746  20914597.6644                   20914595.4304
 -30048133.36347 -23383150.93044  23476518.7584                   23476519.3204
 -56166842.97648 -43733848.80846  21534603.4304                   21534601.7854
 -27931597.54047 -21736062.86846  21620304.4144                   21620302.2544
 -20797490.41347 -16176358.09745  22213778.2274                   22213777.7504
  -1794758.35946  -1384684.61342  24006668.4144                   24006667.0944
 -47128897.42948 -36692640.74946  20642440.3754                   20642436.3524
   -736331.33047   -559182.27744  24416194.8914                   24416196.8014
 11  8 20  0 14 30.0000000  0  9G17G10G09G04G12G05G30G02G25
 -67061895.39147 -52225668.32444  23063791.0314                   23063790.1954
 -40063593.49548 -31190088.07446  20899938.1414                   20899936.6414
 -30041955.31247 -23378336.94044  23477694.3754                   23477695.6764
 -56161339.99048 -43729560.78446  21535650.2424                   21535649.0274
 -28066632.09647 -21841284.58246  21594608.6254                   21594606.0634
 -20960207.59947 -16303150.62446  22182814.4534                   22182813.6914
  -1965770.69546  -1517940.89043  23974125.7114                   23974124.8164
 -47202090.42848 -36749674.24446  20628511.6954                   20628508.1684
   -907332.86546   -692430.16044  24383654.2584                   24383656.0354
 11  8 20  0 15  0.0000000  0  9G17G10G09G04G12G05G30G02G25
 -67080772.42347 -52240377.74644  23060199.0084                   23060197.8404
 -40139974.93148 -31249606.06346  20885403.4844                   20885401.8984
 -30035539.87347 -23373337.97244  23478914.9144                   23478916.9104
 -56155648.28348 -43725125.70045  21536733.1724                   21536732.0784
 -28201243.13747 -21946176.28046  21568992.7274                   21568990.5434
 -21122629.54547 -16429713.09646  22151906.2734                   22151906.0944
  -2136531.98946  -1651001.55743  23941630.9614                   23941629.4494
 -47274954.11547 -36806451.12846  20614646.5474                   20614642.8714
  -1078169.11347   -825549.24844  24351144.9534                   24351147.2854
 11  8 20  0 15 30.0000000  0  9G17G10G09G04G12G05G30G02G25
 -67099469.26747 -52254946.75744  23056641.1954                   23056639.9884
 -40215699.33448 -31308612.09446  20870993.6174                   20870991.6294
 -30028885.96247 -23368153.19144  23480181.6254                   23480182.6134
 -56149765.48148 -43720541.71446  21537853.3754                   21537851.6484
 -28335423.78847 -22050732.61046  21543458.8674                   21543456.5744
 -21284749.06547 -16556039.92146  22121055.8284                   22121054.9844
  -2307035.14147  -1783861.12043  23909185.9694                   23909184.3444
 -47347485.17948 -36862968.83246  20600844.0634                   20600839.9264
  -1248833.15246   -958534.17144  24318669.3594                   24318670.8244
 11  8 20  0 16  0.0000000  0  9G17G10G09G04G12G05G30G02G25
 -67117985.36247 -52269374.93644  23053117.5944                   23053115.8054
 -40290766.37747 -31367105.89246  20856708.6334                   20856706.9064
 -30021997.43747 -23362785.62344  23481492.1804                   23481492.8984
 -56143693.88648 -43715810.61545  21539008.3834                   21539007.1024
 -28469171.93147 -22154951.92746  21518007.4924                   21518005.0784
 -21446562.96247 -16682128.61245  22090263.4384                   22090262.9734
  -2477277.53947  -1916517.51543  23876789.4614                   23876788.8984
 -47419684.87147 -36919228.32346  20587105.1024                   20587100.7344
  -1419322.67646  -1091383.11043  24286225.1804                   24286226.9184
 11  8 20  0 16 30.0000000  0  9G17G10G09G04G12G05G30G02G25
 -67136318.60447 -52283660.62344  23049628.9224                   23049627.4964
 -40365173.84047 -31425085.72946  20842549.6254                   20842547.9454
 -30014876.10446 -23357236.60344  23482847.8444                   23482848.8164
 -56137434.39247 -43710933.11146  21540199.5314                   21540198.2704
 -28602483.77447 -22258831.28246  21492638.7424                   21492636.7114
 -21608067.06247 -16807975.88245  22059530.6724                   22059530.0164
  -2647254.80147  -2048967.25344  23844444.7504                   23844443.5554
 -47491552.70848 -36975229.21546  20573429.1564                   20573424.8204
  -1589633.64946  -1224092.83543  24253816.7664                   24253817.9844
 11  8 20  0 17  0.0000000  0  9G17G10G09G04G12G05G30G02G25
 -67154468.15747 -52297803.15244  23046175.9774                   23046173.7464
 -40438921.12847 -31482551.12746  20828515.6334                   20828514.0664
 -30007524.58146 -23351508.23144  23484246.8594                   23484248.0594
 -56130988.09648 -43705910.02945  21541426.4694                   21541425.0864
 -28735356.40747 -22362368.37546  21467354.0784                   21467351.9884
 -21769257.77447 -16933578.95046  22028856.6094                   22028856.1484
  -2816963.60047  -2181207.81544  23812149.4924                   23812148.9804
 -47563089.49248 -37030972.15746  20559816.6564                   20559812.2544
  -1759762.97446  -1356661.09843  24221442.2504                   24221443.4804
 11  8 20  0 17 30.0000000  0  9G17G10G09G04G12G05G30G02G25
 -67172438.35247 -52311805.95544  23042755.8754                   23042754.5474
 -40512012.56947 -31539505.49046  20814606.8984                   20814605.0634
 -29999951.65947 -23345607.34644  23485687.2734                   23485688.5084
 -56124362.37348 -43700747.15545  21542686.9614                   21542686.0004
 -28867792.30547 -22465565.15446  21442152.7974                   21442149.9844
 -21930137.11447 -17058939.40945  21998242.3134                   21998241.4344
  -2986406.16547  -2313240.92044  23779905.1884                   23779904.6334
 -47634301.06247 -37086461.67146  20546265.0004                   20546260.7664
  -1929713.08847  -1489089.66143  24189101.0634                   24189103.0124
 11  8 20  0 18  0.0000000  0  9G17G10G09G04G12G05G30G02G25
 -67190229.32847 -52325669.09744  23039369.7894                   23039369.4064
 -40584448.37448 -31595948.97046  20800822.8524                   20800820.7854
 -29992161.50947 -23339537.18844  23487169.7274                   23487171.5904
 -56117559.96848 -43695446.60645  21543981.7344                   21543980.2934
 -28999789.91147 -22568420.42546  21417034.3054                   21417032.3794
 -22090703.10447 -17184055.68546  21967687.8054                   21967687.0434
  -3155580.51146  -2445065.04444  23747712.0084                   23747712.3054
 -47705189.86748 -37141699.69447  20532774.9924                   20532771.1644
  -2099482.29047  -1621377.31044  24156795.6884                   24156797.2344
 11  8 20  0 18 30.0000000  0  9G17G10G09G04G12G05G30G02G25
 -67207837.87247 -52339390.07544  23036019.6024                   23036018.1644
 -40656225.45248 -31651879.14946  20787164.0704                   20787162.0634
 -29984154.56946 -23333298.07844  23488694.2584                   23488694.2234
 -56110580.34348 -43690007.95745  21545310.0864                   21545307.9844
 -29131344.16547 -22670930.22446  21392000.0164                   21391997.8094
 -22250950.11847 -17308923.41546  21937193.3364                   21937192.9844
  -3324481.10846  -2576675.84544  23715572.1564                   23715571.1644
 -47775754.00148 -37196684.71846  20519347.8204                   20519343.4024
  -2269065.23347  -1753519.84544  24124525.4454                   24124526.6914
 11  8 20  0 19  0.0000000  0  9G17G10G09G04G12G05G30G02G25
 -67225263.51247 -52352968.53644  23032703.4694                   23032701.8484
 -40727343.76748 -31707296.00546  20773630.4844                   20773628.5474
 -29975934.76746 -23326893.11444  23490258.4224                   23490259.3364
 -56103425.63747 -43684432.88045  21546670.9924                   21546669.6684
 -29262452.75247 -22773092.73346  21367051.2974                   21367049.0704
 -22410875.60047 -17433540.60446  21906760.8134                   21906760.3014
  -3493105.23046  -2708071.18544  23683483.9534                   23683483.2934
 -47845994.47247 -37251417.53746  20505980.9454                   20505976.8874
  -2438459.55347  -1885515.38244  24092290.6414                   24092292.2974
 11  8 20  0 19 30.0000000  0  9G17G10G09G04G12G05G30G02G25
 -67242505.61047 -52366403.96544  23029422.6564                   23029421.7074
 -40797802.89247 -31762199.21046  20760222.8364                   20760221.4104
 -29967505.36347 -23320324.82344  23491862.1954                   23491863.9224
 -56096097.75548 -43678722.86945  21548065.7504                   21548064.3874
 -29393113.30147 -22874906.13146  21342187.2504                   21342185.3204
 -22570476.48447 -17557904.85846  21876389.7194                   21876389.2194
  -3661450.02046  -2839248.90043  23651448.5704                   23651447.5594
 -47915912.54848 -37305899.14746  20492676.0004                   20492671.6994
  -2607662.61647  -2017361.91844  24060091.8594                   24060093.5044
 11  8 20  0 20  0.0000000  0  9G17G10G09G04G12G05G30G02G25
 -67259563.48047 -52379695.87044  23026176.7734                   23026175.4924
 -40867602.34347 -31816588.38646  20746940.7584                   20746939.1134
 -29958869.36346 -23313595.58444  23493505.9844                   23493507.3094
 -56088598.71247 -43672879.46945  21549492.4064                   21549491.3324
 -29523323.45047 -22976368.55246  21317408.9534                   21317406.5514
 -22729749.64047 -17682013.72946  21846081.4774                   21846080.1684
  -3829512.48446  -2970206.59643  23619467.6484                   23619466.1884
 -47985509.38848 -37360130.42746  20479431.8754                   20479428.2034
  -2776671.69147  -2149057.23044  24027930.8984                   24027932.3364
 11  8 20  0 20 30.0000000  0  9G17G10G09G04G12G05G30G02G25
 -65701017.14747 -51165244.23244  23322758.4614                   23322756.8164
 -39361320.68947 -30642862.41946  21033576.3914                   21033574.9774
 -28374611.99846 -22079109.41344  23794980.2194                   23794981.6454
 -54505512.09848 -42439305.53045  21850744.2974                   21850742.3674
 -28077657.47847 -21849875.57846  21592510.3054                   21592508.0704
 -21313268.25147 -16578261.92546  22115628.5234                   22115628.0554
  -2421865.46646  -1873338.76043  23887333.7504                   23887332.3014
 -46479364.84547 -36186511.29646  20766042.1884                   20766037.4964
  -1370059.86147  -1052996.01344  24295599.9064                   24295601.5634
 11  8 20  0 21  0.0000000  0  9G17G10G09G04G12G05G30G02G25
 -65717707.34147 -51178249.63644  23319582.2974                   23319581.0164
 -39429802.77747 -30696225.08146  21020544.4924                   21020542.8594
 -28365576.32747 -22072068.73744  23796699.6804                   23796701.2274
 -54497679.67848 -42433202.37545  21852234.6094                   21852232.9844
 -28206962.39347 -21950632.62846  21567904.0234                   21567901.7894
 -21471880.06847 -16701855.47946  22085445.7424                   22085444.5354
  -2589357.68446  -2003852.09743  23855460.8834                   23855460.2774
 -46548325.07847 -36240246.53946  20752919.4534                   20752915.2544
  -1538676.05747  -1184385.19544  24263513.2034                   24263515.0594
 11  8 20  0 21 30.0000000  0  9G17G10G09G04G12G05G30G02G25
 -65734214.43047 -51191112.33845  23316441.0084                   23316440.5434
 -39497627.25347 -30749075.29846  21007637.8914                   21007636.0944
 -28356347.05347 -22064877.16144  23798456.2194                   23798457.4734
 -54489684.76748 -42426972.60145  21853755.9224                   21853754.2544
 -28335812.47847 -22051035.27646  21543384.8284                   21543382.4924
 -21630158.51047 -16825189.25446  22055326.2034                   22055325.2344
  -2756561.84346  -2134140.99443  23823642.6954                   23823642.3874
 -46616970.09748 -36293736.15946  20739856.3524                   20739852.3364
  -1707093.19947  -1315619.27044  24231464.3594                   24231465.8324
 11  8 20  0 22  0.0000000  0  9G17G10G09G04G12G05G30G02G25
 -65750537.31447 -51203831.51344  23313335.0004                   23313333.6214
 -39564793.20147 -30801412.40946  20994856.5864                   20994854.9694
 -28346927.34647 -22057537.25244  23800248.4304                   23800249.6604
 -54481528.98748 -42420617.48745  21855308.0704                   21855306.6884
 -28464204.93747 -22151081.32946  21518952.7344                   21518950.2154
 -21788099.92447 -16948260.42346  22025271.0084                   22025269.4414
  -2923474.68746  -2264202.90243  23791880.1024                   23791878.8014
 -46685300.51148 -36346980.63546  20726853.7344                   20726848.9844
  -1875308.26146  -1446695.87244  24199454.2344                   24199455.4184
 11  8 20  0 22 30.0000000  0  9G17G10G09G04G12G05G30G02G25
 -65766673.69547 -51216405.35745  23310264.6564                   23310263.3524
 -39631298.60947 -30853234.79646  20982201.3834                   20982199.4534
 -28337318.58647 -22050050.04544  23802077.5634                   23802078.3714
 -54473212.33048 -42414136.99945  21856890.8444                   21856889.4534
 -28592135.61747 -22250767.55146  21494608.3134                   21494606.5274
 -21945699.91947 -17071065.53646  21995280.3444                   21995280.0744
  -3090091.38347  -2394033.99843  23760174.2424                   23760172.9104
 -46753315.54148 -36399979.34146  20713910.7424                   20713906.4884
  -2043316.77946  -1577611.54644  24167483.0634                   24167484.7814
 11  8 20  0 23  0.0000000  0  9G17G10G09G04G12G05G30G02G25
 -65782622.32247 -51228832.88745  23307229.6954                   23307229.0394
 -39697143.15347 -30904542.21646  20969671.3284                   20969669.5824
 -28327523.86147 -22042417.88044  23803940.8284                   23803942.1804
 -54464736.54047 -42407532.53545  21858503.4144                   21858502.2584
 -28719601.87247 -22350091.88546  21470352.0314                   21470349.7114
 -22102954.95047 -17193601.86446  21965355.9064                   21965354.8524
  -3256408.75947  -2523631.88443  23728525.7344                   23728523.7704
 -46821015.86247 -36452732.83846  20701027.9924                   20701023.9774
  -2211115.63646  -1708363.84144  24135551.6484                   24135553.5084
 11  8 20  0 23 30.0000000  0  9G17G10G09G04G12G05G30G02G25
 -65798383.74447 -51241114.56845  23304230.1724                   23304228.9924
 -39762327.74948 -30955335.41146  20957266.7894                   20957265.0554
 -28317547.70047 -22034644.32944  23805839.6484                   23805840.5124
 -54456104.37848 -42400806.20445  21860146.1724                   21860145.2734
 -28846602.55948 -22449053.43946  21446184.3594                   21446181.8444
 -22259863.42247 -17315868.12346  21935497.5164                   21935496.1954
  -3422425.12846  -2652995.29844  23696933.7034                   23696932.3794
 -46888403.95948 -36505243.03646  20688204.6484                   20688200.3754
  -2378703.42346  -1838951.64344  24103660.8594                   24103663.1994
 11  8 20  0 24  0.0000000  0  9G17G10G09G04G12G05G30G02G25
 -65813958.19947 -51253250.54445  23301266.3594                   23301265.5124
 -39826853.14748 -31005614.93546  20944988.4224                   20944986.5594
 -28307394.00847 -22026732.48744  23807772.0164                   23807772.9454
 -54447318.74248 -42393960.28045  21861818.0234                   21861816.9384
 -28973135.84748 -22547650.78846  21422106.1644                   21422103.7114
 -22416422.83347 -17437862.41946  21905704.6254                   21905703.8244
  -3588138.19147  -2782122.25243  23665399.1414                   23665397.5984
 -46955481.57948 -36557511.31146  20675440.1884                   20675435.6844
  -2546077.94847  -1969373.24944  24071810.9064                   24071812.3634
 11  8 20  0 24 30.0000000  0  9G17G10G09G04G12G05G30G02G25
 -65829344.55347 -51265239.95044  23298338.5634                   23298337.6684
 -39890718.47348 -31055380.12446  20932835.1564                   20932833.5124
 -28297065.90047 -22018684.66944  23809737.2194                   23809738.0634
 -54438381.09148 -42386995.89745  21863519.1174                   21863517.7814
 -29099199.24147 -22645881.98846  21398116.9694                   21398114.5744
 -22572630.32647 -17559582.45646  21875979.3524                   21875978.7034
  -3753544.87647  -2911010.55043  23633923.2504                   23633921.4414
 -47022249.63247 -36609538.36346  20662734.5704                   20662730.1094
  -2713236.52647  -2099626.64144  24040001.9774                   24040002.5704
 11  8 20  0 25  0.0000000  0  9G17G10G09G04G12G05G30G02G25
 -65844539.73347 -51277080.38144  23295446.9064                   23295446.1134
 -39953921.07248 -31104628.88646  20920808.2504                   20920806.6374
 -28286563.88046 -22010501.38044  23811736.2584                   23811736.8874
 -54429290.73547 -42379912.53745  21865248.9534                   21865247.9064
 -29224787.74847 -22743743.15346  21374218.4844                   21374215.7154
 -22728480.23947 -17681023.88946  21846322.3284                   21846320.9844
  -3918639.51947  -3039655.66544  23602506.7734                   23602505.5274
 -47088706.51748 -36661322.95046  20650088.2814                   20650084.1724
  -2880173.65847  -2229707.46844  24008234.3284                   24008235.7584
 11  8 20  0 25 30.0000000  0  9G17G10G09G04G12G05G30G02G25
 -65859546.62447 -51288774.11244  23292591.1094                   23292589.7624
 -40016465.01748 -31153364.43046  20908906.2664                   20908905.1134
 -28275895.24446 -22002188.25944  23813766.0784                   23813767.9264
 -54420053.45547 -42372714.70045  21867006.3524                   21867005.5984
 -29349902.89747 -22841235.45346  21350409.2344                   21350406.6914
 -22883973.54847 -17802187.44046  21816732.7814                   21816732.0824
  -4083423.16347  -3168058.44744  23571149.0554                   23571148.8594
 -47154856.93147 -36712868.71346  20637500.2034                   20637495.4024
  -3046890.50347  -2359616.62144  23976508.7584                   23976510.0554
 11  8 20  0 26  0.0000000  0  9G17G10G09G04G12G05G30G02G25
 -65874363.29247 -51300319.62944  23289772.1414                   23289770.8524
 -40078348.42248 -31201585.25746  20897130.3834                   20897128.2234
 -28265061.48847 -21993746.43844  23815828.1174                   23815829.3524
 -54410669.04748 -42365402.20845  21868792.4534                   21868791.5514
 -29474540.42247 -22938355.59446  21326691.6254                   21326689.2774
 -23039105.72247 -17923069.58346  21787211.9304                   21787210.6214
  -4247890.92647  -3296215.10544  23539852.0474                   23539851.2774
 -47220700.17448 -36764175.13546  20624970.6884                   20624966.3244
  -3213382.47547  -2489350.54944  23944827.0634                   23944828.0784
 11  8 20  0 26 30.0000000  0  9G17G10G09G04G12G05G30G02G25
 -65888990.39447 -51311717.39144  23286988.1024                   23286987.5274
 -40139572.41648 -31249292.26246  20885479.5314                   20885478.2544
 -28254066.98047 -21985179.39344  23817919.8594                   23817921.1414
 -54401140.80248 -42357977.61745  21870605.4304                   21870604.8954
 -29598699.41547 -23035102.83846  21303065.2664                   21303062.8674
 -23193875.04547 -18043669.00746  21757760.4844                   21757759.3014
  -4412041.35446  -3424124.49444  23508615.8834                   23508614.3444
 -47286238.82647 -36815244.19946  20612498.9304                   20612494.7344
  -3379648.22747  -2618908.23244  23913187.8754                   23913188.8674
 11  8 20  0 27  0.0000000  0  9G17G10G09G04G12G05G30G02G25
 -65903427.57347 -51322967.18544  23284241.5474                   23284240.3444
 -40200137.50448 -31296485.81446  20873955.0164                   20873953.3954
 -28242915.39047 -21976489.94444  23820042.4224                   23820042.9964
 -54391470.61948 -42350442.42345  21872445.7504                   21872444.4454
 -29722378.19247 -23131475.89646  21279529.8134                   21279527.7074
 -23348278.90547 -18163983.64446  21728377.9384                   21728376.7624
  -4575871.91746  -3551784.58544  23477438.9144                   23477438.6804
 -47351474.24848 -36866076.99946  20600085.0234                   20600080.3874
  -3545685.48847  -2748287.87944  23881591.1954                   23881592.0904
 11  8 20  0 27 30.0000000  0  9G17G10G09G04G12G05G30G02G25
 -65917672.76647 -51334067.40244  23281530.6564                   23281529.9224
 -40260042.85148 -31343165.30846  20862554.8674                   20862553.0394
 -28231609.03046 -21967679.88644  23822193.6884                   23822195.4454
 -54381659.47348 -42342797.40245  21874312.9774                   21874311.9064
 -29845573.22747 -23227472.02346  21256086.6334                   21256083.9804
 -23502313.51747 -18284010.54946  21699066.4144                   21699065.2854
  -4739378.56846  -3679192.32044  23446325.1484                   23446324.1764
 -47416406.49148 -36916673.53346  20587728.7584                   20587724.2504
  -3711490.38147  -2877486.46144  23850039.5944                   23850040.7464
 11  8 20  0 28  0.0000000  0  9G17G10G09G04G12G05G30G02G25
 -65931725.38947 -51345017.54344  23278855.6724                   23278855.7034
 -40319287.77048 -31389330.17046  20851281.2504                   20851279.1174
 -28220151.07446 -21958751.72544  23824373.9774                   23824376.2304
 -54371708.97848 -42335043.77745  21876206.1484                   21876205.7154
 -29968281.75147 -23323089.04346  21232735.7034                   21232733.4184
 -23655975.54247 -18403747.13346  21669825.3594                   21669824.5864
  -4902557.99246  -3806345.06444  23415272.3914                   23415272.3284
 -47481036.36147 -36967034.46246  20575429.9614                   20575425.9454
  -3877059.93447  -3006501.66044  23818533.7584                   23818534.5434
 11  8 20  0 28 30.0000000  0  9G17G10G09G04G12G05G30G02G25
 -65945584.62947 -51355817.01044  23276219.1954                   23276218.0474
 -40377872.01248 -31434980.21646  20840132.8984                   20840130.6484
 -28208544.29946 -21949707.59343  23826582.6414                   23826584.3484
 -54361620.23148 -42327182.45345  21878126.5864                   21878125.4924
 -30090500.86647 -23418324.71146  21209478.7194                   21209476.1524
 -23809261.80147 -18523190.92746  21640655.9614                   21640654.9414
  -5065406.99647  -3933240.33944  23384284.0634                   23384282.6094
 -47545364.90247 -37017160.59146  20563188.6804                   20563184.4144
  -4042390.84047  -3135330.88244  23787071.2974                   23787072.9224
 11  8 20  0 29  0.0000000  0  9G17G10G09G04G12G05G30G02G25
 -65959250.81646 -51366466.03044  23273618.0314                   23273618.1724
 -40435796.98248 -31480116.54846  20829110.1094                   20829108.3014
 -28196793.13447 -21940550.97444  23828818.9064                   23828821.2114
 -54351396.35647 -42319215.81545  21880071.8984                   21880070.2304
 -30212230.28448 -23513178.79746  21186314.2194                   21186311.9064
 -23962170.45347 -18642340.46346  21611558.2424                   21611557.0204
  -5227923.80247  -4059876.77644  23353358.3444                   23353357.6054
 -47609393.83948 -37067053.26547  20551004.7194                   20551000.1414
  -4207481.73847  -3263973.08244  23755656.3984                   23755657.1024
 11  8 20  0 29 30.0000000  0  9G17G10G09G04G12G05G30G02G25
 -65972725.14647 -51376965.58744  23271054.2034                   23271053.2894
 -40493064.83548 -31524740.84246  20818212.3054                   20818210.6334
 -28184902.56747 -21931285.67144  23831081.8754                   23831083.3164
 -54341040.89347 -42311146.64545  21882042.1024                   21882041.1564
 -30333469.10748 -23607650.61146  21163243.2504                   21163240.5634
 -24114700.51047 -18761194.98946  21582532.7584                   21582531.6844
  -5390107.14347  -4186253.36144  23322495.3594                   23322494.7274
 -47673126.09048 -37116714.75046  20538876.8674                   20538872.6564
  -4372331.52847  -3392427.41644  23724285.9304                   23724287.0744
 11  8 20  0 30  0.0000000  0  9G17G10G09G04G12G05G30G02G25
 -65986002.80046 -51387311.85844  23268527.4454                   23268527.0824
 -40549671.44748 -31568849.87646  20807440.2114                   20807438.6254
 -28172871.63747 -21921911.03644  23833371.2814                   23833373.3204
 -54330551.55047 -42302973.14245  21884037.9534                   21884037.0434
 -30454210.83948 -23701735.07146  21140267.1254                   21140264.6454
 -24266845.12947 -18879749.19246  21553580.5474                   21553579.9924
  -5551950.20947  -4312364.81944  23291698.0004                   23291695.8094
 -47736558.69348 -37166142.74946  20526805.7194                   20526801.9454
  -4536933.43947  -3520688.58444  23692963.1724                   23692964.7974
 11  8 20  0 30 30.0000000  0  9G17G10G09G04G12G05G30G02G25
 -65999085.22846 -51397506.05044  23266038.0314                   23266037.3444
 -40605618.87448 -31612445.27046  20796794.0314                   20796792.3634
 -28160705.71947 -21912431.21244  23835686.0634                   23835688.0824
 -54319931.91647 -42294698.11945  21886059.2274                   21886057.8554
 -30574455.53248 -23795432.23146  21117384.9064                   21117382.6684
 -24418603.60447 -18998002.47846  21524702.0554                   21524700.9344
  -5713451.83447  -4438210.18244  23260965.1024                   23260964.2074
 -47799694.69048 -37215339.63346  20514791.6414                   20514787.1214
  -4701286.57647  -3648755.91844  23661687.0004                   23661688.7814
 11  8 20  0 31  0.0000000  0  9G17G10G09G04G12G05G30G02G25
 -66011970.03247 -51407546.19344  23263586.1174                   23263585.3834
 -40660905.79148 -31655525.96246  20786273.4144                   20786271.6524
 -28148406.48346 -21902847.48244  23838027.5474                   23838029.1454
 -54309182.33847 -42286321.83645  21888104.8984                   21888104.0434
 -30694199.46848 -23888739.18846  21094598.5394                   21094595.9494
 -24569971.46747 -19115951.39946  21495898.1024                   21495896.1994
  -5874607.66347  -4563786.12344  23230297.6334                   23230295.9884
 -47862533.95748 -37264305.28946  20502833.1954                   20502829.6294
  -4865386.73447  -3776626.11344  23630460.0784                   23630462.0554
 11  8 20  0 31 30.0000000  0  9G17G10G09G04G12G05G30G02G25
 -66024660.18847 -51417434.66444  23261171.4694                   23261171.1684
 -40715535.73848 -31698094.74546  20775877.3284                   20775875.9224
 -28135980.52947 -21893165.01444  23840391.8364                   23840393.8244
 -54298307.46147 -42277847.92645  21890174.5784                   21890173.2074
 -30813443.32247 -23981656.47646  21071907.1804                   21071904.5004
 -24720948.79147 -19233596.02246  21467167.1564                   21467166.4804
  -6035417.93847  -4689092.79544  23199696.8134                   23199695.3444
 -47925080.67948 -37313042.99146  20490931.2894                   20490927.0744
  -5029234.27647  -3904299.46144  23599281.0944                   23599282.7504
 11  8 20  0 32  0.0000000  0  9G17G10G09G04G12G05G30G02G25
 -64461736.24247 -50199571.88644  23558586.3204                   23558584.9924
 -39194088.89648 -30512551.72046  21065399.6254                   21065397.6954
 -26548012.86347 -20655787.68544  24142572.1884                   24142573.3984
 -52711891.08547 -41041679.35945  22192059.2344                   22192057.7854
 -29356762.78948 -22846580.72746  21349104.3364                   21349101.7624
 -23296109.66047 -18123331.69246  21738305.3594                   21738304.4144
  -4620456.03547  -3586525.04144  23468954.2974                   23468953.2774
 -46411915.05648 -36133952.87446  20778877.0864                   20778872.7894
  -3617402.53547  -2804170.80344  23867943.7734                   23867945.4104
 11  8 20  0 32 30.0000000  0  9G17G10G09G04G12G05G30G02G25
 -64474037.85547 -50209157.64844  23556245.0164                   23556244.3714
 -39247408.68948 -30554099.60046  21055252.8444                   21055250.9654
 -26535345.02547 -20645916.76043  24144982.5554                   24144983.9024
 -52700773.46247 -41033016.29745  22194174.8444                   22194173.8794
 -29475002.92648 -22938715.89046  21326603.7734                   21326601.4104
 -23446300.34147 -18240363.33946  21709724.5704                   21709723.5554
  -4780568.98747  -3711288.33844  23438486.4454                   23438485.0234
 -46473882.38748 -36182239.09746  20767085.3284                   20767081.2774
  -3780739.11247  -2931446.01944  23836862.0164                   23836863.3014
 11  8 20  0 33  0.0000000  0  9G17G10G09G04G12G05G30G02G25
 -64486146.30147 -50218592.85144  23553941.3054                   23553940.2774
 -39300076.24048 -30595139.24546  21045230.3914                   21045228.8634
 -26522563.48246 -20635957.23643  24147415.0784                   24147416.6294
 -52689539.33547 -41024262.45445  22196313.2194                   22196311.1564
 -29592740.16848 -23030459.19046  21304199.1024                   21304196.4614
 -23596095.74647 -18357086.97246  21681219.9454                   21681219.0204
  -4940331.24746  -3835778.32544  23408084.5314                   23408083.2344
 -46535563.82848 -36230302.55146  20755347.7114                   20755343.1374
  -3943818.38147  -3058520.73344  23805829.1024                   23805830.6214
 11  8 20  0 33 30.0000000  0  9G17G10G09G04G12G05G30G02G25
 -64498061.77947 -50227877.70644  23551674.2344                   23551672.4924
 -39352092.29748 -30635671.20746  21035332.0784                   21035330.2974
 -26509671.88946 -20625911.95143  24149867.8364                   24149870.5744
 -52678190.83347 -41015419.48445  22198472.2584                   22198470.8324
 -29709972.76048 -23121809.25446  21281890.6174                   21281888.4384
 -23745493.71347 -18473500.91246  21652789.6564                   21652789.0594
  -5099740.39246  -3959993.20844  23377750.1484                   23377748.5984
 -46596961.02048 -36278144.51246  20743663.9144                   20743659.9384
  -4106638.00447  -3185393.10744  23774846.0944                   23774847.0824
 11  8 20  0 34  0.0000000  0  9G17G10G09G04G12G05G30G02G25
 -64509785.68447 -50237013.27444  23549443.3674                   23549441.7664
 -39403459.01048 -30675697.20046  21025557.0784                   21025555.3524
 -26496675.41746 -20615784.91443  24152341.4774                   24152343.9844
 -52666731.59247 -41006490.21745  22200653.2894                   22200651.5744
 -29826700.61648 -23212766.00346  21259677.7504                   21259675.4104
 -23894493.08848 -18589604.26546  21624436.3914                   21624435.2934
  -5258795.38846  -4083932.10044  23347483.6024                   23347481.8794
 -46658076.85348 -36325767.22346  20732034.2584                   20732029.9184
  -4269197.05147  -3312062.45844  23743911.5554                   23743912.8874
 11  8 20  0 34 30.0000000  0  9G17G10G09G04G12G05G30G02G25
 -64521315.08547 -50245997.28244  23547249.6644                   23547248.4064
 -39454175.19148 -30715216.27246  21015906.2114                   21015904.5124
 -26483575.52446 -20605577.38343  24154834.4924                   24154836.2934
 -52655161.23547 -40997474.40045  22202855.3364                   22202853.6954
 -29942919.60748 -23303326.25446  21237562.1724                   21237559.8914
 -24043089.65548 -18705393.74046  21596159.2664                   21596158.4224
  -5417491.44547  -4207591.32144  23317283.5004                   23317282.7544
 -46718910.80848 -36373170.29646  20720458.0704                   20720453.6294
  -4431490.97247  -3438525.20544  23713027.8524                   23713028.6644
 11  8 20  0 35  0.0000000  0  9G17G10G09G04G12G05G30G02G25
 -64532647.59947 -50254827.83744  23545093.3524                   23545091.6334
 -39504239.48348 -30754227.39346  21006379.6484                   21006377.8524
 -26470373.77346 -20595290.39343  24157346.0004                   24157348.4104
 -52643479.86847 -40988372.06845  22205077.9774                   22205076.8634
 -30058626.08648 -23393487.13046  21215543.9844                   21215541.7584
 -24191278.96248 -18820865.86046  21567959.6254                   21567958.4494
  -5575824.08147  -4330967.30444  23287153.8834                   23287152.7464
 -46779462.40848 -36420353.35146  20708935.2734                   20708930.8634
  -4593515.38247  -3564777.95444  23682195.7344                   23682195.9414
 11  8 20  0 35 30.0000000  0  9G17G10G09G04G12G05G30G02G25
 -64543786.77847 -50263507.78344  23542972.8914                   23542972.3524
 -39553655.42848 -30792733.31146  20996975.9774                   20996974.0664
 -26457076.02646 -20584928.66144  24159876.9774                   24159879.6724
 -52631692.30047 -40979186.95945  22207321.1564                   22207319.6094
 -30173821.22848 -23483249.56546  21193623.1334                   21193620.5474
 -24339060.82648 -18936020.51846  21539837.8444                   21539836.6254
  -5733793.32547  -4454060.15644  23257093.4384                   23257092.3834
 -46839735.67748 -36467319.52346  20697465.8204                   20697460.8244
  -4755270.47747  -3690820.82844  23651414.5234                   23651415.2384
 11  8 20  0 36  0.0000000  0  9G17G10G09G04G12G05G30G02G25
 -64554731.69747 -50272036.35844  23540890.0864                   23540889.2624
 -39602423.80048 -30830734.62246  20987695.4304                   20987694.1604
 -26443685.97746 -20574494.93344  24162425.4924                   24162427.1604
 -52619800.17547 -40969920.39445  22209583.5474                   22209582.6294
 -30288503.07948 -23572612.03846  21171799.7194                   21171797.5314
 -24486433.35748 -19050856.19046  21511793.7584                   21511792.4574
  -5891396.73847  -4576867.97444  23227102.3364                   23227101.8594
 -46899731.85548 -36514069.78347  20686049.3204                   20686044.7304
  -4916753.83947  -3816651.95644  23620685.3364                   23620686.3404
 11  8 20  0 36 30.0000000  0  9G17G10G09G04G12G05G30G02G25
 -64565481.80247 -50280413.13044  23538844.7344                   23538843.5944
 -39650545.47048 -30868232.01246  20978538.5394                   20978536.6804
 -26430206.83146 -20563991.78944  24164991.0864                   24164992.8634
 -52607805.39247 -40960573.84645  22211866.5394                   22211865.6374
 -30402669.77748 -23661573.09946  21150074.8914                   21150072.4064
 -24633393.75048 -19165370.73946  21483827.9844                   21483826.8164
  -6048631.50446  -4699388.50744  23197181.6174                   23197180.5944
 -46959452.22748 -36560605.12546  20674684.1174                   20674680.0744
  -5077962.79847  -3942269.26644  23590008.4064                   23590009.5704
 11  8 20  0 37  0.0000000  0  9G17G10G09G04G12G05G30G02G25
 -64576039.58347 -50288640.05644  23536835.6414                   23536835.3404
 -39698023.43848 -30905227.81146  20969503.2344                   20969501.8364
 -26416644.47246 -20553423.81244  24167571.0864                   24167573.6684
 -52595712.13147 -40951150.55745  22214167.5634                   22214166.9924
 -30516321.63048 -23750132.97146  21128447.4614                   21128444.6764
 -24779941.93548 -19279564.07446  21455940.7344                   21455939.7894
  -6205497.30546  -4821621.59244  23167330.8444                   23167329.9924
 -47018900.78148 -36606928.67246  20663371.8204                   20663367.4614
  -5238897.17147  -4067672.62244  23559383.2734                   23559384.1724
 11  8 20  0 37 30.0000000  0  9G17G10G09G04G12G05G30G02G25
 -64586405.91147 -50296717.78544  23534862.5554                   23534861.8834
 -39744859.72248 -30941723.60846  20960590.9224                   20960588.9264
 -26403003.51946 -20542794.62144  24170167.5234                   24170168.9654
 -52583523.64247 -40941653.06045  22216486.8524                   22216485.4804
 -30629458.29748 -23838291.40346  21106918.3284                   21106915.6334
 -24926076.96048 -19393435.46946  21428132.4694                   21428130.8594
  -6361992.83447  -4943566.12044  23137551.2194                   23137549.8554
 -47078079.90148 -36653042.26246  20652110.1094                   20652105.9534
  -5399555.72547  -4192861.05244  23528810.9694                   23528812.5634
 11  8 20  0 38  0.0000000  0  9G17G10G09G04G12G05G30G02G25
 -64596578.05547 -50304644.19244  23532927.3594                   23532927.1804
 -39791053.02248 -30977718.36546  20951800.3834                   20951798.9804
 -26389284.99947 -20532104.88944  24172778.9144                   24172779.8204
 -52571239.19147 -40932080.79345  22218824.7274                   22218823.8674
 -30742075.71248 -23926045.23746  21085487.9534                   21085485.6684
 -25071793.79048 -19506980.99646  21400402.9454                   21400401.9384
  -6518113.14047  -5065218.26944  23107842.6334                   23107841.2274
 -47136988.62348 -36698945.15546  20640900.3674                   20640896.0164
  -5559933.56547  -4317830.76144  23498292.3914                   23498292.7504
 11  8 20  0 38 30.0000000  0  9G17G10G09G04G12G05G30G02G25
 -64606556.03847 -50312419.27544  23531028.0164                   23531028.2154
 -39836604.97448 -31013213.37046  20943132.6094                   20943130.7504
 -26375492.89346 -20521357.91443  24175402.5634                   24175403.8484
 -52558861.18347 -40922435.61845  22221180.1094                   22221178.7624
 -30854172.60748 -24013393.46146  21064156.5394                   21064154.1994
 -25217090.37948 -19620199.06246  21372753.9144                   21372753.0314
  -6673855.88147  -5186576.22444  23078205.4614                   23078204.0044
 -47195628.65848 -36744638.69346  20629741.8054                   20629736.7894
  -5720028.55247  -4442580.04144  23467827.2424                   23467828.1884
 11  8 20  0 39  0.0000000  0  9G17G10G09G04G12G05G30G02G25
 -64616343.62047 -50320046.05144  23529166.0314                   23529166.2034
 -39881520.24148 -31048212.28146  20934585.7114                   20934583.5234
 -26361634.43546 -20510559.21343  24178040.0944                   24178041.8014
 -52546395.35747 -40912722.01645  22223552.4774                   22223551.1024
 -30965751.22448 -24100337.84646  21042923.9614                   21042921.6524
 -25361968.16048 -19733090.78646  21345184.9144                   21345183.6454
  -6829222.43747  -5307641.05644  23048640.3594                   23048639.0204
 -47254005.58448 -36790127.20646  20618632.7894                   20618628.3634
  -5879842.15247  -4567110.07444  23437415.6564                   23437416.5824
 11  8 20  0 39 30.0000000  0  9G17G10G09G04G12G05G30G02G25
 -64625937.05046 -50327521.51044  23527340.9454                   23527340.2154
 -39925796.37248 -31082713.12146  20926159.8134                   20926158.3634
 -26347709.83246 -20499708.93343  24180689.5234                   24180692.1294
 -52533840.12147 -40902938.74445  22225941.7114                   22225940.0594
 -31076806.57348 -24186874.47446  21021790.8524                   21021788.1644
 -25506421.30948 -19845651.63046  21317696.0704                   21317694.4224
  -6984207.03847  -5428408.25744  23019147.5704                   23019145.8164
 -47312117.59748 -36835409.29046  20607574.3284                   20607570.1294
  -6039368.61547  -4691416.38144  23407057.9224                   23407059.2624
 11  8 20  0 40  0.0000000  0  9G17G10G09G04G12G05G30G02G25
 -64635335.75146 -50334845.21244  23525552.2034                   23525552.3674
 -39969433.96048 -31116716.42746  20917855.5234                   20917853.6994
 -26333721.60546 -20488809.03443  24183351.4844                   24183353.9104
 -52521196.98847 -40893086.99045  22228348.1094                   22228346.7274
 -31187336.29248 -24273001.52346  21000757.4844                   21000754.7584
 -25650447.32048 -19957879.63746  21290288.7974                   21290287.3444
  -7138806.38947  -5548875.24344  22989728.8284                   22989727.4454
 -47369965.33348 -36880485.45446  20596566.2424                   20596561.9534
  -6198604.71447  -4815496.41544  23376756.5474                   23376758.4064
 11  8 20  0 40 30.0000000  0  9G17G10G09G04G12G05G30G02G25
 -64644538.50446 -50342016.27544  23523801.0164                   23523800.3484
 -40012433.22148 -31150222.32446  20909672.9064                   20909671.7384
 -26319672.69746 -20477861.98143  24186024.2894                   24186027.6054
 -52508466.80747 -40883167.38245  22230769.6414                   22230768.8634
 -31297337.86148 -24358717.03146  20979825.2974                   20979822.8554
 -25794043.00948 -20069772.33646  21262964.0314                   21262962.2934
  -7293017.25047  -5669039.54344  22960382.9844                   22960381.8634
 -47427549.05748 -36925355.87946  20585608.3914                   20585603.7624
  -6357547.35747  -4939347.78645  23346510.9304                   23346512.0664
 11  8 20  0 41  0.0000000  0  9G17G10G09G04G12G05G30G02G25
 -64653547.98346 -50349036.71144  23522086.5704                   23522085.8244
 -40054797.73748 -31183233.62846  20901611.4144                   20901609.6484
 -26305569.16146 -20466872.35243  24188709.6254                   24188711.0704
 -52495653.84547 -40873183.28645  22233208.0944                   22233207.0124
 -31406812.37448 -24444021.84646  20958992.3834                   20958990.7544
 -25937208.41848 -20181329.75146  21235720.1644                   21235718.7114
  -7446839.40047  -5788900.91344  22931111.4534                   22931110.2624
 -47484872.86248 -36970023.77946  20574699.9924                   20574695.9774
  -6516196.30747  -5062970.31844  23316320.6954                   23316322.1764
 11  8 20  0 41 30.0000000  0  9G17G10G09G04G12G05G30G02G25
 -64662364.96046 -50355907.11644  23520408.5084                   23520408.3954
 -40096529.83048 -31215752.14246  20893669.9614                   20893668.2774
 -26291415.35246 -20455843.51043  24191402.1254                   24191404.8954
 -52482761.14247 -40863137.03845  22235661.8204                   22235661.2194
 -31515759.30448 -24528915.55146  20938260.8054                   20938258.2424
 -26079942.51848 -20292551.07246  21208558.7894                   21208557.4144
  -7600271.72047  -5908458.52844  22901914.1024                   22901913.0164
 -47541939.43348 -37014491.23446  20563840.8444                   20563836.6054
  -6674550.41947  -5186363.11645  23286187.2664                   23286188.3984
 11  8 20  0 42  0.0000000  0  9G17G10G09G04G12G05G30G02G25
 -64670989.10346 -50362627.31044  23518768.3134                   23518767.2384
 -40137630.70948 -31247778.79246  20885848.8834                   20885846.9844
 -26277214.47146 -20444778.01144  24194104.6804                   24194107.0904
 -52469790.42847 -40853030.00245  22238130.1644                   22238128.5434
 -31624177.13348 -24613396.98446  20917629.2664                   20917627.0234
 -26222242.60548 -20403434.20046  21181479.9384                   21181478.1334
  -7753311.48247  -6027710.25844  22872791.1174                   22872790.1684
 -47598750.33448 -37058759.46846  20553029.8364                   20553025.2974
  -6832607.24947  -5309524.25145  23256110.3984                   23256111.2934
 11  8 20  0 42 30.0000000  0  9G17G10G09G04G12G05G30G02G25
 -64679419.23746 -50369196.26244  23517163.2584                   23517162.4224
 -40178100.35648 -31279313.57746  20878148.0394                   20878145.5044
 -26262969.06446 -20433677.77143  24196815.1334                   24196818.0394
 -52456742.42047 -40842862.73245  22240613.1724                   22240611.3204
 -31732063.22048 -24697464.05846  20897099.5474                   20897096.9534
 -26364105.75248 -20513976.86646  21154484.0704                   21154482.2894
  -7905955.09147  -6146653.30444  22843743.8754                   22843743.2814
 -47655305.83248 -37102828.68946  20542267.5474                   20542263.3794
  -6990363.07547  -5432450.82145  23226090.2114                   23226090.8324
 11  8 20  0 43  0.0000000  0  9G17G10G09G04G12G05G30G02G25
 -64687654.58346 -50375613.46044  23515596.8914                   23515596.1484
 -40217939.07747 -31310356.72446  20870566.9534                   20870564.9734
 -26248682.12646 -20422545.17944  24199534.0864                   24199536.8984
 -52443618.33047 -40832636.19345  22243110.4614                   22243109.1134
 -31839415.21848 -24781114.97246  20876671.1334                   20876668.4694
 -26505528.73248 -20624176.55146  21127571.9224                   21127570.8094
  -8058199.33747  -6265285.11344  22814773.5554                   22814772.4924
 -47711606.76948 -37146699.54546  20531553.9144                   20531549.8284
  -7147814.82947  -5555140.46045  23196128.2894                   23196128.8594
 11  8 20  0 43 30.0000000  0  9G17G10G09G04G12G05G30G02G25
 -63120273.60946 -49154277.70244  23813858.7814                   23813859.1644
 -38681726.14148 -30113307.68146  21162898.1804                   21162896.9774
 -24658936.11346 -19183782.20244  24502053.8754                   24502056.3444
 -50854999.46847 -39594751.40045  22545415.0164                   22545413.0164
 -30370807.20548 -23636745.08046  21156138.0864                   21156135.3754
 -25071083.92348 -19506427.29146  21400537.7814                   21400536.6524
  -6634615.88747  -5155999.28344  23085671.9454                   23085670.6024
 -46192231.19348 -35962770.52246  20820681.5704                   20820677.2194
  -5729533.98447  -4449986.51945  23466017.8284                   23466018.5394
 11  8 20  0 44  0.0000000  0  9G17G10G09G04G12G05G30G02G25
 -63128116.69046 -49160389.21044  23812367.0634                   23812366.6764
 -38720305.34147 -30143369.39446  21155556.9924                   21155555.5664
 -24644573.24846 -19172590.47044  24504786.9304                   24504789.2154
 -50841726.50647 -39584408.84545  22547940.4844                   22547939.7544
 -30477084.79648 -23719558.77646  21135914.0944                   21135911.3524
 -25211618.30848 -19615934.56246  21373794.9304                   21373793.7704
  -6786052.12047  -5274001.50144  23056854.7584                   23056854.0944
 -46248024.42648 -36006245.77146  20810064.6644                   20810060.1564
  -5886368.29447  -4572195.04444  23436173.0864                   23436173.8284
 11  8 20  0 44 30.0000000  0  9G17G10G09G04G12G05G30G02G25
 -63135767.26646 -49166350.76244  23810910.6094                   23810911.0434
 -38758260.25848 -30172944.64946  21148334.4534                   21148332.5124
 -24630181.61646 -19161376.32144  24507525.3984                   24507527.9104
 -50828385.42447 -39574013.21044  22550479.1884                   22550478.2664
 -30582827.01448 -23801955.29846  21115791.8754                   21115789.6294
 -25351709.08548 -19725096.14246  21347136.7034                   21347135.3244
  -6937084.37847  -5391688.90544  23028114.7734                   23028113.1684
 -46303570.08348 -36049528.08646  20799494.4534                   20799490.7974
  -6042894.02247  -4694163.06044  23406387.7344                   23406389.2344
 11  8 20  0 45  0.0000000  0  9G17G10G09G04G12G05G30G02G25
 -63143220.76246 -49172158.73644  23809493.2344                   23809492.1884
 -38795588.22647 -30202031.37146  21141231.3284                   21141229.1334
 -24615760.26646 -19150139.03343  24510269.1724                   24510272.5944
 -50814973.74647 -39563562.57445  22553031.0554                   22553030.3914
 -30688027.73948 -23883929.88146  21095772.9844                   21095770.5944
 -25491349.45848 -19833906.78546  21320563.8674                   21320562.7504
  -7087705.82447  -5509056.22444  22999452.4304                   22999450.7384
 -46358864.95148 -36092614.99246  20788972.1414                   20788967.8984
  -6199104.30147  -4815885.32144  23376661.8284                   23376662.4844
 11  8 20  0 45 30.0000000  0  9G17G10G09G04G12G05G30G02G25
 -63150478.54246 -49177814.21444  23808111.4064                   23808111.5704
 -38832292.15247 -30230631.82846  21134246.5704                   21134245.0004
 -24601313.86546 -19138882.22943  24513018.9064                   24513021.3754
 -50801494.76547 -39553059.49745  22555596.2734                   22555594.6764
 -30792687.03648 -23965482.58046  21075856.5944                   21075854.1914
 -25630538.73348 -19942365.91446  21294076.9384                   21294075.5864
  -7237915.49347  -5626102.67144  22970868.1564                   22970867.1564
 -46413912.41148 -36135509.11746  20778496.9384                   20778492.6484
  -6354998.23347  -4937361.06144  23346996.0704                   23346996.1564
 11  8 20  0 46  0.0000000  0  9G17G10G09G04G12G05G30G02G25
 -63157537.65046 -49183314.89344  23806768.7034                   23806767.9774
 -38868370.35947 -30258744.72646  21127381.2034                   21127378.9264
 -24586843.07646 -19127606.45043  24515772.0634                   24515775.2624
 -50787947.34047 -39542503.07245  22558174.4774                   22558173.0354
 -30896800.90048 -24046610.24946  21056044.2894                   21056042.1094
 -25769271.68448 -20050469.46746  21267676.8134                   21267675.7624
  -7387708.01847  -5742824.09345  22942363.5314                   22942362.5704
 -46468710.85848 -36178209.19946  20768069.0554                   20768065.1024
  -6510570.38247  -5058586.05144  23317391.3204                   23317392.1884
 11  8 20  0 46 30.0000000  0  9G17G10G09G04G12G05G30G02G25
 -63164398.49846 -49188661.06544  23805462.3524                   23805462.3134
 -38903824.90548 -30286371.66746  21120634.9064                   21120632.7034
 -24572351.58846 -19116314.52443  24518530.3284                   24518532.6884
 -50774333.66347 -39531895.04245  22560764.9774                   22560764.0084
 -31000368.19048 -24127312.02546  21036336.2814                   21036334.1764
 -25907547.19648 -20158216.55946  21241363.9304                   21241362.7734
  -7537081.60547  -5859219.04144  22913938.6954                   22913937.4414
 -46523262.34648 -36220716.82846  20757688.3364                   20757684.0664
  -6665819.05747  -5179558.99544  23287848.3444                   23287849.3794
 11  8 20  0 47  0.0000000  0  9G17G10G09G04G12G05G30G02G25
 -63171064.91746 -49193855.69844  23804194.0394                   23804193.4534
 -38938661.17548 -30313516.79746  21114005.2274                   21114003.3444
 -24557847.06346 -19105012.38243  24521290.6484                   24521293.1254
 -50760659.58347 -39521239.93445  22563366.8834                   22563365.6914
 -31103391.44948 -24207589.87746  21016731.8134                   21016729.4654
 -26045366.76248 -20265608.39246  21215137.9144                   21215136.6484
  -7686037.87047  -5975288.83144  22885593.3284                   22885592.0744
 -46577571.90348 -36263035.95046  20747353.7034                   20747349.2464
  -6820745.83547  -5300281.10645  23258366.8984                   23258368.2974
 11  8 20  0 47 30.0000000  0  9G17G10G09G04G12G05G30G02G25
 -63177534.42646 -49198896.90944  23802963.6954                   23802962.4024
 -38972878.15347 -30340179.38146  21107493.7734                   21107492.0274
 -24543330.35646 -19093700.77843  24524053.0634                   24524054.5744
 -50746924.21447 -39510537.05145  22565980.3834                   22565979.9774
 -31205867.19848 -24287441.09646  20997231.3594                   20997228.7774
 -26182725.68048 -20372641.26546  21188999.3444                   21188997.8874
  -7834571.78347  -6091029.48644  22857327.9454                   22857326.6054
 -46631638.93048 -36305166.08346  20737064.9384                   20737060.7114
  -6975345.57447  -5420748.38345  23228947.7274                   23228948.5514
 11  8 20  0 48  0.0000000  0  9G17G10G09G04G12G05G30G02G25
 -63183807.40846 -49203785.03444  23801769.3984                   23801768.6684
 -39006477.67147 -30366360.81946  21101100.1724                   21101097.9184
 -24528805.19046 -19082382.57143  24526817.1024                   24526818.9024
 -50733129.67047 -39499788.05345  22568605.1804                   22568604.3054
 -31307794.43248 -24366864.90046  20977834.9144                   20977832.4224
 -26319622.57048 -20479314.12046  21162948.3834                   21162947.3204
  -7982681.27147  -6206439.43245  22829143.8754                   22829142.4184
 -46685464.80148 -36347108.30746  20726822.1884                   20726818.0044
  -7129616.35747  -5540959.35145  23199590.5084                   23199591.5664
 11  8 20  0 48 30.0000000  0  9G17G10G09G04G12G05G30G02G25
 -63189881.56046 -49208518.16244  23800613.8134                   23800612.7114
 -39039459.57948 -30392061.01946  21094824.0394                   21094822.3554
 -24514272.70146 -19071058.68943  24529582.3524                   24529583.2974
 -50719275.75747 -39488992.83545  22571242.3134                   22571241.0634
 -31409169.76848 -24445858.65746  20958543.9224                   20958541.8834
 -26456053.56048 -20585623.93446  21136986.6804                   21136984.8204
  -8130362.03447  -6321515.30445  22801040.8754                   22801039.9384
 -46739048.95348 -36388862.17146  20716625.5634                   20716620.9144
  -7283553.79947  -5660910.55645  23170297.4224                   23170298.4304
 11  8 20  0 49  0.0000000  0  9G17G10G09G04G12G05G30G02G25
 -63195758.69946 -49213097.79643  23799495.2584                   23799494.7304
 -39071827.30748 -30417282.62246  21088664.5004                   21088662.4144
 -24499738.15046 -19059733.16042  24532348.6024                   24532350.7544
 -50705365.87647 -39478153.96445  22573888.8204                   22573888.3134
 -31509993.81348 -24524422.83046  20939357.8054                   20939354.7854
 -26592017.84548 -20691570.08446  21111113.7194                   21111111.5944
  -8277613.43147  -6436256.61144  22773020.0234                   22773019.0984
 -46792395.41048 -36430430.82446  20706473.6804                   20706469.7154
  -7437157.27847  -5780601.53745  23141067.6804                   23141068.7894
 11  8 20  0 49 30.0000000  0  9G17G10G09G04G12G05G30G02G25
 -63201439.68146 -49217524.58744  23798414.6484                   23798414.3594
 -39103582.77148 -30442027.14446  21082621.8054                   21082619.2234
 -24485205.47746 -19048409.10043  24535114.1334                   24535115.9964
 -50691402.40447 -39467273.36545  22576545.9384                   22576545.5234
 -31610265.93148 -24602556.94146  20920276.7584                   20920274.0354
 -26727513.91648 -20797151.39646  21085329.1954                   21085327.4344
  -8424433.79347  -6550662.03544  22745080.7814                   22745080.1254
 -46845505.74248 -36471815.49246  20696367.6094                   20696363.6374
  -7590425.00547  -5900030.89545  23111901.8834                   23111902.7734
 11  8 20  0 50  0.0000000  0  9G17G10G09G04G12G05G30G02G25
 -63206925.46546 -49221799.28944  23797369.9454                   23797370.0514
 -39134728.82548 -30466296.79546  21076695.0164                   21076693.1134
 -24470679.49646 -19037090.25843  24537878.4924                   24537880.2154
 -50677388.35247 -39456353.34345  22579212.5314                   22579212.1524
 -31709986.39048 -24680261.18046  20901300.3134                   20901297.6454
 -26862541.67248 -20902367.78246  21059634.0474                   21059632.8244
  -8570821.99447  -6664730.71544  22717223.5394                   22717222.7274
 -46898382.63848 -36513018.25446  20686305.2504                   20686300.6844
  -7743355.97847  -6019197.82645  23082799.9844                   23082801.1764
 11  8 20  0 50 30.0000000  0  9G17G10G09G04G12G05G30G02G25
 -63212213.58946 -49225919.96343  23796364.3284                   23796363.8204
 -39165265.03848 -30490091.25146  21070884.1024                   21070882.3364
 -24456160.97246 -19025777.21343  24540641.2114                   24540643.8244
 -50663323.05847 -39445393.37444  22581889.3054                   22581888.2304
 -31809151.27848 -24757532.51946  20882430.0704                   20882427.6524
 -26997096.86148 -21007215.93346  21034029.1884                   21034027.7584
  -8716773.51947  -6778459.12044  22689450.1484                   22689449.5474
 -46951025.18448 -36554038.41046  20676287.8674                   20676283.4264
  -7895945.44547  -6138098.66745  23053762.5474                   23053763.4924
 11  8 20  0 51  0.0000000  0  9G17G10G09G04G12G05G30G02G25
 -63217304.99446 -49229887.30444  23795395.6174                   23795394.7814
 -39195193.90248 -30513412.44146  21065188.8754                   21065186.5944
 -24441654.16246 -19014473.35043  24543402.6024                   24543404.7664
 -50649209.07947 -39434395.50045  22584575.4774                   22584573.9964
 -31907760.68448 -24834370.99746  20863665.3054                   20863663.2814
 -27131178.12948 -21111694.79746  21008514.4454                   21008513.1094
  -8862286.78847  -6891846.03344  22661760.3674                   22661758.5204
 -47003436.10448 -36594878.06646  20666314.1884                   20666310.1804
  -8048191.90547  -6256732.21845  23024791.4454                   23024792.1844
 11  8 20  0 51 30.0000000  0  9G17G10G09G04G12G05G30G02G25
 -63222198.66646 -49233700.57744  23794464.3754                   23794462.8984
 -39224515.95548 -30536260.78946  21059609.0234                   21059607.0634
 -24427161.23646 -19003180.29243  24546159.7274                   24546163.4264
 -50635046.92247 -39423360.05145  22587270.6484                   22587268.8284
 -32005812.06248 -24910774.65046  20845006.4614                   20845004.2774
 -27264782.36848 -21215801.95846  20983090.2504                   20983088.6214
  -9007358.42747  -7004888.82844  22634153.7584                   22634152.3284
 -47055615.57448 -36635537.38846  20656384.4144                   20656380.7194
  -8200091.97647  -6375095.86945  22995885.6174                   22995886.5784
 11  8 20  0 52  0.0000000  0  9G17G10G09G04G12G05G30G02G25
 -63226895.34746 -49237360.33444  23793570.3674                   23793570.3484
 -39253233.80248 -30558638.32746  21054144.3594                   21054142.6174
 -24412686.33546 -18991901.25943  24548914.1254                   24548916.8244
 -50620839.02647 -39412289.00944  22589973.8054                   22589973.0234
 -32103305.29948 -24986743.41146  20826454.2034                   20826452.1684
 -27397908.19148 -21319536.32346  20957757.2974                   20957755.4144
  -9151986.80347  -7117586.18844  22606631.7274                   22606630.3284
 -47107565.72648 -36676018.02146  20646499.3284                   20646494.8324
  -8351643.87347  -6493188.18945  22967045.9534                   22967047.0594
 11  8 20  0 52 30.0000000  0  9G17G10G09G04G12G05G30G02G25
 -63231397.06846 -49240868.23044  23792713.3594                   23792713.2344
 -39281351.21648 -30580547.99646  21048793.6334                   21048792.0314
 -24398234.89446 -18980640.55743  24551664.3204                   24551667.2154
 -50606589.21647 -39401185.29744  22592685.4144                   22592684.9264
 -32200241.43148 -25062278.06246  20808008.0554                   20808005.5354
 -27530556.04648 -21422898.24046  20932515.1954                   20932513.6174
  -9296171.92247  -7229938.18044  22579194.3594                   22579192.9964
 -47159290.14648 -36716322.74846  20636656.2034                   20636652.0234
  -8502847.53947  -6611009.19245  22938273.3444                   22938273.8954
 11  8 20  0 53  0.0000000  0  9G17G10G09G04G12G05G30G02G25
 -63235698.23946 -49244219.82944  23791895.6484                   23791894.8094
 -39308864.38248 -30601986.81946  21043558.0234                   21043556.0704
 -24383804.62346 -18969396.33343  24554410.6804                   24554413.8954
 -50592293.54847 -39390045.83344  22595405.7974                   22595404.9384
 -32296613.66548 -25137373.29246  20789669.0944                   20789666.6724
 -27662718.45848 -21525881.88646  20907365.4064                   20907363.9304
  -9439905.75247  -7341938.50844  22551842.9224                   22551841.4384
 -47210784.75048 -36756448.41146  20626856.9304                   20626853.3714
  -8653694.87647  -6728552.52145  22909567.8284                   22909569.0824
 11  8 20  0 53 30.0000000  0  9G17G10G09G04G12G05G30G02G25
 -63239802.37346 -49247417.85944  23791114.9924                   23791114.1254
 -39335777.93048 -30622958.41046  21038436.3284                   21038434.5554
 -24369402.06846 -18958173.71843  24557151.1334                   24557154.5704
 -50577956.60947 -39378874.19044  22598134.2974                   22598133.4614
 -32392424.03948 -25212030.72246  20771436.9454                   20771434.0554
 -27794396.54248 -21628488.14846  20882308.1724                   20882306.2504
  -9583189.26747  -7453587.97745  22524577.1024                   22524575.2814
 -47262054.21448 -36796398.64146  20617100.7114                   20617096.6994
  -8804186.80447  -6845818.90445  22880930.3834                   22880930.5864
 11  8 20  0 54  0.0000000  0  9G17G10G09G04G12G05G30G02G25
 -63243711.15546 -49250463.69344  23790370.7974                   23790369.9964
 -39362096.20548 -30643466.16146  21033428.3444                   21033426.5744
 -24355032.67646 -18946976.92143  24559885.9064                   24559888.7734
 -50563582.43447 -39367673.55044  22600869.3134                   22600868.8834
 -32487673.60548 -25286251.15346  20753311.3204                   20753309.0554
 -27925590.74448 -21730717.34646  20857342.8524                   20857341.0594
  -9726022.35147  -7564886.41645  22497396.4614                   22497394.6454
 -47313101.99248 -36836176.12046  20607386.5004                   20607382.5314
  -8954323.07347  -6962808.16144  22852360.1804                   22852360.4144
 11  8 20  0 54 30.0000000  0  9G17G10G09G04G12G05G30G02G25
 -63247425.57346 -49253358.08444  23789663.8834                   23789662.6054
 -39387822.02248 -30663512.23846  21028532.3914                   21028530.7664
 -24340700.38446 -18935809.01943  24562614.1094                   24562616.5514
 -50549173.21847 -39356445.61344  22603611.8444                   22603610.4964
 -32582362.24448 -25360034.51646  20735293.0554                   20735290.6134
 -28056299.86448 -21832568.56446  20832469.5944                   20832467.8364
  -9868403.39547  -7675832.69145  22470302.2114                   22470300.5784
 -47363930.18648 -36875782.51446  20597714.5864                   20597710.2504
  -9104102.10447  -7079519.05345  22823858.1644                   22823858.7934
 11  8 20  0 55  0.0000000  0  9G17G10G09G04G12G05G30G02G25
 -61675522.43246 -48028498.44743  24088787.2814                   24088786.7894
 -37837533.31548 -29455495.05846  21323542.8984                   21323541.1174
 -22750985.76346 -17697070.43543  24865126.1024                   24865128.8714
 -48959307.91247 -38117589.52644  22906152.7974                   22906152.2584
 -31101062.61048 -24205775.05346  21017174.8594                   21017172.2304
 -26611094.61248 -20706434.54946  21107482.8134                   21107480.9804
  -8434902.39147  -6558818.87245  22743088.4224                   22743086.7154
 -45839115.80148 -35687615.45746  20887876.8284                   20887873.7814
  -7678093.49047  -5968343.48445  23095218.6254                   23095219.1214
 11  8 20  0 55 30.0000000  0  9G17G10G09G04G12G05G30G02G25
 -61678843.84446 -48031086.66444  24088154.4454                   24088154.4694
 -37862075.47948 -29474618.81746  21318872.6254                   21318870.6374
 -22736733.10946 -17685964.66543  24867837.5084                   24867841.5704
 -48944829.04947 -38106307.30744  22908908.4614                   22908907.2934
 -31194622.03748 -24278678.50846  20999370.8204                   20999368.4224
 -26740823.88948 -20807522.25546  21082796.0634                   21082794.8404
  -8576368.44947  -6669052.13545  22716168.1174                   22716166.7544
 -45889505.36848 -35726880.04746  20878288.4534                   20878284.1524
  -7827146.71447  -6084488.81245  23066854.3674                   23066855.3094
 11  8 20  0 56  0.0000000  0  9G17G10G09G04G12G05G30G02G25
 -61681969.03146 -48033521.88844  24087560.3754                   24087560.5044
 -37886028.45548 -29493283.45946  21314314.6954                   21314312.7544
 -22722525.04846 -17674893.61543  24870542.1884                   24870545.7854
 -48930317.88047 -38094999.91344  22911669.5234                   22911668.6604
 -31287615.30848 -24351140.79346  20981675.2114                   20981672.7304
 -26870060.68448 -20908226.20046  21058203.2734                   21058201.7814
  -8717373.71647  -6778926.34645  22689336.0004                   22689334.7234
 -45939677.60648 -35765975.30446  20868740.9534                   20868736.8284
  -7975833.58547  -6200348.69245  23038560.5554                   23038561.1564
 11  8 20  0 56 30.0000000  0  9G17G10G09G04G12G05G30G02G25
 -61684894.28746 -48035801.38044  24087004.2274                   24087003.0204
 -37909390.81548 -29511487.88646  21309868.9224                   21309867.1994
 -22708361.34846 -17663857.09643  24873237.6094                   24873240.5354
 -48915772.26247 -38083665.72044  22914437.3524                   22914437.2154
 -31380038.24148 -24423158.66346  20964087.5554                   20964085.1884
 -26998799.64448 -21008542.22746  21033705.0084                   21033703.5474
  -8857912.57447  -6888437.10745  22662592.2734                   22662590.9144
 -45989630.62348 -35804899.71846  20859235.0864                   20859230.4454
  -8124148.34447  -6315918.61145  23010337.0164                   23010337.4884
 11  8 20  0 57  0.0000000  0  9G17G10G09G04G12G05G30G02G25
 -61687624.94146 -48037929.16644  24086484.0474                   24086484.1914
 -37932169.87248 -29529237.79346  21305534.0704                   21305531.5434
 -22694250.59846 -17652861.83443  24875923.3204                   24875926.8164
 -48901199.23747 -38072310.12044  22917210.7194                   22917210.0824
 -31471895.29448 -24494735.59746  20946607.5394                   20946605.0004
 -27127044.32248 -21108473.11746  21009300.6644                   21009299.1334
  -8997988.09347  -6997586.82445  22635936.5474                   22635934.9344
 -46039371.31148 -35843658.70046  20849770.0314                   20849765.8794
  -8272093.94547  -6431200.86745  22982184.0394                   22982184.7384
 11  8 20  0 57 30.0000000  0  9G17G10G09G04G12G05G30G02G25
 -61690159.76346 -48039904.39743  24086001.4774                   24086000.9694
 -37954365.95748 -29546533.41846  21301310.6254                   21301308.0784
 -22680194.80846 -17641909.36643  24878598.0164                   24878601.6994
 -48886598.86347 -38060933.22444  22919989.3524                   22919987.7584
 -31563184.04648 -24565869.68346  20929236.1334                   20929233.9384
 -27254791.36448 -21208016.21746  20984991.1954                   20984989.9924
  -9137596.63447  -7106372.70545  22609369.5084                   22609368.8164
 -46088899.42748 -35882252.04946  20840344.8524                   20840340.6054
  -8419666.68047  -6546192.58445  22954101.6644                   22954102.7234
 11  8 20  0 58  0.0000000  0  9G17G10G09G04G12G05G30G02G25
 -61692500.35246 -48041728.27444  24085556.0554                   24085555.9804
 -37975982.97348 -29563377.83446  21297196.9614                   21297195.0784
 -22666198.54046 -17631003.35643  24881261.5634                   24881263.7234
 -48871974.29847 -38049537.47344  22922772.0784                   22922770.7624
 -31653905.16848 -24636561.46946  20911972.2814                   20911969.7344
 -27382040.76748 -21307171.56446  20960776.3984                   20960774.5704
  -9276737.53247  -7214794.15345  22582892.2274                   22582890.9264
 -46138217.84048 -35920681.97546  20830959.9844                   20830955.3984
  -8566865.68247  -6660893.08945  22926090.6174                   22926091.4734
 11  8 20  0 58 30.0000000  0  9G17G10G09G04G12G05G30G02G25
 -61694643.51846 -48043398.30643  24085148.2664                   24085148.2504
 -37997019.55147 -29579769.95846  21293193.4774                   21293191.9384
 -22652261.49446 -17620143.43343  24883913.9774                   24883916.9064
 -48857323.51647 -38038121.31144  22925560.3364                   22925558.9184
 -31744054.41448 -24706807.63946  20894817.6644                   20894815.2154
 -27508787.22248 -21405934.98346  20936657.7034                   20936656.0204
  -9415405.30647  -7322846.92845  22556504.4384                   22556503.3164
 -46187325.06948 -35958947.35346  20821615.0234                   20821611.3794
  -8713685.37547  -6775298.02645  22898151.8754                   22898152.8634
 11  8 20  0 59  0.0000000  0  9G17G10G09G04G12G05G30G02G25
 -61696588.96346 -48044914.29444  24084778.6804                   24084778.3524
 -38017476.97747 -29595710.79346  21289300.3364                   21289298.5394
 -22638386.48646 -17609331.91143  24886554.2034                   24886557.7154
 -48842647.74847 -38026685.64844  22928352.6334                   22928352.0164
 -31833630.57248 -24776607.23746  20877771.8984                   20877769.7304
 -27635028.96948 -21504305.15046  20912634.3984                   20912632.7624
  -9553597.43747  -7430529.08645  22530207.7114                   22530206.0204
 -46236221.96948 -35997048.84146  20812310.4064                   20812306.2464
  -8860123.11747  -6889405.32145  22870285.3204                   22870285.8674
 11  8 20  0 59 30.0000000  0  9G17G10G09G04G12G05G30G02G25
 -61698339.60847 -48046278.50944  24084445.4774                   24084445.5514
 -38037360.48447 -29611204.43346  21285516.6414                   21285514.9144
 -22624579.75946 -17598573.50843  24889182.3284                   24889184.3404
 -48827951.46847 -38015234.05844  22931149.8204                   22931147.8754
 -31922635.66648 -24845961.86646  20860834.6024                   20860832.1524
 -27760767.26648 -21602282.99246  20888707.4384                   20888705.6994
  -9691314.75647  -7537841.26845  22504000.7894                   22503999.2114
 -46284912.50448 -36034989.52346  20803044.8834                   20803040.5944
  -9006179.53047  -7003215.51445  22842491.5634                   22842492.4454
 11  8 20  1  0  0.0000000  0  8G17G10G04G12G05G30G02G25
 -61699891.56647 -48047487.86644  24084150.2274                   24084149.8164
 -38056668.18047 -29626249.37446  21281842.8674                   21281841.3714
 -48813232.23447 -38003764.54244  22933950.0474                   22933948.8364
 -32011065.29248 -24914868.06246  20844007.1174                   20844004.0704
 -27885996.44348 -21699864.13046  20864876.8594                   20864875.4494
  -9828551.27647  -7644778.79945  22477885.4774                   22477884.5634
 -46333394.75148 -36072767.89746  20793819.1334                   20793814.7154
  -9151848.41847  -7116723.71245  22814771.6954                   22814772.7894
 11  8 20  1  0 30.0000000  0  8G17G10G04G12G05G30G02G25
 -61701246.72347 -48048543.84843  24083892.1334                   24083891.8324
 -38075404.20547 -29640848.84646  21278277.3524                   21278275.3364
 -48798492.92947 -37992279.41944  22936755.7344                   22936754.4494
 -32098920.27148 -24983326.48946  20827288.7734                   20827286.5044
 -28010716.34948 -21797048.44346  20841143.3134                   20841141.8484
  -9965306.44047  -7751341.25445  22451862.1644                   22451860.4414
 -46381671.32148 -36110386.00446  20784632.2504                   20784627.9734
  -9297129.19247  -7229929.49345  22787126.5004                   22787127.0124
 11  8 20  1  1  0.0000000  0  8G17G10G04G12G05G30G02G25
 -61702398.15647 -48049441.10744  24083673.8754                   24083673.0204
 -38093563.08848 -29654998.61845  21274822.0394                   21274820.0474
 -48783728.01647 -37980774.33744  22939564.8674                   22939564.0434
 -32186192.67648 -25051330.94846  20810681.3284                   20810678.8364
 -28134918.60748 -21893829.38246  20817508.5234                   20817506.7974
 -10101571.05847  -7857521.48045  22425931.6484                   22425930.1994
 -46429736.59348 -36147839.45446  20775485.3054                   20775481.3244
  -9442012.45047  -7342825.50645  22759555.5164                   22759556.4304
 11  8 20  1  1 30.0000000  0  8G17G10G04G12G05G30G02G25
 -61703345.77047 -48050179.55744  24083492.0944                   24083492.0314
 -38111147.11247 -29668700.43346  21271475.9844                   21271473.8594
 -48768939.18147 -37969250.63144  22942379.0784                   22942378.1914
 -32272881.62348 -25118880.77246  20794184.9144                   20794183.1484
 -28258601.14048 -21990205.34546  20793972.0554                   20793970.4574
 -10237343.06947  -7963317.84245  22400095.0084                   22400093.5554
 -46477592.52048 -36185129.79546  20766379.0314                   20766375.2734
  -9586495.89847  -7455409.99145  22732061.5704                   22732062.1374
 11  8 20  1  2  0.0000000  0  8G17G10G04G12G05G30G02G25
 -61704089.91246 -48050759.45244  24083351.2894                   24083351.2154
 -38128158.99947 -29681956.45645  21268238.2504                   21268236.2664
 -48754128.00047 -37957709.46944  22945197.2584                   22945196.7664
 -32358987.10848 -25185975.95246  20777799.6334                   20777797.1764
 -28381762.80748 -22086175.43246  20770535.4774                   20770533.5824
 -10372620.54347  -8068728.85345  22374352.6724                   22374351.1454
 -46525240.29548 -36222257.92446  20757311.8284                   20757308.1134
  -9730577.50947  -7567681.36845  22704643.3204                   22704644.1334
 11  8 20  1  2 30.0000000  0  8G17G10G04G12G05G30G02G25
 -61704636.20546 -48051185.14043  24083247.0864                   24083247.1174
 -38144605.71247 -29694772.07345  21265109.2894                   21265106.8204
 -48739301.02447 -37946156.03844  22948019.7274                   22948018.5044
 -32444513.44148 -25252619.84846  20761524.8054                   20761521.8634
 -28504407.59048 -22181742.74846  20747196.7194                   20747195.3524
 -10507406.75947  -8173757.07745  22348704.1094                   22348702.1884
 -46572686.45148 -36259228.95546  20748283.4224                   20748279.0164
  -9874260.30647  -7679641.97645  22677301.4304                   22677302.3484
 11  8 20  1  3  0.0000000  0  8G17G10G04G12G05G30G02G25
 -61704986.09246 -48051457.81843  24083180.7114                   24083179.9694
 -38160491.25247 -29707150.43346  21262085.9774                   21262084.0824
 -48724461.28146 -37934592.63744  22950843.1414                   22950842.1174
 -32529461.20548 -25318812.90246  20745359.3444                   20745357.0984
 -28626534.74648 -22276906.73846  20723956.7504                   20723954.9964
 -10641701.02747  -8278401.95345  22323148.5164                   22323147.0004
 -46619933.84848 -36296045.10746  20739292.3134                   20739288.6054
 -10017543.41247  -7791291.13145  22650036.0394                   22650036.1334
 11  8 20  1  3 30.0000000  0  8G17G10G04G12G05G30G02G25
 -61705143.22646 -48051580.29743  24083149.8834                   24083150.0634
 -38175821.13847 -29719095.79546  21259168.9694                   21259166.7034
 -48709613.33246 -37923022.84544  22953668.9304                   22953668.0474
 -32613833.40248 -25384557.47546  20729303.8754                   20729301.5594
 -28748146.57248 -22371669.16446  20700815.0314                   20700813.0704
 -10775504.78847  -8382664.62045  22297686.5784                   22297684.9884
 -46666987.23848 -36332710.08246  20730338.2664                   20730334.1294
 -10160428.07547  -7902629.82345  22622845.8444                   22622846.1884
 11  8 20  1  4  0.0000000  0  8G17G10G04G12G05G30G02G25
 -61705107.39546 -48051552.39343  24083157.9534                   24083157.3874
 -38190597.43048 -29730609.79046  21256357.1174                   21256355.2344
 -48694758.45747 -37911447.66044  22956495.9144                   22956494.6604
 -32697629.36648 -25449853.03046  20713358.2424                   20713355.5864
 -28869241.51448 -22466028.82847  20677771.6414                   20677769.9574
 -10908815.85047  -8486543.33445  22272318.0704                   22272316.6454
 -46713848.02448 -36369224.97946  20721421.2114                   20721416.8404
 -10302911.91747  -8013656.16945  22595732.0394                   22595732.4384
 11  8 20  1  4 30.0000000  0  8G17G10G04G12G05G30G02G25
 -61704880.36846 -48051375.48243  24083200.8914                   24083200.7464
 -38204824.31647 -29741695.68145  21253649.7814                   21253647.3594
 -48679899.65346 -37899869.43644  22959323.3134                   22959322.6174
 -32780850.05548 -25514700.32546  20697521.8054                   20697519.0044
 -28989819.37648 -22559985.57046  20654826.1484                   20654824.2034
 -11041633.79547  -8590037.85545  22247043.3754                   22247042.2194
 -46760519.28948 -36405592.19846  20712539.9924                   20712535.3364
 -10444994.29347  -8124369.70045  22568694.7584                   22568695.2814
 11  8 20  1  5  0.0000000  0  8G17G10G04G12G05G30G02G25
 -61704460.36346 -48051048.16743  24083280.9384                   24083280.4654
 -38218502.09647 -29752353.70845  21251047.0084                   21251044.8164
 -48665036.50547 -37888287.80944  22962151.4614                   22962150.3404
 -32863493.05248 -25579097.46046  20681795.6884                   20681792.9574
 -29109877.04648 -22653536.96246  20631979.5864                   20631978.3404
 -11173954.84147  -8693145.12945  22221863.4844                   22221863.1334
 -46807000.27648 -36441811.14146  20703694.5004                   20703690.5594
 -10586671.14247  -8234767.21345  22541733.9924                   22541734.6454
 11  8 20  1  5 30.0000000  0  8G17G10G04G12G05G30G02G25
 -61703853.43246 -48050575.34543  24083395.5394                   24083394.7704
 -38231638.25948 -29762589.66245  21248547.2584                   21248544.9734
 -48650175.72046 -37876708.04044  22964979.4304                   22964978.3714
 -32945563.02448 -25643048.08546  20666177.9384                   20666175.5434
 -29229418.44248 -22746686.07346  20609231.7664                   20609230.1054
 -11305782.34647  -8795867.82945  22196777.6254                   22196776.4264
 -46853297.76848 -36477887.10446  20694884.8834                   20694880.1644
 -10727945.52547  -8344851.14845  22514850.7974                   22514851.3914
 11  8 20  1  6  0.0000000  0  8G17G10G04G12G05G30G02G25
 -61703057.47946 -48049955.17343  24083546.8444                   24083547.5234
 -38244233.27947 -29772403.98145  21246150.7734                   21246149.0824
 -48635316.73046 -37865129.64344  22967806.3674                   22967806.3324
 -33027057.83448 -25706550.54446  20650670.0474                   20650667.8954
 -29348440.05148 -22839430.14346  20586582.8754                   20586581.2734
 -11437112.44547  -8898202.95745  22171786.4224                   22171785.4104
 -46899411.48848 -36513819.87646  20686109.2814                   20686105.4534
 -10868813.52747  -8454618.40245  22488044.4304                   22488044.5314
 11  8 20  1  6 30.0000000  0  8G17G10G04G12G05G30G02G25
 -61702068.79146 -48049184.77743  24083735.7114                   24083735.1024
 -38256285.63247 -29781795.41946  21243856.9844                   21243855.1174
 -48620457.10146 -37853550.78044  22970634.5234                   22970633.6564
 -33107973.20248 -25769601.48546  20635272.4534                   20635269.3444
 -29466936.76448 -22931765.20747  20564033.2504                   20564031.7894
 -11567939.36947  -9000145.99545  22146890.8204                   22146889.6764
 -46945338.77248 -36549607.36646  20677369.9534                   20677365.5664
 -11009269.03047  -8564064.21145  22461316.5084                   22461316.9184
 11  8 20  1  7  0.0000000  0  8G17G10G04G12G05G30G02G25
 -60125469.84646 -46820666.09443  24383752.3204                   24383752.6644
 -36692379.38547 -28563167.18445  21541458.4224                   21541456.0474
 -47030180.35046 -36614374.14744  23273254.9144                   23273254.0314
 -31612888.12948 -24604600.13846  20919777.4844                   20919775.1214
 -28009485.25848 -21796088.67946  20841377.2114                   20841375.8444
 -10122838.80147  -7874093.56845  22421884.3674                   22421883.0514
 -45415661.40948 -35357650.97046  20968457.5704                   20968453.7584
  -9573887.16547  -7445584.80445  22734460.7034                   22734461.1094
 11  8 20  1  7 30.0000000  0  8G17G10G04G12G05G30G02G25
 -60124104.38146 -46819602.14643  24384012.3524                   24384012.0784
 -36703362.07547 -28571725.13145  21539368.1414                   21539366.7034
 -47015331.35847 -36602803.51944  23276080.4534                   23276079.0044
 -31692651.30248 -24666753.27046  20904599.0864                   20904596.6484
 -28126936.33448 -21887608.94946  20819026.9694                   20819025.2974
 -10252661.89047  -7975254.35945  22397179.7734                   22397178.4064
 -45461228.15448 -35393157.53446  20959786.6804                   20959782.3754
  -9713519.48847  -7554389.19445  22707889.6414                   22707890.2734
 11  8 20  1  8  0.0000000  0  8G17G10G04G12G05G30G02G25
 -60122550.25446 -46818391.22244  24384308.6414                   24384308.3054
 -36713812.59247 -28579868.38345  21537379.8444                   21537377.5664
 -47000488.84847 -36591237.97244  23278904.3364                   23278903.8754
 -31771836.87648 -24728456.31146  20889530.7734                   20889528.3324
 -28243861.63048 -21978719.53446  20796777.1094                   20796775.3634
 -10381979.34547  -8076021.17145  22372572.1094                   22372570.1884
 -45506615.87648 -35428524.58546  20951149.4304                   20951145.5474
  -9852736.04347  -7662869.59445  22681397.8674                   22681397.9494
 11  8 20  1  8 30.0000000  0  8G17G10G04G12G05G30G02G25
 -60120806.85546 -46817032.74544  24384639.7584                   24384640.9064
 -36723732.40847 -28587598.11345  21535492.1254                   21535490.1604
 -46985653.12647 -36579677.68044  23281727.3204                   23281726.6294
 -31850443.88748 -24789708.54446  20874572.4384                   20874569.9304
 -28360259.10748 -22069418.82847  20774626.7344                   20774625.4734
 -10510788.43747  -8176391.85145  22348059.8914                   22348058.6334
 -45551824.79648 -35463752.32146  20942546.7194                   20942542.2154
  -9991533.90547  -7771023.74945  22654984.9774                   22654985.3794
 11  8 20  1  9  0.0000000  0  8G17G10G04G12G05G30G02G25
 -60118877.38146 -46815529.28044  24385007.9384                   24385007.6604
 -36733126.97847 -28594918.54645  21533704.1884                   21533702.6764
 -46970828.70647 -36568126.24244  23284548.7504                   23284548.0984
 -31928474.75748 -24850511.82746  20859723.4224                   20859720.7664
 -28476130.34148 -22159708.07046  20752577.7504                   20752575.8484
 -10639090.30447  -8276367.29345  22323645.0554                   22323643.3554
 -45596859.60948 -35498844.37846  20933977.1564                   20933972.4734
 -10129913.87847  -7878852.26645  22628652.3914                   22628652.7774
 11  8 20  1  9 30.0000000  0  8G17G10G04G12G05G30G02G25
 -60116761.06447 -46813880.22444  24385411.0084                   24385409.4844
 -36741998.06047 -28601831.09145  21532016.0084                   21532014.4844
 -46956016.02447 -36556583.93044  23287366.8444                   23287366.6294
 -32005928.07648 -24910865.07346  20844984.4384                   20844982.3634
 -28591473.02548 -22249585.44646  20730628.4774                   20730626.5904
 -10766882.28447  -8375945.42045  22299326.5164                   22299325.1524
 -45641720.50048 -35533800.90946  20925440.1954                   20925435.7814
 -10267872.98247  -7986352.82545  22602399.4064                   22602399.6644
 11  8 20  1 10  0.0000000  0  8G17G10G04G12G05G30G02G25
 -60114457.51647 -46812085.25944  24385848.5864                   24385848.5824
 -36750347.31147 -28608336.98645  21530427.5944                   21530425.5234
 -46941215.34446 -36545050.97044  23290183.9844                   23290183.5124
 -32082802.90648 -24970767.53646  20830355.5704                   20830353.4454
 -28706285.66148 -22339049.80947  20708780.4144                   20708778.5004
 -10894161.77947  -8475124.19945  22275106.8674                   22275105.1724
 -45686408.20248 -35568622.50346  20916936.1334                   20916932.0634
 -10405408.43847  -8093523.26745  22576226.9384                   22576227.6564
 11  8 20  1 10 30.0000000  0  9G17G10G29G04G12G05G30G02G25
 -60111966.47947 -46810144.21444  24386322.7034                   24386322.2934
 -36758177.05047 -28614438.07945  21528937.0704                   21528935.5634
   9241380.62156   7213331.25653  24693231.2274                   24693229.9774
 -46926427.64546 -36533528.11044  23292998.1174                   23292997.3874
 -32159098.99848 -25030219.03746  20815837.1484                   20815834.3914
 -28820566.07048 -22428099.44547  20687033.5004                   20687031.5004
 -11020926.69047  -8573902.01645  22250983.6954                   22250981.8204
 -45730923.74248 -35603309.93346  20908465.1954                   20908460.6994
 -10542517.80747  -8200361.68145  22550135.7664                   22550136.1804
 11  8 20  1 11  0.0000000  0  9G17G10G29G04G12G05G30G02G25
 -60109296.94047 -46808064.11544  24386830.3524                   24386830.5514
 -36765498.01647 -28620142.71445  21527544.7424                   21527542.4184
   9094586.25446   7098946.05543  24665297.1484                   24665296.2114
 -46911662.93346 -36522023.17444  23295808.0004                   23295807.3954
 -32234824.39147 -25089225.84846  20801426.9304                   20801424.7934
 -28934321.70548 -22516740.15747  20665386.4774                   20665384.3754
 -11147183.85247  -8672284.18445  22226957.8364                   22226956.4574
 -45775276.86347 -35637870.81446  20900024.9774                   20900020.5164
 -10679207.53247  -8306873.11545  22524125.1564                   22524125.5554
 11  8 20  1 11 30.0000000  0  9G17G10G29G04G12G05G30G02G25
 -60106449.66647 -46805845.43444  24387372.2734                   24387372.5164
 -36772313.47947 -28625453.45245  21526246.9304                   21526245.8324
   8947703.52846   6984492.09843  24637345.9694                   24637345.1764
 -46896922.87446 -36510537.48544  23298612.2734                   23298611.7274
 -32309979.44248 -25147788.22846  20787125.8054                   20787122.9884
 -29047552.27048 -22604971.73646  20643839.5234                   20643837.5554
 -11272931.80647  -8770269.58345  22203028.6804                   22203027.6454
 -45819469.65748 -35672306.76046  20891615.5634                   20891611.2814
 -10815476.05047  -8413056.33345  22498194.0554                   22498194.1294
 11  8 20  1 12  0.0000000  0  9G17G10G29G04G12G05G30G02G25
 -60103423.39646 -46803487.37443  24387948.2114                   24387947.7814
 -36778624.36347 -28630371.02845  21525046.2114                   21525044.8284
   8800734.31146   6869970.69843  24609377.6024                   24609378.5944
 -46882206.99146 -36499070.57444  23301412.8364                   23301412.4264
 -32384562.61948 -25205904.98446  20772933.0944                   20772930.2584
 -29160255.06048 -22692792.05447  20622392.6254                   20622391.1174
 -11398167.61347  -8867855.87245  22179197.1174                   22179194.9844
 -45863501.83148 -35706617.54646  20883236.3834                   20883232.0944
 -10951319.87047  -8518908.62145  22472343.8054                   22472343.8794
 11  8 20  1 12 30.0000000  0  9G17G10G29G04G12G05G30G02G25
 -60100212.99446 -46800985.80744  24388559.5084                   24388559.5944
 -36784427.89547 -28634893.23845  21523941.9614                   21523940.6954
   8653684.28346   6755386.35943  24581395.2424                   24581395.8954
 -46867511.40246 -36487619.49244  23304209.3594                   23304208.6884
 -32458567.99348 -25263571.51046  20758850.1024                   20758847.5664
 -29272423.28348 -22780195.83346  20601047.9224                   20601045.3444
 -11522883.93847  -8965037.42045  22155464.8674                   22155462.8244
 -45907369.36748 -35740800.03946  20874888.8054                   20874884.2154
 -11086731.43047  -8624424.09545  22446576.0634                   22446576.1214
 11  8 20  1 13  0.0000000  0  9G17G10G29G04G12G05G30G02G25
 -60096819.43746 -46798341.49144  24389204.5784                   24389205.5594
 -36789727.17447 -28639022.54245  21522933.6564                   21522932.0474
   8506553.32146   6640738.90943  24553397.5704                   24553397.2774
 -46852837.70746 -36476185.44444  23307001.8364                   23307000.8134
 -32531996.15947 -25320788.26446  20744877.2504                   20744874.6024
 -29384056.77048 -22867182.93146  20579804.5554                   20579802.8134
 -11647079.70147  -9061813.31345  22131830.7344                   22131829.6294
 -45951074.05847 -35774855.63746  20866571.7114                   20866567.8324
 -11221709.35947  -8729601.65445  22420890.2814                   22420890.7814
 11  8 20  1 13 30.0000000  0  9G17G10G29G04G12G05G30G02G25
 -60093241.64246 -46795553.65743  24389885.6024                   24389886.1484
 -36794523.37947 -28642759.83345  21522021.2344                   21522018.8714
   8359343.10446   6526029.74443  24525384.4144                   24525383.9024
 -46838185.93346 -36464768.50044  23309790.0554                   23309789.7344
 -32604845.49747 -25377553.98346  20731014.6954                   20731012.1414
 -29495152.79848 -22953751.23446  20558663.9614                   20558661.8914
 -11770751.89047  -9158181.22545  22108297.2194                   22108295.0204
 -45994615.92847 -35808784.36246  20858286.4694                   20858282.1994
 -11356250.21847  -8834438.64945  22395287.7974                   22395288.3874
 11  8 20  1 14  0.0000000  0  9G17G10G29G04G12G05G30G02G25
 -60089480.18546 -46792622.72243  24390602.3054                   24390601.4574
 -36798819.44947 -28646107.41245  21521203.1884                   21521201.3984
   8212053.42246   6411258.62644  24497355.9064                   24497355.7544
 -46823557.44946 -36453369.66844  23312573.9534                   23312572.6484
 -32677116.65648 -25433869.17846  20717261.3444                   20717259.1454
 -29605710.53248 -23039900.07347  20537625.3444                   20537623.5474
 -11893899.12847  -9254140.10045  22084862.8594                   22084861.1884
 -46037996.60947 -35842587.48446  20850031.0784                   20850026.7854
 -11490352.30647  -8938933.75145  22369769.0784                   22369769.5314
 11  8 20  1 14 30.0000000  0  9G17G10G29G04G12G05G30G02G25
 -60085534.34446 -46789548.07843  24391353.3594                   24391352.7584
 -36802616.89947 -28649066.44845  21520480.9534                   21520478.7234
   8064685.76146   6296426.75944  24469313.3594                   24469313.0784
 -46808952.24646 -36441988.97443  23315352.9304                   23315351.6804
 -32748807.80848 -25489732.41646  20703618.8054                   20703616.8164
 -29715727.95648 -23125627.91346  20516689.5554                   20516687.7854
 -12016518.64147  -9349687.76845  22061528.8834                   22061527.1484
 -46081216.04247 -35876264.95746  20841806.6094                   20841802.6174
 -11624012.51947  -9043084.52845  22344334.2274                   22344334.7704
 11  8 20  1 15  0.0000000  0  9G17G10G29G04G12G05G30G02G25
 -60081404.91146 -46786330.34743  24392137.4534                   24392137.8754
 -36805919.25847 -28651639.71345  21519852.4384                   21519850.5554
   7917239.62947   6181533.73844  24441254.0234                   24441255.3914
 -46794372.51947 -36430628.13844  23318126.7424                   23318126.9574
 -32819920.61348 -25545144.98646  20690087.0314                   20690084.4734
 -29825204.90148 -23210934.58247  20495856.5314                   20495855.1764
 -12138609.65647  -9444823.61145  22038295.7814                   22038294.1134
 -46124276.61548 -35909818.64246  20833612.6334                   20833608.3244
 -11757229.71747  -9146890.11545  22318983.8284                   22318984.3674
 11  8 20  1 15 30.0000000  0  9G17G10G29G04G12G05G30G02G25
 -60077089.89946 -46782968.05943  24392958.9304                   24392959.5904
 -36808726.50347 -28653827.15945  21519318.1644                   21519315.8164
   7769718.29747   6066582.15044  24413182.3284                   24413182.4734
 -46779816.30947 -36419285.70344  23320897.1254                   23320897.3524
 -32890451.65148 -25600104.23146  20676665.2664                   20676662.5864
 -29934137.19148 -23295816.85747  20475127.7274                   20475125.8914
 -12260167.66947  -9539544.13345  22015163.6094                   22015162.3674
 -46167176.58248 -35943247.18046  20825449.1254                   20825444.8834
 -11889999.03247  -9250346.70545  22293718.7974                   22293719.4184
 11  8 20  1 16  0.0000000  0  9G17G10G29G04G12G05G30G02G25
 -60072591.65046 -46779462.92043  24393815.7664                   24393815.7854
 -36811043.25147 -28655632.41845  21518877.6334                   21518875.9144
   7622119.77147   5951570.34744  24385095.1334                   24385094.6764
 -46765287.20847 -36407964.26444  23323662.2034                   23323661.5314
 -32960403.30148 -25654612.01446  20663354.0784                   20663351.6684
 -30042526.44148 -23380275.98247  20454501.8134                   20454500.0984
 -12381193.26747  -9633849.78745  21992133.7664                   21992132.0514
 -46209919.66448 -35976553.47846  20817315.5474                   20817310.8954
 -12022320.76347  -9353454.53845  22268538.8914                   22268539.1054
 11  8 20  1 16 30.0000000  0  9G17G10G29G04G12G05G30G02G25
 -60067907.74246 -46775813.11742  24394706.0864                   24394706.2274
 -36812869.46347 -28657055.44545  21518530.0474                   21518527.8244
   7474447.26047   5836500.86444  24356994.6804                   24356994.0704
 -46750783.58947 -36396662.79744  23326421.9304                   23326421.4344
 -33029772.65648 -25708666.05646  20650153.4304                   20650151.0274
 -30150368.70048 -23464308.88447  20433979.9534                   20433978.2304
 -12501682.28447  -9727737.32745  21969204.8674                   21969203.7814
 -46252504.30248 -36009736.29846  20809211.4614                   20809207.8834
 -12154190.17147  -9456209.89745  22243444.6724                   22243445.1684
 11  8 20  1 17  0.0000000  0  8G10G29G04G12G05G30G02G25
 -36814208.45547 -28658098.80645  21518275.2894                   21518272.8094
   7326700.54047   5721373.63644  24328878.9384                   24328878.0554
 -46736306.96747 -36385382.35743  23329176.8134                   23329176.0594
 -33098560.57848 -25762267.03646  20637063.5784                   20637060.7934
 -30257663.81848 -23547915.42147  20413562.5554                   20413560.2894
 -12621633.60447  -9821205.89045  21946379.0554                   21946377.0204
 -46294932.41148 -36042797.14846  20801137.7814                   20801133.3714
 -12285605.85447  -9558611.71345  22218437.2814                   22218437.4064
 11  8 20  1 17 30.0000000  0  8G10G29G04G12G05G30G02G25
 -36815064.29447 -28658765.70945  21518111.9924                   21518110.4304
   7178878.73847   5606187.82244  24300749.3134                   24300748.7114
 -46721860.13846 -36374125.05344  23331926.1174                   23331925.1294
 -33166768.52148 -25815416.07646  20624084.0394                   20624081.3054
 -30364412.18448 -23631095.93547  20393249.1094                   20393246.5704
 -12741047.14747  -9914255.41145  21923655.4924                   21923654.3444
 -46337206.46748 -36075737.97346  20793093.3834                   20793088.9924
 -12416567.42147  -9660659.68745  22193516.0314                   22193516.5314
 11  8 20  1 18  0.0000000  0  8G10G29G04G12G05G30G02G25
 -36815432.35047 -28659052.49245  21518041.9224                   21518039.8364
   7030989.89546   5490949.79044  24272606.4694                   24272606.2854
 -46707436.19446 -36362885.62744  23334671.3754                   23334670.4344
 -33234388.77148 -25868107.18346  20611216.1954                   20611213.8634
 -30470605.19948 -23713843.70347  20373040.9384                   20373039.1374
 -12859913.65147 -10006878.65645  21901036.2584                   21901034.6094
 -46379319.98848 -36108553.69646  20785079.2974                   20785075.2384
 -12547065.05447  -9762346.16045  22168683.3834                   22168683.7304
 11  8 20  1 18 30.0000000  0  8G10G29G04G12G05G30G02G25
 -35239887.81247 -27431355.45645  21817858.5004                   21817856.5634
   8458466.53946   6603269.27644  24544246.6174                   24544245.9774
 -45117609.57046 -35124059.68244  23637205.0394                   23637203.4884
 -31725991.93448 -24692733.02046  20898254.8914                   20898252.4494
 -29000811.12448 -22568549.58247  20652733.4454                   20652731.6644
 -11402800.40647  -8871465.73545  22178315.8284                   22178314.0434
 -44845845.80348 -34913638.73246  21076889.6644                   21076885.5864
 -11101665.31447  -8636060.63445  22443733.6254                   22443734.1254
 11  8 20  1 19  0.0000000  0  8G10G29G04G12G05G30G02G25
 -35239282.59447 -27430883.86345  21817973.1804                   21817971.3634
   8310450.24746   6487931.96643  24516079.2424                   24516079.9384
 -45103229.61646 -35112854.50843  23639941.2424                   23639940.3324
 -31792432.05548 -24744504.53546  20885611.4454                   20885608.8754
 -29105885.08048 -22650425.36147  20632738.5084                   20632736.5944
 -11520563.15047  -8963228.90845  22155905.7664                   22155904.3794
 -44887637.13348 -34946203.39446  21068937.2504                   21068933.0394
 -11231224.29048  -8737015.66745  22419079.2424                   22419079.8014
 11  8 20  1 19 30.0000000  0  8G10G29G04G12G05G30G02G25
 -35238201.04647 -27430041.12045  21818179.5554                   21818177.8134
   8162364.47146   6372540.49743  24487899.7274                   24487900.2154
 -45088879.51947 -35101672.62344  23642671.8754                   23642671.3094
 -31858288.36448 -24795821.14046  20873079.5164                   20873077.0354
 -29210405.08448 -22731869.48047  20612848.9384                   20612847.3634
 -11637777.91147  -9054565.07845  22133600.5474                   22133599.0084
 -44929275.18048 -34978648.62746  21061013.9534                   21061010.1054
 -11360317.26247  -8837607.60345  22394513.9304                   22394514.2464
 11  8 20  1 20  0.0000000  0  8G10G29G04G12G05G30G02G25
 -35236647.38847 -27428830.47045  21818474.8594                   21818473.0204
   8014208.24946   6257094.13643  24459707.1024                   24459706.9224
 -45074561.72746 -35090515.92944  23645396.8594                   23645395.8134
 -31923562.69848 -24846684.26446  20860658.3444                   20860655.7664
 -29314371.60148 -22812882.31447  20593064.8054                   20593063.0634
 -11754444.86847  -9145474.40145  22111399.4144                   22111398.2074
 -44970762.77648 -35010976.61346  21053118.8524                   21053115.0204
 -11488943.92147  -8937836.17045  22370037.0164                   22370037.3834
 11  8 20  1 20 30.0000000  0  8G10G29G04G12G05G30G02G25
 -35234624.42347 -27427254.16245  21818859.4064                   21818858.1254
   7865982.07646   6141593.34243  24431499.8444                   24431499.5634
 -45060277.28147 -35079385.23744  23648115.3674                   23648113.9224
 -31988255.64148 -24897094.33046  20848347.8134                   20848344.8484
 -29417783.83848 -22893463.23747  20573386.4144                   20573384.2194
 -11870562.60147  -9235955.74145  22089303.4144                   22089301.2464
 -45012101.27648 -35043188.43246  21045252.4064                   21045248.4344
 -11617102.35947  -9037699.90045  22345648.8984                   22345649.3554
 11  8 20  1 21  0.0000000  0  8G10G29G04G12G05G30G02G25
 -35232138.53647 -27425317.10745  21819332.7664                   21819331.4454
   7717682.97746   6026035.57343  24403280.6094                   24403279.5474
 -45046030.85947 -35068284.15044  23650826.0004                   23650824.7114
 -32052370.75148 -24947054.15146  20836147.0634                   20836144.4024
 -29520644.20848 -22973614.14847  20553812.4694                   20553810.4024
 -11986133.27847  -9326010.81445  22067310.6954                   22067309.2194
 -45053295.53148 -35075287.83346  21037413.4694                   21037408.9064
 -11744794.29048  -9137200.09645  22321350.5474                   22321350.8634
 11  8 20  1 21 30.0000000  0  8G10G29G04G12G05G30G02G25
 -35229193.82547 -27423022.52345  21819892.8674                   21819891.8014
   7569309.91346   5910420.33343  24375045.3444                   24375044.7234
 -45031824.87047 -35057214.57943  23653528.9064                   23653528.6094
 -32115909.45348 -24996564.82646  20824055.7504                   20824053.1844
 -29622953.61047 -23053335.71247  20534343.4144                   20534341.5634
 -12101156.72947  -9415639.44845  22045422.6174                   22045421.2854
 -45094347.78247 -35107276.60846  21029601.2274                   21029597.2894
 -11872019.22847  -9236336.41245  22297140.3284                   22297140.0274
 11  8 20  1 22  0.0000000  0  8G10G29G04G12G05G30G02G25
 -35225793.17647 -27420372.68345  21820540.0314                   21820538.8444
   7420863.21446   5794747.68743  24346796.6564                   24346796.0274
 -45017660.42447 -35046177.35944  23656224.3054                   23656223.8164
 -32178872.37548 -25045626.84346  20812074.5314                   20812071.5354
 -29724711.42448 -23132627.48247  20514979.8284                   20514977.5824
 -12215631.88447  -9504840.86445  22023639.0084                   22023637.5164
 -45135259.41647 -35139155.79146  21021816.1564                   21021812.3164
 -11998775.53247  -9335107.54246  22273018.9144                   22273019.4384
 11  8 20  1 22 30.0000000  0  8G10G29G04G12G05G30G02G25
 -35221937.54947 -27417368.28845  21821273.9774                   21821272.2814
   7272345.53546   5679019.70243  24318535.0234                   24318534.2504
 -45003536.54247 -35035171.76344  23658912.4454                   23658911.1884
 -32241258.13748 -25094239.12046  20800202.7974                   20800200.0554
 -29825914.88548 -23211487.28247  20495721.3284                   20495719.4454
 -12329555.41747  -9593612.44145  22001959.6724                   22001957.9534
 -45176029.84448 -35170924.96246  21014058.1174                   21014053.7344
 -12125059.44547  -9433510.57645  22248988.6334                   22248988.4384
 11  8 20  1 23  0.0000000  0  8G10G29G04G12G05G30G02G25
 -35217633.09547 -27414014.18845  21822092.8054                   21822091.6094
   7123754.04846   5563234.14443  24290259.1094                   24290257.7624
 -44989457.52046 -35024201.15044  23661591.5634                   23661590.5594
 -32303070.18948 -25142404.35746  20788440.1564                   20788437.6764
 -29926566.41948 -23289917.01447  20476567.8754                   20476565.3244
 -12442929.31747  -9681955.73045  21980385.3914                   21980383.7974
 -45216663.69148 -35202587.70446  21006325.4304                   21006321.5514
 -12250872.49547  -9531546.69846  22225046.9384                   22225047.1994
 11  8 20  1 23 30.0000000  0  8G10G29G04G12G05G30G02G25
 -35212880.72447 -27410311.05845  21822997.5234                   21822995.4494
   6975091.02247   5447392.92343  24261968.9614                   24261968.1604
 -44975422.45747 -35013264.76544  23664262.4844                   23664261.7424
 -32364307.16748 -25190121.48446  20776787.1954                   20776784.7734
 -30026664.42748 -23367915.42647  20457519.9224                   20457517.7894
 -12555750.48848  -9769868.32745  21958916.3444                   21958914.5784
 -45257160.13048 -35234143.37146  20998619.3754                   20998615.2894
 -12376211.08748  -9629213.13246  22201195.5394                   22201196.1024
 11  8 20  1 24  0.0000000  0  8G10G29G04G12G05G30G02G25
 -35207683.38948 -27406261.18245  21823986.2194                   21823985.2814
   6826356.81647   5331496.20344  24233665.8754                   24233664.8914
 -44961432.05847 -35002363.15644  23666924.4454                   23666924.5204
 -32424968.97348 -25237390.41246  20765243.5704                   20765241.4184
 -30126207.40347 -23445481.34447  20438577.5634                   20438575.6134
 -12668017.28348  -9857348.93045  21937552.5944                   21937551.4574
 -45297520.01247 -35265592.64346  20990939.3674                   20990935.2584
 -12501073.13448  -9726508.20646  22177435.1174                   22177435.7114
 11  8 20  1 24 30.0000000  0  8G10G29G04G12G05G30G02G25
 -35202043.70848 -27401866.63145  21825059.7424                   21825057.7814
   6677552.91946   5215545.12944  24205350.3054                   24205348.7424
 -44947487.23047 -34991497.11943  23669577.8754                   23669578.0354
 -32485056.08848 -25284211.54946  20753809.3364                   20753806.7504
 -30225194.88148 -23522614.40847  20419740.7114                   20419738.6914
 -12779728.62248  -9944396.74245  21916294.6724                   21916292.7544
 -45337744.52148 -35296936.42046  20983284.8284                   20983280.9224
 -12625456.94248  -9823430.65046  22153765.8754                   22153766.0434
 11  8 20  1 25  0.0000000  0  8G10G29G04G12G05G30G02G25
 -35195962.98347 -27397128.40145  21826216.9924                   21826215.2344
   6528680.62347   5099540.84844  24177019.9694                   24177019.1454
 -44933587.74247 -34980666.37743  23672222.7274                   23672222.8554
 -32544567.86348 -25330584.36546  20742484.6094                   20742482.0234
 -30323625.00848 -23599313.18547  20401010.2584                   20401008.0434
 -12890881.86948 -10031009.64345  21895142.9844                   21895141.3524
 -45377833.55848 -35328174.63846  20975655.9304                   20975651.9534
 -12749359.47348  -9919978.04446  22130188.1024                   22130188.6914
 11  8 20  1 25 30.0000000  0  8G10G29G04G12G05G30G02G25
 -35189444.98147 -27392049.45945  21827457.6254                   21827455.2704
   6379739.90246   4983483.14744  24148677.2734                   24148676.7344
 -44919734.99447 -34969872.03543  23674859.5554                   23674859.4614
 -32603505.55448 -25376509.84046  20731269.2814                   20731266.6884
 -30421497.66348 -23675577.55247  20382385.4844                   20382383.2664
 -13001476.49448 -10117187.27745  21874097.6804                   21874095.6134
 -45417788.97948 -35359308.74946  20968052.9224                   20968048.5084
 -12872779.69648 -10016149.62846  22106701.6884                   22106702.0394
 11  8 20  1 26  0.0000000  0  8G10G29G04G12G05G30G02G25
 -35182492.19447 -27386631.71345  21828779.9844                   21828778.0314
   6230731.81746   4867373.02344  24120321.9844                   24120321.1914
 -44905929.74447 -34959114.71143  23677486.5314                   23677485.7194
 -32661868.89048 -25421987.76446  20720163.0474                   20720160.4454
 -30518812.13248 -23751406.97247  20363867.2504                   20363865.1844
 -13111510.88148 -10202928.37045  21853158.8054                   21853156.9734
 -45457611.44548 -35390339.25046  20960474.9694                   20960470.6644
 -12995715.45248 -10111943.70446  22083307.8674                   22083308.0044
 11  8 20  1 26 30.0000000  0  8G10G29G04G12G05G30G02G25
 -35175106.39047 -27380876.58245  21830185.9844                   21830184.5124
   6081657.98447   4751211.67144  24091954.2504                   24091953.5004
 -44892171.69346 -34948394.12343  23680105.0704                   23680104.2274
 -32719657.32348 -25467017.71946  20709166.5004                   20709163.9304
 -30615566.79948 -23826800.19347  20345455.5474                   20345453.4064
 -13220982.90448 -10288231.23245  21832326.8054                   21832324.8364
 -45497301.18948 -35421266.33246  20952922.1954                   20952918.0864
 -13118164.16448 -10207358.26646  22060006.7894                   22060006.9454
 11  8 20  1 27  0.0000000  0  8G10G29G04G12G05G30G02G25
 -35167291.52747 -27374787.06145  21831673.4614                   21831671.2624
   5932518.05046   4634998.76244  24063573.4224                   24063572.6844
 -44878462.51046 -34937711.68443  23682713.1414                   23682712.6414
 -32776872.66248 -25511601.10246  20698278.6804                   20698275.9184
 -30711762.17648 -23901757.60847  20327150.1484                   20327147.8444
 -13329892.18548 -10373095.61345  21811602.2344                   21811600.6724
 -45536859.91348 -35452091.31246  20945394.4534                   20945390.0234
 -13240124.83948 -10302392.55646  22036798.4144                   22036798.3524
 11  8 20  1 27 30.0000000  0  8G10G29G04G12G05G30G02G25
 -35159049.43247 -27368364.69345  21833241.5394                   21833239.6454
   5783313.85746   4518735.76844  24035181.3054                   24035180.6174
 -44864802.09546 -34927067.21843  23685313.0634                   23685312.3164
 -32833514.42448 -25555737.55146  20687500.2894                   20687497.7424
 -30807396.47548 -23976277.80847  20308951.3284                   20308948.9224
 -13438236.47948 -10457519.75045  21790985.0864                   21790983.4264
 -45576287.67548 -35482814.25146  20937891.4534                   20937887.5824
 -13361594.77348 -10397044.43346  22013683.0944                   22013683.7704
 11  8 20  1 28  0.0000000  0  8G10G29G04G12G05G30G02G25
 -35150386.27747 -27361614.19345  21834890.1414                   21834887.9804
   5634042.36646   4402420.38544  24006775.5004                   24006775.4144
 -44851195.15647 -34916464.41344  23687902.6954                   23687901.4574
 -32889586.46748 -25599430.05546  20676830.0164                   20676827.6764
 -30902472.60148 -24050363.07847  20290858.9384                   20290856.4844
 -13546018.21948 -10541505.51945  21770474.4534                   21770472.6684
 -45615589.41548 -35513438.99446  20930412.5944                   20930408.1134
 -13482575.83648 -10491315.38346  21990661.1644                   21990662.0124
 11  8 20  1 28 30.0000000  0  8G10G29G04G12G05G30G02G25
 -35141303.71447 -27354536.89345  21836618.3914                   21836616.6134
   5484705.73946   4286054.18944  23978357.7734                   23978357.4694
 -44837640.52147 -34905902.39344  23690481.5314                   23690480.5314
 -32945088.01148 -25642678.00746  20666268.4384                   20666265.8874
 -30996989.38348 -24124012.49347  20272873.3364                   20272871.0904
 -13653234.92847 -10625051.00745  21750072.0634                   21750070.2464
 -45654764.54448 -35543965.07646  20922957.7504                   20922953.5704
 -13603065.03348 -10585203.05946  21967733.1094                   21967733.1334
 11  8 20  1 29  0.0000000  0  8G10G29G04G12G05G30G02G25
 -35131802.49447 -27347133.38245  21838426.2664                   21838424.8014
   5335306.62346   4169639.35144  23949927.0944                   23949927.9344
 -44824137.37247 -34895380.46343  23693050.9304                   23693049.6024
 -33000017.52548 -25685480.24046  20655815.5554                   20655813.5164
 -31090944.09248 -24197223.93647  20254993.9844                   20254991.5824
 -13759883.43247 -10708153.73445  21729777.2734                   21729775.8244
 -45693812.10048 -35574391.75346  20915527.4224                   20915523.0274
 -13723058.58248 -10678704.51546  21944898.9304                   21944899.0824
 11  8 20  1 29 30.0000000  0  8G10G29G04G12G05G30G02G25
 -35121883.22647 -27339404.09845  21840313.7894                   21840312.3754
   5185848.25246   4053178.32544  23921486.9924                   23921486.0084
 -44810684.13047 -34884897.47043  23695611.2894                   23695610.5354
 -33054373.46848 -25727835.52646  20645471.9224                   20645469.5124
 -31184333.81248 -24269995.12947  20237222.7584                   20237220.5234
 -13865960.35648 -10790811.05945  21709591.3834                   21709589.9144
 -45732731.09148 -35604718.24746  20908121.3914                   20908117.1524
 -13842552.62448 -10771816.74546  21922159.6884                   21922160.2194
 11  8 20  1 30  0.0000000  0  8G10G29G04G12G05G30G02G25
 -35111551.68947 -27331353.57245  21842280.2114                   21842277.9414
   5036328.40046   3936669.42144  23893034.0704                   23893033.1294
 -44797284.35846 -34874456.06443  23698161.4224                   23698160.5274
 -33108159.45148 -25769746.68146  20635237.1024                   20635234.7504
 -31277161.05348 -24342328.03247  20219558.0084                   20219555.8364
 -13971467.54647 -10873024.45845  21689514.0864                   21689512.3674
 -45771524.84248 -35634947.15546  20900739.2664                   20900735.0514
 -13961548.37048 -10864540.69546  21899515.7344                   21899516.0314
 11  8 20  1 30 30.0000000  0  8G10G29G04G12G05G30G02G25
 -33525390.86247 -26095384.12045  22144116.3754                   22144114.3554
   6462172.72146   5047716.95944  24164363.8054                   24164362.4264
 -43208519.21947 -33636457.28543  24000493.9144                   24000491.9574
 -31585954.59548 -24583613.03346  20924902.9304                   20924900.3984
 -29794002.17948 -23186619.79047  20501793.7194                   20501791.4614
 -12500980.43647  -9727190.33045  21969338.6094                   21969337.8754
 -44234773.69048 -34437478.71546  21193172.7894                   21193169.0664
 -12504620.22348  -9729272.00446  22176759.9064                   22176760.5354
 11  8 20  1 31  0.0000000  0  8G10G29G04G12G05G30G02G25
 -33514244.89847 -26086698.96745  22146237.6414                   22146235.5004
   6312530.17846   4931112.41844  24135887.6484                   24135886.9574
 -43195230.60646 -33626102.58643  24003022.0164                   24003021.0594
 -31638604.75848 -24624639.14846  20914883.8674                   20914881.3134
 -29885705.44648 -23258076.86347  20484343.2274                   20484340.9734
 -12605346.84848  -9808514.79245  21949478.1334                   21949476.6644
 -44273323.13547 -34467517.25146  21185837.1884                   21185833.3834
 -12622616.39948  -9821217.05546  22154305.9694                   22154305.5594
 11  8 20  1 31 30.0000000  0  8G10G29G04G12G05G30G02G25
 -33502695.08547 -26077699.13745  22148435.0634                   22148433.1414
   6162828.51046   4814461.80144  24107400.1564                   24107399.6254
 -43181997.58647 -33615791.21843  24005539.6954                   24005538.5634
 -31690686.26248 -24665222.13546  20904973.3674                   20904970.4614
 -29976845.08548 -23329094.74347  20466999.8364                   20466997.9304
 -12709140.22547  -9889392.72845  21929726.8834                   21929725.7304
 -44311750.13048 -34497460.36146  21178525.1024                   21178521.0744
 -12740109.26048  -9912769.92046  22131947.7664                   22131948.0164
 11  8 20  1 32  0.0000000  0  8G10G29G04G12G05G30G02G25
 -33490743.39247 -26068386.14745  22150709.3914                   22150707.4534
   6013070.02247   4697766.91844  24078902.0164                   24078901.6134
 -43168819.56846 -33605522.65643  24008047.5084                   24008046.8954
 -31742199.26648 -24705362.14846  20895170.5704                   20895168.5204
 -30067419.49648 -23399672.18447  20449763.8674                   20449761.7464
 -12812358.38947  -9969822.44745  21910085.4144                   21910083.8284
 -44350054.68948 -34527308.07946  21171236.3594                   21171232.1334
 -12857096.06048 -10003928.43446  22109685.9924                   22109686.4184
 11  8 20  1 32 30.0000000  0  8G10G29G04G12G05G30G02G25
 -33478391.95247 -26058761.67645  22153059.8834                   22153057.9494
   5863256.18047   4581028.89944  24050393.5004                   24050392.4534
 -43155696.65546 -33595297.02443  24010544.8914                   24010544.5004
 -31793143.62448 -24745059.05246  20885476.3914                   20885473.9304
 -30157427.41648 -23469808.20347  20432636.0784                   20432634.0394
 -12914999.63747 -10049802.61645  21890552.9224                   21890551.4534
 -44388237.20648 -34557060.68246  21163970.2344                   21163965.9454
 -12973574.48048 -10094690.82846  22087520.9694                   22087521.1764
 11  8 20  1 33  0.0000000  0  8G10G29G04G12G05G30G02G25
 -33465646.14447 -26048829.89345  22155485.6174                   22155482.9144
   5713384.95046   4464246.11944  24021874.6254                   24021872.6414
 -43142632.19947 -33585116.99043  24013031.3364                   24013030.4654
 -31843522.93748 -24784315.67346  20875889.2114                   20875887.1174
 -30246871.73848 -23539505.05947  20415615.6484                   20415613.4384
 -13017065.76347 -10129334.63145  21871130.3594                   21871129.1484
 -44426301.35748 -34586721.05746  21156726.5164                   21156722.1914
 -13089545.76348 -10185058.04746  22065452.4694                   22065452.7074
 11  8 20  1 33 30.0000000  0  8G10G29G04G12G05G30G02G25
 -33452508.57147 -26038592.82345  22157986.0234                   22157983.4694
   5563457.05646   4347419.25244  23993343.7734                   23993342.6054
 -43129626.71046 -33574982.81843  24015506.6484                   24015505.0044
 -31893337.67648 -24823132.35146  20866410.2974                   20866407.6484
 -30335751.96648 -23608762.35447  20398702.0784                   20398699.9804
 -13118555.63147 -10208417.62245  21851817.9774                   21851816.4064
 -44464247.90548 -34616289.79246  21149505.7504                   21149501.7274
 -13205008.14648 -10275028.70446  22043480.3984                   22043480.8484
 11  8 20  1 34  0.0000000  0  8G10G29G04G12G05G30G02G25
 -33438979.96647 -26028051.06945  22160560.0314                   22160558.2584
   5413476.20547   4230551.08244  23964803.0234                   23964802.1724
 -43116678.60546 -33564893.39243  24017969.1484                   24017968.8284
 -31942586.38748 -24861507.97546  20857038.3754                   20857036.2234
 -30424065.33248 -23677577.93747  20381896.9224                   20381894.5434
 -13219466.15947 -10287049.17945  21832615.3834                   21832613.8484
 -44502075.58848 -34645765.90046  21142307.2424                   21142303.3244
 -13319957.87548 -10364599.89046  22021606.2584                   22021606.3164
 11  8 20  1 34 30.0000000  0  8G10G29G04G12G05G30G02G25
 -33425063.71747 -26017207.24745  22163208.4384                   22163206.1914
   5263442.76747   4113641.94644  23936252.4144                   23936251.8834
 -43103788.54946 -33554849.23943  24020423.1724                   24020422.4144
 -31991270.26148 -24899443.46946  20847774.4454                   20847771.9614
 -30511812.07148 -23745951.99147  20365198.8284                   20365196.5394
 -13319796.49947 -10365228.63145  21813522.6174                   21813521.7774
 -44539785.18748 -34675150.00446  21135131.5314                   21135127.3054
 -13434393.53948 -10453770.50346  21999829.7814                   21999830.5514
 11  8 20  1 35  0.0000000  0  8G10G29G04G12G05G30G02G25
 -33410766.01247 -26006066.18445  22165928.6644                   22165926.9924
   5113354.22647   3996689.85844  23907691.9064                   23907691.1094
 -43090960.78646 -33544853.59043  24022863.3524                   24022864.2274
 -32039393.57948 -24936942.16746  20838616.5084                   20838614.1254
 -30598995.38448 -23813887.01247  20348608.5704                   20348606.4534
 -13419549.28547 -10442958.04545  21794540.6174                   21794539.2034
 -44577381.50048 -34704445.83246  21127977.1954                   21127972.5784
 -13548317.16248 -10542542.11546  21978150.7504                   21978150.4224
 11  8 20  1 35 30.0000000  0  8G10G29G04G12G05G30G02G25
 -33396088.34447 -25994629.04945  22168721.9614                   22168720.2734
   4963212.73647   3879696.48744  23879120.5474                   23879120.1684
 -43078194.44346 -33534905.83343  24025292.8984                   24025292.7384
 -32086955.57248 -24974003.46546  20829565.5314                   20829563.4414
 -30685613.47148 -23881381.59847  20332125.8364                   20332123.5904
 -13518722.22247 -10520235.62045  21775668.8054                   21775667.3014
 -44614863.76048 -34733652.78146  21120844.3284                   21120839.6454
 -13661725.77748 -10630912.42846  21956570.1254                   21956570.0594
 11  8 20  1 36  0.0000000  0  8G10G29G04G12G05G30G02G25
 -33381033.47947 -25982898.00945  22171586.8594                   22171585.7894
   4813019.19247   3762662.58044  23850539.8204                   23850539.6054
 -43065489.92646 -33525006.24343  24027711.5004                   24027710.2074
 -32133957.35048 -25010628.23446  20820621.2894                   20820619.3794
 -30771666.21448 -23948435.65447  20315751.0004                   20315747.8984
 -13617314.41447 -10597060.67245  21756907.5164                   21756905.6564
 -44652232.71747 -34762771.44246  21113733.1484                   21113728.7544
 -13774617.80248 -10718880.20046  21935087.3054                   21935087.4064
 11  8 20  1 36 30.0000000  0  8G10G29G04G12G05G30G02G25
 -33365606.44747 -25970876.98445  22174522.5704                   22174520.3674
   4662772.72847   3645587.43644  23821949.2114                   23821948.5634
 -43052850.21246 -33515157.19843  24030115.6484                   24030115.8874
 -32180401.49348 -25046818.47846  20811783.6334                   20811781.3984
 -30857155.72348 -24015050.82947  20299482.1414                   20299479.5514
 -13715327.24447 -10673434.28545  21738255.8284                   21738254.4734
 -44689491.59748 -34791804.34346  21106643.1884                   21106638.8794
 -13886994.06848 -10806446.09346  21913702.7664                   21913703.2584
 11  8 20  1 37  0.0000000  0  8G10G29G04G12G05G30G02G25
 -33349806.07547 -25958565.02845  22177528.9384                   22177527.4024
   4512478.27747   3528474.90244  23793348.5784                   23793347.5824
 -43040271.77346 -33505355.84543  24032510.1334                   24032510.1844
 -32226285.69248 -25082572.41846  20803052.1884                   20803049.9304
 -30942077.90248 -24081223.91947  20283322.1094                   20283319.7464
 -13812755.98247 -10749352.76445  21719715.8204                   21719714.0124
 -44726636.90948 -34820748.74346  21099574.9224                   21099570.5514
 -13998849.13248 -10893605.86346  21892417.7194                   21892417.7814
 11  8 20  1 37 30.0000000  0  8G10G29G04G12G05G30G02G25
 -33333636.60347 -25945965.45945  22180606.0704                   22180604.5554
   4362135.51047   3411324.75444  23764739.8444                   23764738.8714
 -43027756.25046 -33495603.48143  24034890.8364                   24034891.4024
 -32271611.60048 -25117891.31746  20794426.8204                   20794424.1644
 -31026433.80248 -24146955.75747  20267269.6644                   20267267.6024
 -13909600.93447 -10824816.33646  21701286.6954                   21701285.3524
 -44763671.09748 -34849606.53046  21092527.4304                   21092523.0664
 -14110182.74648 -10980359.30046  21871231.0784                   21871231.5394
 11  8 20  1 38  0.0000000  0  8G10G29G04G12G05G30G02G25
 -33317100.44047 -25933080.15145  22183753.2664                   22183751.3244
   4211746.06346   3294138.19744  23736120.7424                   23736120.3794
 -43015303.60946 -33485900.19443  24037261.5084                   24037260.8094
 -32316379.76248 -25152775.60746  20785907.7114                   20785905.5394
 -31110222.67048 -24212245.75847  20251325.0394                   20251322.7194
 -14005860.81447 -10899824.02345  21682969.1884                   21682967.2734
 -44800594.19948 -34878377.77246  21085501.1024                   21085496.7234
 -14220992.87248 -11066704.82946  21850144.6644                   21850145.0944
 11  8 20  1 38 30.0000000  0  8G10G29G04G12G05G30G02G25
 -33300201.54847 -25919912.19645  22186968.6414                   22186966.4024
   4061309.57547   3176915.01544  23707494.0394                   23707493.6884
 -43002915.84046 -33476247.41843  24039618.3204                   24039617.4964
 -32360592.46748 -25187227.06346  20777494.2194                   20777492.1134
 -31193445.75348 -24277094.88547  20235488.3984                   20235486.0124
 -14101536.08447 -10974376.15545  21664762.9224                   21664761.0394
 -44837408.17447 -34907063.99646  21078495.5474                   21078490.9844
 -14331279.37148 -11152642.32446  21829158.1724                   21829158.4964
 11  8 20  1 39  0.0000000  0  8G10G29G04G12G05G30G02G25
 -33282943.85847 -25906464.67045  22190252.4694                   22190251.1134
   3910826.09747   3059655.20644  23678858.2664                   23678857.7464
 -42990594.49446 -33466646.42343  24041963.1644                   24041962.5704
 -32404251.50448 -25221247.10446  20769186.1414                   20769183.5554
 -31276104.13048 -24341503.97847  20219758.8284                   20219756.3984
 -14196627.18447 -11048473.11646  21646667.5634                   21646666.2034
 -44874114.89848 -34935666.62846  21071510.7344                   21071506.3134
 -14441041.98248 -11238171.63246  21808271.0864                   21808271.4734
 11  8 20  1 39 30.0000000  0  8G10G29G04G12G05G30G02G25
 -33265329.29447 -25892739.04745  22193604.7894                   22193603.1524
   3760297.76047   2942360.42844  23650213.3204                   23650212.3954
 -42978338.69046 -33457096.52443  24044295.5944                   24044294.8984
 -32447356.99648 -25254835.80846  20760983.6334                   20760980.8324
 -31358196.56948 -24405472.08947  20204137.0554                   20204134.6054
 -14291132.26848 -11122113.42645  21628684.0314                   21628682.5354
 -44910714.28348 -34964185.62246  21064545.9924                   21064541.1254
 -14550278.13548 -11323290.69546  21787483.9064                   21787484.5744
 11  8 20  1 40  0.0000000  0  8G10G29G04G12G05G30G02G25
 -33247362.19247 -25878738.75645  22197023.5554                   22197022.2234
   3609724.17647   2825030.39244  23621560.3914                   23621559.3874
 -42966150.53246 -33447599.24343  24046614.1644                   24046614.3014
 -32489911.25848 -25287994.97446  20752885.4534                   20752883.4964
 -31439724.71648 -24469000.49447  20188622.9304                   20188621.2194
 -14385052.15748 -11195297.74945  21610811.7344                   21610809.7854
 -44947208.41447 -34992622.61746  21057601.3594                   21057596.9414
 -14658988.02448 -11407999.68946  21766797.2974                   21766797.4384
 11  8 20  1 40 30.0000000  0  8G10G29G04G12G05G30G02G25
 -33229042.07447 -25864463.33744  22200510.2034                   22200508.0204
   3459109.61747   2707668.47144  23592898.4694                   23592898.6804
 -42954027.09446 -33438152.44144  24048922.0864                   24048921.5824
 -32531912.21348 -25320722.99146  20744893.5474                   20744891.1254
 -31520684.98548 -24532086.39247  20173216.3674                   20173214.0904
 -14478382.94248 -11268023.02545  21593051.0394                   21593048.9844
 -44983594.57648 -35020975.45646  21050677.5474                   21050672.7934
 -14767167.00148 -11492294.99346  21746211.5704                   21746212.0354
 11  8 20  1 41  0.0000000  0  8G10G29G04G12G05G30G02G25
 -33210374.93247 -25849917.52445  22204062.8754                   22204060.3284
   3308452.13346   2590273.06144  23564229.4064                   23564229.2734
 -42941971.92346 -33428758.86843  24051215.1564                   24051215.0434
 -32573363.98448 -25353023.07546  20737005.3674                   20737003.0274
 -31601080.53448 -24594732.26247  20157917.7194                   20157915.6214
 -14571126.90448 -11340291.03946  21575402.8834                   21575400.8134
 -45019876.91748 -35049247.39846  21043772.6094                   21043768.3204
 -14874816.69048 -11576177.85946  21725726.3134                   21725726.4264
 11  8 20  1 41 30.0000000  0  8G10G29G04G12G05G30G02G25
 -33191362.51147 -25835102.62745  22207680.4064                   22207678.2774
   3157754.53047   2472846.40044  23535553.1724                   23535552.4414
 -42929984.18946 -33419417.75943  24053497.2114                   24053496.7344
 -32614266.09548 -25384894.85646  20729221.9534                   20729219.8324
 -31680910.14348 -24656937.13747  20142726.5084                   20142724.3204
 -14663282.21348 -11412100.37045  21557866.2114                   21557864.8164
 -45056054.61947 -35077437.80446  21036888.8754                   21036884.1684
 -14981934.54448 -11659646.31046  21705342.2664                   21705342.8714
 11  8 20  1 42  0.0000000  0  8G10G29G04G12G05G30G02G25
 -31596590.42347 -24592423.08145  22511154.4844                   22511153.3634
   4582440.20047   3582991.14444  23806662.0004                   23806660.4734
 -41342646.95846 -32182531.56643  24355557.7894                   24355556.9064
 -31079201.17948 -24188740.37446  21021335.1024                   21021332.5314
 -30184753.98048 -23491101.14647  20427435.7734                   20427432.9454
 -13179427.54448 -10255849.96145  21840234.3524                   21840232.2114
 -43516709.43648 -33877948.05446  21329815.5944                   21329812.0474
 -13513098.11848 -10515098.44946  21984852.7194                   21984853.0594
 11  8 20  1 42 30.0000000  0  8G10G29G04G12G05G30G02G25
 -31576898.79647 -24577078.97044  22514902.0084                   22514900.3754
   4431661.82047   3465501.55644  23777969.4694                   23777967.9774
 -41330798.39646 -32173298.99243  24357811.5634                   24357811.5274
 -31119011.47648 -24219761.38946  21013759.0084                   21013757.0634
 -30263455.44448 -23552426.95047  20412459.3834                   20412456.6644
 -13270406.99848 -10326743.04345  21822921.6414                   21822919.5824
 -43552683.15948 -33905979.52446  21322970.7194                   21322966.2734
 -13619151.67948 -10597737.59446  21964671.4534                   21964671.4224
 11  8 20  1 43  0.0000000  0  8G10G29G04G12G05G30G02G25
 -31556873.50847 -24561474.81745  22518712.7194                   22518711.9734
   4280843.04647   3347980.46144  23749269.7424                   23749268.3524
 -41319021.49446 -32164122.21143  24360053.5704                   24360052.6294
 -31158278.72348 -24250359.24846  21006287.3524                   21006284.6524
 -30341594.55348 -23613314.54547  20397589.8134                   20397587.5594
 -13360799.18148 -10397178.51546  21805720.0784                   21805718.1684
 -43588557.87348 -33933933.84646  21316144.0864                   21316139.6054
 -13724672.68748 -10679961.75546  21944591.4774                   21944591.7814
 11  8 20  1 43 30.0000000  0  8G10G29G04G12G05G30G02G25
 -31536513.40047 -24545609.80044  22522587.0554                   22522585.8634
   4129989.31047   3230432.14644  23720562.9774                   23720561.6844
 -41307312.79646 -32154998.53243  24362281.4304                   24362280.8364
 -31197000.14047 -24280531.78546  20998918.3914                   20998916.2734
 -30419167.17048 -23673760.73047  20382828.4224                   20382826.0784
 -13450599.63848 -10467152.89445  21788631.8444                   21788630.1954
 -43624329.66348 -33961807.96946  21309336.6564                   21309332.3014
 -13829655.91748 -10761766.86246  21924613.6884                   21924613.9104
 11  8 20  1 44  0.0000000  0  9G26G10G29G04G12G05G30G02G25
  13948966.41956  10880951.06853  24907249.6484                   24907250.3984
 -31515823.89046 -24529488.11945  22526524.6804                   22526522.0514
   3979099.23747   3112855.51344  23691850.0084                   23691848.5744
 -41295675.14446 -32145930.26343  24364495.0704                   24364494.9534
 -31235179.59548 -24310282.01746  20991653.5944                   20991650.9804
 -30496176.04048 -23733767.62447  20368173.9144                   20368171.5434
 -13539810.44248 -10536667.80846  21771655.8524                   21771653.7274
 -43660001.99048 -33989604.57646  21302548.5944                   21302544.2584
 -13934102.76248 -10843154.00746  21904738.3204                   21904738.7234
 11  8 20  1 44 30.0000000  0  9G26G10G29G04G12G05G30G02G25
  13789165.93146  10756431.38643  24876840.0164                   24876840.8364
 -31494812.94846 -24513115.97444  22530522.8204                   22530520.8324
   3828168.95247   2995247.54044  23663128.5394                   23663126.8164
 -41284113.91246 -32136921.46543  24366695.8984                   24366694.9614
 -31272823.61147 -24339615.01946  20984489.9534                   20984487.1804
 -30572626.65748 -23793339.50747  20353626.0704                   20353623.7584
 -13628436.23748 -10605726.85546  21754790.4924                   21754788.8324
 -43695580.71147 -34017328.24846  21295777.9304                   21295774.1684
 -14038017.07748 -10924126.19546  21884963.9384                   21884964.3054
 11  8 20  1 45  0.0000000  0  9G26G10G29G04G12G05G30G02G25
  13629207.41146  10631788.54843  24846400.4144                   24846402.2234
 -31473489.45746 -24496500.24744  22534580.6954                   22534578.5554
   3677193.61047   2877604.48844  23634399.0554                   23634397.5474
 -41272635.37246 -32127977.11943  24368879.7584                   24368879.5864
 -31309939.13848 -24368536.21446  20977426.8444                   20977424.7584
 -30648525.20048 -23852481.19747  20339182.8364                   20339180.6174
 -13716482.47348 -10674334.32346  21738036.1954                   21738034.3874
 -43731072.37748 -34044984.08646  21289024.0004                   21289019.9844
 -14141403.66248 -11004687.17446  21865290.4144                   21865290.6334
 11  8 20  1 45 30.0000000  0  9G26G10G29G04G12G05G30G02G25
  13469101.65746  10507031.03943  24815933.1954                   24815934.4734
 -31451848.30247 -24479637.02744  22538698.9694                   22538697.0554
   3526182.57647   2759933.60344  23605662.0164                   23605661.5274
 -41261231.85846 -32119091.28043  24371050.3754                   24371049.8524
 -31346519.34748 -24397040.26746  20970465.9384                   20970463.5594
 -30723863.59648 -23911186.41947  20324846.2664                   20324844.1954
 -13803940.57048 -10742483.49246  21721393.1334                   21721391.4884
 -43766469.45948 -34072566.22246  21282288.3444                   21282284.3094
 -14244253.13348 -11084829.61146  21845718.8984                   21845718.6454
 11  8 20  1 46  0.0000000  0  9G26G10G29G04G12G05G30G02G25
  13308853.50946  10382162.53943  24785439.8284                   24785440.7584
 -31429890.39247 -24462527.00444  22542877.2584                   22542875.5864
   3375139.07447   2642237.41644  23576919.1094                   23576918.5704
 -41249901.58046 -32110262.48143  24373205.7734                   24373205.3714
 -31382563.81048 -24425126.86946  20963607.0314                   20963604.3954
 -30798640.11948 -23969453.81047  20310617.0784                   20310614.5824
 -13890808.15648 -10810172.52345  21704862.9064                   21704861.3594
 -43801770.74348 -34100073.71246  21275570.7894                   21275566.7934
 -14346562.46248 -11164551.15646  21826249.7194                   21826249.8984
 11  8 20  1 46 30.0000000  0  9G26G10G29G04G12G05G30G02G25
  13148466.35946  10257185.70943  24754918.2584                   24754919.2194
 -31407618.20947 -24445172.05445  22547115.4924                   22547114.2464
   3224064.63047   2524517.14144  23548170.9224                   23548169.8834
 -41238644.71446 -32101490.88343  24375348.4614                   24375347.1054
 -31418073.15448 -24452796.48946  20956849.9304                   20956847.5124
 -30872854.73848 -24027283.34547  20296494.1174                   20296492.0204
 -13977084.49148 -10877400.83845  21688444.6024                   21688443.4454
 -43836976.34448 -34127506.65646  21268871.3444                   21268867.5554
 -14448330.05248 -11243850.57046  21806884.0944                   21806884.1994
 11  8 20  1 47  0.0000000  0  9G26G10G29G04G12G05G30G02G25
  12987945.09146  10132104.36143  24724372.2814                   24724372.9734
 -31385032.40747 -24427572.74944  22551413.1094                   22551411.5824
   3072962.70847   2406775.39844  23519417.2274                   23519416.1804
 -41227459.15246 -32092774.79343  24377476.6174                   24377475.9844
 -31453046.57148 -24480048.50246  20950194.7894                   20950192.6524
 -30946505.59248 -24084673.58847  20282478.9844                   20282476.6954
 -14062767.10748 -10944166.49546  21672140.0314                   21672138.6054
 -43872084.75948 -34154863.85246  21262190.3134                   21262186.5704
 -14549552.72848 -11322725.36046  21787621.7974                   21787622.4224
 11  8 20  1 47 30.0000000  0  9G26G10G29G04G12G05G30G02G25
  12827293.33646  10006921.35943  24693801.6644                   24693802.6954
 -31362134.82147 -24409730.48144  22555771.1564                   22555769.1094
   2921835.61547   2289014.06444  23490658.4924                   23490657.4884
 -41216344.37746 -32084113.93643  24379591.3134                   24379590.9844
 -31487484.43548 -24506883.18946  20943641.2114                   20943638.6054
 -31019592.18148 -24141624.14247  20268570.6484                   20268568.7074
 -14147854.79948 -11010468.59046  21655948.6884                   21655947.1414
 -43907095.67148 -34182145.07346  21255528.1954                   21255523.8444
 -14650228.51648 -11401174.02246  21768464.2194                   21768464.2974
 11  8 20  1 48  0.0000000  0  9G26G10G29G04G12G05G30G02G25
  12666514.93746   9881639.63443  24663205.8594                   24663206.9104
 -31338927.91847 -24391647.18144  22560186.9534                   22560184.9414
   2770684.96747   2171234.41244  23461895.7034                   23461894.9694
 -41205300.03246 -32075507.89043  24381693.3674                   24381692.9574
 -31521387.90948 -24533301.49646  20937189.6254                   20937187.4414
 -31092114.08048 -24198134.67147  20254770.4774                   20254767.7774
 -14232346.74048 -11076306.46545  21639870.3134                   21639868.4494
 -43942009.11548 -34209350.35746  21248884.0394                   21248880.1214
 -14750355.88248 -11479195.34846  21749410.4694                   21749410.6024
 11  8 20  1 48 30.0000000  0  9G26G10G29G04G12G05G30G02G25
  12505613.68146   9756262.20243  24632587.0944                   24632588.2664
 -31315413.39647 -24373324.17244  22564661.6024                   22564659.0594
   2619513.39147   2053438.42244  23433128.2424                   23433127.8984
 -41194325.39146 -32066956.26543  24383782.0704                   24383780.6094
 -31554756.73548 -24559303.17646  20930839.7894                   20930837.4384
 -31164070.37548 -24254204.47147  20241077.5704                   20241075.1054
 -14316241.44948 -11141678.97246  21623905.8204                   21623904.1414
 -43976824.60648 -34236479.30246  21242259.3674                   21242255.2814
 -14849932.52648 -11556787.54246  21730461.5864                   21730461.6524
 11  8 20  1 49  0.0000000  0  9G26G10G29G04G12G05G30G02G25
  12344593.21646   9630791.87743  24601945.3364                   24601946.3134
 -31291593.41046 -24354763.13344  22569193.8284                   22569192.6484
   2468322.66047   1935627.54144  23404357.6884                   23404356.9804
 -41183419.96446 -32058458.45343  24385857.3284                   24385856.3914
 -31587592.23148 -24584889.27246  20924591.5864                   20924589.0594
 -31235461.31748 -24309833.73547  20227492.4384                   20227490.4024
 -14399538.20348 -11206585.52946  21608055.1484                   21608053.4024
 -44011542.14747 -34263531.92346  21235652.6174                   21235648.4064
 -14948956.93048 -11633949.39946  21711617.7344                   21711617.8554
 11  8 20  1 49 30.0000000  0  9G26G10G29G04G12G05G30G02G25
  12183452.88046   9505228.15343  24571281.6484                   24571282.4494
 -31267474.39647 -24335969.11645  22573783.6024                   22573782.3324
   2317110.63347   1817800.02444  23375583.5864                   23375582.6484
 -41172587.80046 -32050017.76243  24387918.4304                   24387918.2034
 -31619899.15748 -24610063.49746  20918443.8594                   20918441.0354
 -31306290.46348 -24365025.24747  20214014.2114                   20214012.0124
 -14482240.09248 -11271028.56445  21592317.2424                   21592315.4734
 -44046165.63148 -34290511.26246  21229064.0164                   21229059.9734
 -15047431.49348 -11710682.82746  21692878.6024                   21692878.7704
 11  8 20  1 50  0.0000000  0  9G26G10G29G04G12G05G30G02G25
  12022195.32346   9379573.15743  24540595.4064                   24540595.7074
 -31243059.87447 -24316944.78744  22578429.7664                   22578427.9804
   2165878.20347   1699956.59744  23346804.6024                   23346803.6764
 -41161829.17246 -32041634.41943  24389966.4534                   24389965.6054
 -31651679.32448 -24634827.26646  20912395.9534                   20912393.5314
 -31376558.81648 -24419779.76147  20200642.3834                   20200640.2544
 -14564347.52348 -11335008.37746  21576692.3444                   21576691.1414
 -44080696.15548 -34317418.17146  21222493.1414                   21222489.0824
 -15145355.78348 -11786987.45646  21674244.1884                   21674244.8364
 11  8 20  1 50 30.0000000  0  9G26G10G29G04G12G05G30G02G25
  11860826.76146   9253831.53043  24509887.6094                   24509888.3404
 -31218348.80047 -24297689.40944  22583131.4454                   22583130.6884
   2014630.05447   1582100.96844  23318022.8284                   23318022.2274
 -41151141.31746 -32033306.17943  24391999.7344                   24391999.0634
 -31682930.80048 -24659179.06146  20906448.9694                   20906446.3094
 -31446263.49648 -24474095.06847  20187377.9064                   20187375.7114
 -14645856.91648 -11398522.18046  21561181.7814                   21561180.6914
 -44115131.03148 -34344250.54646  21215940.4224                   21215935.9414
 -15242725.39548 -11862859.86946  21655715.3134                   21655715.5904
 11  8 20  1 51  0.0000000  0  9G26G10G29G04G12G05G30G02G25
  11699347.96546   9128004.07543  24479158.9304                   24479159.9774
 -31193346.90546 -24278207.40544  22587889.6644                   22587887.8404
   1863364.96146   1464232.07445  23289237.9924                   23289236.8594
 -41140526.72346 -32025035.06443  24394018.7584                   24394018.9964
 -31713657.97248 -24683122.30846  20900601.5784                   20900599.7384
 -31515407.30948 -24527973.32347  20174220.0944                   20174217.8364
 -14726770.58148 -11461571.77646  21545784.7734                   21545782.9924
 -44149473.04048 -34371010.54846  21209405.3444                   21209401.2544
 -15339541.92447 -11938301.31246  21637291.7424                   21637292.1884
 11  8 20  1 51 30.0000000  0  9G26G10G29G04G12G05G30G02G25
  11537759.61246   9002091.22143  24448409.6484                   24448410.7194
 -31168059.13746 -24258502.63144  22592701.9534                   22592699.8364
   1712082.52947   1346349.72145  23260450.0704                   23260449.0514
 -41129987.82146 -32016822.93843  24396025.0234                   24396024.6254
 -31743864.13448 -24706659.58646  20894853.5314                   20894851.3094
 -31583992.94248 -24581416.63547  20161168.7894                   20161166.4224
 -14807090.57348 -11524158.78546  21530500.2734                   21530498.3754
 -44183724.80847 -34397700.22746  21202887.1804                   21202883.0314
 -15435806.64347 -12013312.77046  21618973.2424                   21618973.7424
 11  8 20  1 52  0.0000000  0  9G26G10G29G04G12G05G30G02G25
  11376066.41346   8876096.64943  24417640.5784                   24417640.4884
 -31142486.64347 -24238575.97944  22597568.6564                   22597566.5784
   1560785.66047   1228456.09144  23231659.3524                   23231657.3554
 -41119523.00546 -32008668.54743  24398017.1024                   24398016.0354
 -31773549.05248 -24729790.67946  20889205.0314                   20889202.5514
 -31652019.23348 -24634424.10447  20148224.0474                   20148221.6764
 -14886815.00448 -11586281.70546  21515328.9774                   21515327.3834
 -44217885.35547 -34424318.82846  21196387.0784                   21196382.5634
 -15531516.82848 -12087892.14346  21600760.2194                   21600760.4384
 11  8 20  1 52 30.0000000  0  9G26G10G29G04G12G05G30G02G25
  11214271.91346   8750023.17043  24386851.0164                   24386851.2344
 -31116631.75546 -24218429.32844  22602487.7664                   22602485.9774
   1409476.27647   1110552.71844  23202865.6954                   23202865.4454
 -41109131.86046 -32000571.48843  24399993.5554                   24399992.8954
 -31802713.81248 -24752516.48246  20883655.1094                   20883652.8094
 -31719486.09348 -24686995.64847  20135385.6414                   20135382.7034
 -14965943.32248 -11647940.14546  21500271.7114                   21500270.2114
 -44251954.47347 -34450866.18446  21189903.4384                   21189899.5274
 -15626671.11048 -12162038.33246  21582652.9774                   21582653.0984
 11  8 20  1 53  0.0000000  0  9G26G10G29G04G12G05G30G02G25
  11052377.51246   8623871.84842  24356044.0234                   24356043.9414
 -31090499.02247 -24198066.17844  22607461.3364                   22607459.9844
   1258154.08147    992639.36644  23174070.4224                   23174069.2624
 -41098816.57046 -31992533.58443  24401956.5864                   24401956.0474
 -31831361.57648 -24774839.41446  20878203.7194                   20878201.4574
 -31786396.10548 -24739133.28347  20122652.8914                   20122650.1994
 -15044477.19948 -11709135.37845  21485327.1174                   21485325.1054
 -44285934.42248 -34477344.06546  21183437.3134                   21183433.0354
 -15721270.44048 -12235752.07246  21564651.4844                   21564651.3914
 11  8 20  1 53 30.0000000  0  9G26G10G29G04G12G05G30G02G25
  12465814.50646   9725251.47843  24625011.9844                   24625012.3794
 -29488669.58347 -22949887.37644  22912279.1414                   22912277.1054
   2682248.21847   2102323.13344  23445066.2274                   23445064.5704
 -39513154.60746 -30756952.90143  24703697.6954                   24703697.6644
 -30284070.18948 -23569157.82046  21172643.2034                   21172641.0594
 -30277324.59748 -23563233.37847  20409819.5314                   20409816.9224
 -13546991.45048 -10542263.35945  21770289.3284                   21770287.7504
 -42744401.92748 -33276149.91946  21476781.5704                   21476777.1884
 -14239888.13948 -11081428.19046  21846549.1094                   21846549.5314
 11  8 20  1 54  0.0000000  0  9G26G10G29G04G12G05G30G02G25
  12303731.87446   9598953.43543  24594168.9144                   24594168.6564
 -29461987.48147 -22929096.13744  22917356.4774                   22917354.9184
   2530907.05846   1984395.02544  23416266.7034                   23416265.7774
 -39502988.49046 -30749031.18843  24705632.7034                   24705631.9804
 -30311686.39648 -23590676.93946  21167388.4924                   21167385.9574
 -30343119.77548 -23614502.32747  20397298.9064                   20397296.5354
 -13624334.17648 -10602530.42646  21755571.3754                   21755569.7624
 -42778202.58947 -33302488.07046  21470348.9304                   21470344.5634
 -14333372.70248 -11154273.28846  21828759.5944                   21828760.1174
 11  8 20  1 54 30.0000000  0  9G26G10G29G04G12G05G30G02G25
  12141560.55446   9472586.22543  24563309.3444                   24563308.8714
 -29435034.20446 -22908093.56944  22922485.6724                   22922484.3054
   2379559.44046   1866461.84744  23387466.8134                   23387465.4064
 -39492896.46046 -30741167.32042  24707552.3674                   24707552.3834
 -30338788.71848 -23611795.64846  21162230.8834                   21162228.3404
 -30408357.65647 -23665337.01047  20384884.7344                   20384882.0554
 -13701080.52048 -10662332.77446  21740967.1644                   21740965.1214
 -42811913.47747 -33328756.28746  21463934.3594                   21463930.0474
 -14426297.83847 -11226682.47546  21811076.1484                   21811077.0944
 11  8 20  1 55  0.0000000  0  9G26G10G29G04G12G05G30G02G25
  11979303.37146   9346152.19743  24532431.3204                   24532432.2774
 -29407812.86346 -22886882.16444  22927665.7424                   22927663.9104
   2228206.30747   1748524.39044  23358664.9384                   23358663.6564
 -39482879.12046 -30733361.67642  24709459.1484                   24709457.8634
 -30365379.42948 -23632515.68546  21157170.5704                   21157168.4024
 -30473039.19248 -23715738.18347  20372576.5864                   20372574.5044
 -13777230.89848 -10721670.72946  21726475.6334                   21726473.8324
 -42845535.52947 -33354955.26946  21457536.5634                   21457531.7734
 -14518663.22248 -11298655.46646  21793500.1094                   21793500.1374
 11  8 20  1 55 30.0000000  0  9G26G10G29G04G12G05G30G02G25
  11816962.77346   9219653.18843  24501539.5164                   24501539.0314
 -29380326.92846 -22865464.52744  22932896.0474                   22932894.0784
   2076848.39147   1630583.20344  23329862.4614                   23329861.3284
 -39472937.04046 -30725614.66442  24711351.3834                   24711350.4184
 -30391460.39848 -23652838.51846  21152207.8444                   21152205.1564
 -30537165.83048 -23765706.97547  20360373.1334                   20360370.9264
 -13852786.03348 -10780544.86146  21712098.2194                   21712096.5904
 -42879069.84247 -33381085.87646  21451154.8134                   21451150.3524
 -14610468.72948 -11370192.20846  21776030.1804                   21776029.6764
 11  8 20  1 56  0.0000000  0  9G26G10G29G04G12G05G30G02G25
  11654542.35346   9093091.92143  24470632.0474                   24470632.2774
 -29352578.61146 -22843842.53144  22938176.6334                   22938174.4534
   1925488.15547   1512640.18545  23301059.5634                   23301058.6254
 -39463069.82546 -30717925.93042  24713229.4384                   24713227.6914
 -30417032.43148 -23672764.78646  21147341.4614                   21147339.3324
 -30600737.47048 -23815243.29047  20348276.2734                   20348272.9454
 -13927745.33748 -10838954.70146  21697834.2274                   21697832.4064
 -42912515.89548 -33407147.72146  21444789.8284                   21444786.2624
 -14701712.98448 -11441291.60946  21758666.6644                   21758666.6914
 11  8 20  1 56 30.0000000  0  9G26G10G29G04G12G05G30G02G25
  11492043.44846   8966469.51443  24439709.1954                   24439709.1524
 -29324572.60546 -22822019.65944  22943505.9454                   22943504.8984
   1774124.74847   1394694.71245  23272256.1414                   23272254.5824
 -39453279.61846 -30710297.19942  24715091.6954                   24715091.1604
 -30442099.53648 -23692297.60346  21142571.3054                   21142569.5554
 -30663757.08148 -23864349.46447  20336283.7194                   20336281.2974
 -14002111.08148 -10896902.03546  21683682.3594                   21683681.2194
 -42945876.46147 -33433142.95146  21438441.7894                   21438437.5044
 -14792397.38248 -11511954.75646  21741409.9224                   21741410.2814
 11  8 20  1 57  0.0000000  0  9G26G10G29G04G12G05G30G02G25
  11329472.24046   8839790.80643  24408772.4304                   24408772.8754
 -29296308.84846 -22799996.00044  22948884.9844                   22948882.9184
   1622763.18247   1276750.67845  23243452.9694                   23243451.4694
 -39443563.34946 -30702726.10942  24716941.2424                   24716939.9144
 -30466660.59248 -23711436.09646  21137897.2974                   21137895.1414
 -30726222.07747 -23913023.48047  20324397.0554                   20324394.5594
 -14075880.24248 -10954384.49846  21669644.8524                   21669643.1174
 -42979148.85147 -33459069.48146  21432110.9694                   21432106.6024
 -14882518.08648 -11582178.66446  21724260.7734                   21724260.9454
 11  8 20  1 57 30.0000000  0  8G26G10G29G12G05G30G02G25
  11166828.72746   8713055.66243  24377822.8674                   24377822.5824
 -29267793.11646 -22777775.97244  22954310.8914                   22954309.5514
   1471401.67546   1158806.63745  23214650.1024                   23214649.0274
 -30490720.25048 -23730183.88546  21133319.1884                   21133316.9774
 -30788136.49948 -23961268.46647  20312614.9144                   20312612.6844
 -14149056.28548 -11011404.77246  21655719.7584                   21655718.2384
 -43012336.63147 -33484930.06546  21425795.0084                   21425790.3054
 -14972077.74348 -11651965.37346  21707217.6954                   21707218.0904
 11  8 20  1 58  0.0000000  0  8G26G10G29G12G05G30G02G25
  11004116.11246   8586266.77144  24346860.1884                   24346859.1954
 -29239028.24146 -22755361.82144  22959783.8674                   22959782.5864
   1320041.81047   1040863.92145  23185846.8914                   23185846.2344
 -30514279.82448 -23748541.99546  21128836.0554                   21128833.1644
 -30849500.90648 -24009084.87447  20300938.1334                   20300935.4494
 -14221639.25148 -11067962.91946  21641907.9614                   21641906.0704
 -43045439.79147 -33510724.71346  21419495.5234                   21419491.3554
 -15061075.57148 -11721314.31646  21690282.1564                   21690282.4574
 11  8 20  1 58 30.0000000  0  8G26G10G29G12G05G30G02G25
  10841343.21247   8459430.85043  24315885.0004                   24315885.2234
 -29210011.35246 -22732751.28344  22965306.1254                   22965304.7584
   1168690.76947    922928.05645  23157045.5394                   23157045.4104
 -30537335.90148 -23766507.78546  21124448.5554                   21124445.7034
 -30910310.08748 -24056468.63247  20289366.2814                   20289363.5394
 -14293623.72448 -11124054.70646  21628209.7194                   21628208.0554
 -43078453.17248 -33536449.39946  21413213.5164                   21413209.3524
 -15149505.23548 -11790220.51046  21673454.6484                   21673454.8244
 11  8 20  1 59  0.0000000  0  8G26G10G29G12G05G30G02G25
  10678513.02846   8332550.32543  24284899.1334                   24284898.9494
 -29180745.66146 -22709946.86044  22970875.1484                   22970873.0234
   1017349.68347    804999.95145  23128246.3834                   23128245.5204
 -30559890.57348 -23784082.85946  21120156.6094                   21120153.8874
 -30970565.88548 -24103421.18647  20277899.7424                   20277897.1484
 -14365010.33948 -11179680.63646  21614625.6174                   21614623.7894
 -43111377.48447 -33562104.69846  21406947.8594                   21406943.8954
 -15237366.60348 -11858683.87646  21656734.8204                   21656735.0704
 11  8 20  1 59 30.0000000  0  8G26G10G29G12G05G30G02G25
  10515627.10346   8205626.35843  24253902.7894                   24253903.7274
 -29151235.94946 -22686952.30244  22976491.1174                   22976488.9734
    866018.19547    687079.33445  23099449.1564                   23099448.2544
 -30581947.45848 -23801270.04846  21115959.2974                   21115956.6374
 -31030270.83448 -24149944.50847  20266538.3204                   20266535.9924
 -14435801.35747 -11234842.45046  21601154.1884                   21601152.8914
 -43144215.34148 -33587692.62946  21400699.4454                   21400694.3674
 -15324661.13148 -11926705.56646  21640123.3134                   21640124.0434
 11  8 20  2  0  0.0000000  0  8G26G10G29G12G05G30G02G25
  10352685.78746   8078659.27743  24222895.6484                   24222896.3674
 -29121487.23146 -22663771.49044  22982151.8834                   22982150.3754
    714695.68347    569165.72345  23070653.3204                   23070651.9454
 -30603510.96948 -23818072.77346  21111855.9534                   21111853.1914
 -31089428.01048 -24196040.99047  20255281.4224                   20255278.2304
 -14505999.38048 -11289542.18446  21587796.1804                   21587794.6054
 -43176969.27848 -33613215.17046  21394466.1954                   21394462.0634
 -15411390.52248 -11994286.88046  21623619.2974                   21623619.7234
 11  8 20  2  0 30.0000000  0  8G26G10G29G12G05G30G02G25
  10189693.45946   7951652.39143  24191879.8054                   24191879.0164
 -29091501.28046 -22640405.85544  22987857.7344                   22987855.6564
    563384.91547    451261.28145  23041859.6414                   23041858.8134
 -30624581.89648 -23834491.68146  21107846.3834                   21107844.2424
 -31148037.37948 -24241710.61047  20244128.2424                   20244125.8634
 -14575603.84547 -11343779.41046  21574550.5784                   21574548.7664
 -43209638.59948 -33638671.78746  21388249.5394                   21388245.5554
 -15497553.33348 -12061426.70746  21607222.9384                   21607223.0944
 11  8 20  2  1  0.0000000  0  8G26G10G29G12G05G30G02G25
  10026647.53146   7824603.79243  24160853.1954                   24160852.3094
 -29061286.84446 -22616862.20344  22993607.8364                   22993606.1094
    412081.22647    333362.34945  23013067.7344                   23013066.9454
 -30645167.95348 -23850532.76346  21103928.7274                   21103926.7234
 -31206105.64548 -24286958.57847  20233078.2504                   20233075.4064
 -14644620.97847 -11397558.96946  21561417.0704                   21561415.0704
 -43242229.53248 -33664067.30946  21382047.8594                   21382043.1724
 -15583154.97048 -12128129.26846  21590933.8524                   21590933.7734
 11  8 20  2  1 30.0000000  0  8G26G10G29G12G05G30G02G25
   9863552.36946   7697516.78943  24129816.4384                   24129816.4144
 -29030845.93346 -22593142.07344  22999400.6024                   22999398.5514
    260787.56147    215471.24645  22984277.2664                   22984275.8364
 -30665269.93748 -23866196.65346  21100103.5784                   21100101.2894
 -31263632.87448 -24331784.96647  20222130.8594                   20222128.6134
 -14713050.30847 -11450880.50846  21548395.3444                   21548393.9884
 -43274741.42648 -33689401.24746  21375860.5394                   21375856.6414
 -15668194.08848 -12194393.48146  21574751.1174                   21574751.0514
 11  8 20  2  2  0.0000000  0  8G26G10G29G12G05G30G02G25
   9700408.31546   7570391.66943  24098771.1254                   24098771.8874
 -29000183.71947 -22569249.46544  23005235.2424                   23005233.6454
    109502.30647     97586.68445  22955488.5704                   22955486.9884
 -30684892.67448 -23881487.09546  21096369.4614                   21096367.3324
 -31320622.83448 -24376192.69847  20211286.3834                   20211283.5824
 -14780895.02047 -11503746.49046  21535484.7974                   21535483.1294
 -43307177.32348 -33714675.97146  21369688.5554                   21369683.9414
 -15752673.02348 -12260221.20746  21558675.2894                   21558675.5084
 11  8 20  2  2 30.0000000  0  8G26G10G29G12G05G30G02G25
   9537220.43046   7443232.46043  24067717.2894                   24067717.5784
 -28969301.30247 -22545185.29644  23011111.8364                   23011110.0664
    -41770.58347    -20288.19145  22926702.1024                   22926701.3324
 -30704036.26648 -23896404.17346  21092726.5784                   21092723.7894
 -31377074.52648 -24420180.99847  20200543.8754                   20200541.4734
 -14848153.68947 -11556155.82646  21522686.1484                   21522684.1134
 -43339535.89748 -33739890.44846  21363531.0084                   21363526.7624
 -15836589.53748 -12325610.66346  21542706.7274                   21542706.7344
 11  8 20  2  3  0.0000000  0  8G26G10G29G12G05G30G02G25
   9373991.89046   7316041.55543  24036655.0004                   24036655.6954
 -28938202.14647 -22520952.20544  23017029.9224                   23017028.1954
   -193030.15747   -138152.71045  22897917.9224                   22897917.2894
 -30722702.97148 -23910949.65146  21089174.4614                   21089171.6454
 -31432989.18048 -24463750.81847  20189903.7584                   20189901.1644
 -14914827.13948 -11608109.15046  21509998.3204                   21509996.6454
 -43371817.77348 -33765045.14246  21357388.1484                   21357383.4964
 -15919943.59948 -12390561.86846  21526844.4614                   21526845.2114
 11  8 20  2  3 30.0000000  0  8G26G10G29G12G05G30G02G25
   9210727.06646   7188822.27343  24005587.5394                   24005587.4534
 -28906887.28547 -22496551.02844  23022989.3524                   23022987.3914
   -344273.16047   -256004.30945  22869137.7344                   22869136.9884
 -30740893.51548 -23925124.10746  21085712.7734                   21085710.5944
 -31488366.54848 -24506901.97747  20179365.6564                   20179362.9884
 -14980914.61148 -11659605.86746  21497422.3204                   21497421.0864
 -43404021.64248 -33790139.04946  21351259.8444                   21351255.0124
 -16002733.49748 -12455073.46046  21511090.4924                   21511090.4144
 11  8 20  2  4  0.0000000  0  8G26G10G29G12G05G30G02G25
   9047428.24646   7061576.53443  23974512.4694                   23974512.1604
 -28875360.44947 -22471984.70644  23028989.0784                   23028986.6524
   -495499.05347   -373842.55845  22840360.7194                   22840359.4304
 -30758610.97948 -23938929.91946  21082341.3754                   21082338.7704
 -31543208.76448 -24549636.14047  20168929.7114                   20168926.8404
 -15046417.61248 -11710647.14846  21484958.0474                   21484955.7584
 -43436149.11148 -33815173.43746  21345146.1564                   21345141.7304
 -16084960.02148 -12519146.05846  21495443.0704                   21495443.1524
 11  8 20  2  4 30.0000000  0  8G26G10G29G12G05G30G02G25
   8884099.49446   6934307.49043  23943431.5864                   23943431.8134
 -28843624.16947 -22447255.15944  23035028.0164                   23035026.0474
   -646705.74047   -491665.84345  22811586.5554                   22811585.4884
 -30775856.63448 -23952368.10046  21079059.7114                   21079057.2584
 -31597516.64648 -24591953.94247  20158595.0164                   20158592.1374
 -15111336.28048 -11761233.11046  21472603.9304                   21472602.1374
 -43468199.91548 -33840148.07846  21339046.6954                   21339042.9414
 -16166622.28548 -12582778.98446  21479903.2424                   21479903.5474
 11  8 20  2  5  0.0000000  0  8G26G10G29G12G05G30G02G25
  10296169.88247   8034622.20043  24212139.9144                   24212138.6294
 -27236261.78647 -21194765.00144  23340898.6254                   23340896.9774
    777533.91947    618131.37045  23082610.3054                   23082608.5394
 -29217211.44848 -22737839.37846  21375660.0634                   21375657.2114
 -30075868.67548 -23406254.19047  20448154.8834                   20448152.2114
 -13600248.52748 -10583762.11846  21760154.5314                   21760153.0234
 -41924752.61947 -32637461.85846  21632755.0394                   21632750.9804
 -14672296.88948 -11418369.56646  21764264.1094                   21764264.5234
 11  8 20  2  5 30.0000000  0  8G26G10G29G12G05G30G02G25
  10132792.78347   7907315.44643  24181051.0944                   24181050.3954
 -27204113.02547 -21169714.08444  23347016.4924                   23347014.3204
    626372.68347    500343.48845  23053845.2194                   23053843.8244
 -29233517.96048 -22750545.74946  21372556.9304                   21372554.4884
 -30129108.58948 -23447739.80747  20438023.9384                   20438021.3954
 -13663998.45447 -10633437.36646  21748022.9454                   21748021.4964
 -41956648.96948 -32662316.13246  21626685.4384                   21626681.1804
 -14752828.13848 -11481121.16546  21748939.4224                   21748939.3404
 11  8 20  2  6  0.0000000  0  8G26G10G29G12G05G30G02G25
   9969393.41247   7779991.33843  24149956.7974                   24149956.6724
 -27171765.32647 -21144508.09344  23353171.8524                   23353170.2344
    475233.28047    382572.60445  23025084.2034                   23025083.0004
 -29249361.06848 -22762891.02546  21369542.0234                   21369539.9454
 -30181819.59348 -23488813.28747  20427993.1644                   20427990.5514
 -13727168.23248 -10682660.53446  21736002.3594                   21735999.9654
 -41988471.71447 -32687113.05846  21620629.9694                   21620625.7774
 -14832796.77648 -11543434.36746  21733721.9694                   21733722.5084
 11  8 20  2  6 30.0000000  0  8G26G10G29G12G05G30G02G25
   9805972.56346   7652650.51244  24118859.2734                   24118858.6414
 -27139223.83047 -21119151.11544  23359364.2034                   23359362.7974
    324115.30347    264818.42145  22996327.3914                   22996325.9304
 -29264745.66448 -22774879.02546  21366614.2814                   21366612.0394
 -30234005.28548 -23529477.42847  20418062.6804                   20418059.9184
 -13789761.01347 -10731434.10346  21724091.2894                   21724089.1334
 -42020223.43647 -32711854.63046  21614587.7424                   21614583.2664
 -14912205.08148 -11605310.94646  21718610.8284                   21718611.1524
 11  8 20  2  7  0.0000000  0  8G26G10G29G12G05G30G02G25
   9642537.03146   7525298.26143  24087758.0634                   24087757.7814
 -27106488.11247 -21093642.80844  23365593.7734                   23365591.9304
    173023.69847    147084.80645  22967575.1884                   22967574.9414
 -29279670.47048 -22786508.74446  21363774.0554                   21363772.2384
 -30285663.44848 -23569730.52847  20408232.3054                   20408229.7974
 -13851774.16448 -10779756.02046  21712291.0784                   21712288.9574
 -42051901.46148 -32736538.79746  21608559.6484                   21608555.6564
 -14991049.55348 -11666748.18046  21703607.3364                   21703607.5904
 11  8 20  2  7 30.0000000  0  8G26G10G29G12G05G30G02G25
   9479092.90846   7397939.22043  24056656.0164                   24056654.9924
 -27073557.79147 -21067982.82543  23371859.9384                   23371858.1454
     21963.27547     29375.44745  22938830.1484                   22938828.4024
 -29294134.43848 -22797779.37046  21361021.8914                   21361019.6684
 -30336792.13848 -23609571.04047  20398502.4694                   20398500.2074
 -13913205.44848 -10827624.52446  21700600.6414                   21700598.7304
 -42083502.72748 -32761163.14746  21602546.1414                   21602541.6954
 -15069327.09048 -11727743.64646  21688711.7504                   21688711.8754
 11  8 20  2  8  0.0000000  0  8G26G10G29G12G05G30G02G25
   9315640.99446   7270574.24643  24025551.9304                   24025550.8284
 -27040438.64847 -21042175.69844  23378162.8914                   23378161.1564
   -129067.36147    -88310.67845  22910089.3284                   22910087.3404
 -29308142.76148 -22808694.94946  21358356.5864                   21358353.9654
 -30387395.77748 -23649002.42247  20388873.5554                   20388870.5274
 -13974058.68047 -10875042.61146  21689020.5084                   21689019.0204
 -42115030.53647 -32785730.25146  21596546.5634                   21596542.1484
 -15147040.66148 -11788299.66046  21673923.0554                   21673923.5984
 11  8 20  2  8 30.0000000  0  8G26G10G29G12G05G30G02G25
   9152186.28846   7143207.03643  23994448.0004                   23994446.1804
 -27007131.28047 -21016221.89443  23384501.3284                   23384498.2934
   -280064.42847   -205970.66745  22881355.6564                   22881354.2544
 -29321695.44148 -22819255.47746  21355777.3134                   21355775.0664
 -30437473.31948 -23688023.86047  20379343.9384                   20379341.1294
 -14034332.54847 -10922009.25345  21677550.9384                   21677548.9414
 -42146483.00947 -32810238.66546  21590561.6804                   21590556.6994
 -15224188.00748 -11848414.45746  21659242.3984                   21659243.2194
 11  8 20  2  9  0.0000000  0  8G26G10G29G12G05G30G02G25
   8988731.81946   7015839.97343  23963342.5634                   23963342.4924
 -26973639.06347 -20990124.07343  23390874.0164                   23390872.5314
   -431026.77347   -323603.60045  22852628.0004                   22852626.6294
 -29334795.40648 -22829463.23746  21353284.4924                   21353282.5784
 -30487026.81748 -23726636.94547  20369913.7274                   20369911.2344
 -14094028.54547 -10968525.59746  21666191.0314                   21666189.5354
 -42177860.90848 -32834688.95746  21584590.0864                   21584585.9734
 -15300769.79648 -11908088.57046  21644669.5474                   21644669.8524
 11  8 20  2  9 30.0000000  0  8G26G10G29G12G05G30G02G25
   8825279.30746   6888474.41644  23932238.9774                   23932238.4384
 -26939966.52646 -20963885.81144  23397282.4534                   23397280.3714
   -581954.29147   -441209.41445  22823907.6644                   22823907.0784
 -29347446.76148 -22839321.44946  21350876.7734                   21350874.5864
 -30536059.05648 -23764843.86247  20360583.3204                   20360581.2274
 -14153149.15948 -11014593.59446  21654940.5944                   21654939.0314
 -42209166.37148 -32859082.81546  21578632.9224                   21578628.5394
 -15376787.66148 -11967323.25246  21630203.3754                   21630203.9844
 11  8 20  2 10  0.0000000  0  8G26G10G29G12G05G30G02G25
   8661832.78946   6761113.60043  23901135.4304                   23901135.7194
 -26906115.60647 -20937508.47144  23403723.4304                   23403722.1884
   -732844.36147   -558786.04745  22795194.3284                   22795193.0784
 -29359650.33648 -22848830.73546  21348554.7194                   21348552.3364
 -30584570.54548 -23802644.99747  20351352.0084                   20351349.5314
 -14211694.57148 -11060213.38346  21643799.9224                   21643797.9804
 -42240398.93348 -32883419.84846  21572689.3914                   21572684.8364
 -15452240.79648 -12026117.89646  21615845.5234                   21615845.2854
 11  8 20  2 10 30.0000000  0  8G26G10G29G12G05G30G02G25
   8498395.91346   6633760.28344  23870034.5554                   23870034.3834
 -26872089.15047 -20910994.34444  23410198.2814                   23410196.4844
   -883695.46747   -676332.30645  22766488.2664                   22766486.9024
 -29371409.02848 -22857993.34846  21346316.8524                   21346314.8054
 -30632562.98448 -23840041.68547  20342219.1724                   20342216.8164
 -14269665.66448 -11105385.65946  21632768.4534                   21632766.5594
 -42271558.51148 -32907700.03346  21566760.0004                   21566756.4184
 -15527129.40248 -12084472.63046  21601594.6414                   21601595.1484
 11  8 20  2 11  0.0000000  0  8G26G10G29G12G05G30G02G25
   8334973.55446   6506418.24544  23838937.3834                   23838935.7774
 -26837888.25547 -20884344.34344  23416706.5704                   23416705.2424
  -1034503.87047   -793845.31745  22737790.7734                   22737788.3914
 -29382722.96748 -22866809.41846  21344164.3754                   21344161.8554
 -30680035.77548 -23877033.45347  20333185.4774                   20333182.7424
 -14327061.75048 -11150109.86646  21621845.9384                   21621843.7194
 -42302643.69548 -32931922.24546  21560844.5944                   21560840.2504
 -15601451.68548 -12142386.10646  21587451.5704                   21587451.7194
 11  8 20  2 11 30.0000000  0  8G26G10G29G12G05G30G02G25
   8171568.46646   6379089.68343  23807842.5704                   23807840.9184
 -26803516.32247 -20857560.97543  23423247.5704                   23423245.8714
  -1185268.72447   -911324.36745  22709100.5864                   22709099.4064
 -29393595.51548 -22875281.53046  21342095.4144                   21342092.8244
 -30726991.07948 -23913621.97947  20324250.2584                   20324247.7424
 -14383884.70948 -11194387.47546  21611033.2974                   21611031.2304
 -42333655.66748 -32956087.41246  21554943.7034                   21554939.2384
 -15675208.77848 -12199859.15746  21573416.1334                   21573416.6804
 11  8 20  2 12  0.0000000  0  8G26G10G29G12G05G30G02G25
   8008185.08346   6251778.05143  23776750.9774                   23776749.9104
 -26768975.04347 -20830645.70643  23429821.0704                   23429818.4924
  -1335987.38047  -1028767.43745  22680420.0004                   22680418.2114
 -29404028.09748 -22883410.83046  21340110.3204                   21340107.7074
 -30773429.22848 -23949807.53747  20315413.2974                   20315411.0004
 -14440134.55748 -11238218.54046  21600329.5474                   21600327.2424
 -42364593.49948 -32980194.80046  21549056.1334                   21549051.2704
 -15748399.77848 -12256891.10146  21559488.2504                   21559488.2034
 11  8 20  2 12 30.0000000  0  8G26G10G29G12G05G30G02G25
   7844823.72246   6124483.56144  23745663.8054                   23745663.3954
 -26734270.31846 -20803603.04744  23436424.0004                   23436423.2234
  -1486660.76447  -1146175.22145  22651747.5554                   22651746.6804
 -29414025.61348 -22891201.10146  21338207.6414                   21338205.2664
 -30819354.93648 -23985593.78847  20306673.9844                   20306670.9494
 -14495815.18148 -11281606.04846  21589733.7734                   21589731.7504
 -42395460.34548 -33004246.85946  21543182.3754                   21543177.8284
 -15821027.73748 -12313484.30246  21545667.9844                   21545667.7154
 11  8 20  2 13  0.0000000  0  8G26G10G29G12G05G30G02G25
   7681490.84446   5997211.28744  23714583.3524                   23714582.4694
 -26699401.83146 -20776432.81943  23443059.7504                   23443058.5634
  -1637284.14847  -1263544.04745  22623084.7424                   22623083.8244
 -29423587.75647 -22898652.12146  21336387.8594                   21336385.7114
 -30864766.58448 -24020979.46747  20298032.4924                   20298029.6024
 -14550924.83748 -11324548.64945  21579246.5084                   21579244.4144
 -42426253.58748 -33028241.58846  21537322.3284                   21537317.5984
 -15893089.96348 -12369636.68646  21531954.8834                   21531955.3094
 11  8 20  2 13 30.0000000  0  8G26G10G29G12G05G30G02G25
   7518188.14646   5869962.51144  23683507.5554                   23683506.8404
 -26664373.60546 -20749138.08643  23449724.8674                   23449723.9064
  -1787857.36547  -1380873.79545  22594431.5234                   22594429.8324
 -29432718.47447 -22905766.97246  21334650.3364                   21334648.0044
 -30909667.17448 -24055966.92147  20289488.0634                   20289485.6954
 -14605466.20548 -11367048.40646  21568867.8524                   21568865.8014
 -42456975.47448 -33052180.69646  21531476.2034                   21531471.9774
 -15964588.32748 -12425349.68646  21518349.1644                   21518349.1804
 11  8 20  2 14  0.0000000  0  8G26G10G29G12G05G30G02G25
   7354920.12846   5742740.80344  23652438.3444                   23652437.2664
 -26629187.58146 -20721720.37543  23456420.8134                   23456419.1414
  -1938377.76547  -1498162.34445  22565788.5474                   22565787.4804
 -29441419.21748 -22912546.78746  21332994.5164                   21332991.9024
 -30954057.17848 -24090556.52847  20281040.6414                   20281038.4694
 -14659439.36148 -11409105.41846  21558596.9844                   21558595.2544
 -42487624.37748 -33076062.93146  21525644.1804                   21525639.3594
 -16035522.03648 -12480622.69146  21504850.6334                   21504850.9924
 11  8 20  2 14 30.0000000  0  8G26G10G29G12G05G30G02G25
   7191690.83746   5615549.24744  23621376.8364                   23621376.0274
 -26593846.22147 -20694181.69444  23463146.9454                   23463145.1094
  -2088843.11447  -1615408.00645  22537155.9924                   22537154.3284
 -29449691.68247 -22918992.85846  21331420.1334                   21331418.1844
 -30997937.48448 -24124748.95747  20272690.7424                   20272688.4534
 -14712845.16548 -11450720.33646  21548434.1334                   21548432.2814
 -42518200.51748 -33099888.48146  21519825.4614                   21519821.2034
 -16105891.04347 -12535455.67346  21491459.9384                   21491460.4184
 11  8 20  2 15  0.0000000  0  9G26G10G29G15G12G05G30G02G25
   7028502.98646   5488390.01544  23590322.6644                   23590322.3954
 -26558352.71447 -20666524.37744  23469900.8364                   23469899.0904
  -2239251.83047  -1732609.56745  22508534.1174                   22508532.4534
  17097133.84555  13335069.30653  24495682.1024                   24495681.9024
 -29457539.14947 -22925107.76746  21329927.2194                   21329924.7934
 -31041310.39748 -24158546.01147  20264437.6414                   20264434.4384
 -14765685.29748 -11491894.46345  21538379.3204                   21538377.6844
 -42548704.28748 -33123657.64146  21514020.7274                   21514016.5594
 -16175696.14648 -12589849.25646  21478176.5704                   21478177.0164
 11  8 20  2 15 30.0000000  0  9G26G10G29G15G12G05G30G02G25
   6865354.02546   5361261.03544  23559276.5314                   23559275.1134
 -26522715.91146 -20638755.47543  23476681.7034                   23476680.5904
  -2389608.50947  -1849770.54845  22479922.3984                   22479920.3014
  16935456.28845  13209086.98442  24464914.6484                   24464915.5514
 -29464969.97547 -22930898.02446  21328513.2114                   21328511.2544
 -31084183.77348 -24191953.81347  20256278.3674                   20256275.8834
 -14817967.13948 -11532633.57346  21528429.8524                   21528427.9104
 -42579142.12848 -33147375.42246  21508228.8284                   21508224.5904
 -16244943.82048 -12643808.48546  21464999.2034                   21464999.4224
 11  8 20  2 16  0.0000000  0  9G26G10G29G15G12G05G30G02G25
   6702245.79546   5234163.82844  23528237.8674                   23528236.7584
 -26486939.84547 -20610877.96043  23483489.6644                   23483488.1884
  -2539912.67647  -1966890.60145  22451320.3754                   22451318.1884
  16773627.93045  13082987.14142  24434119.5314                   24434119.0394
 -29471988.27847 -22936366.83046  21327177.2274                   21327175.3244
 -31126560.68948 -24224974.77147  20248214.5554                   20248212.1024
 -14869693.54948 -11572939.86746  21518586.7894                   21518585.0984
 -42609516.01948 -33171043.37546  21502448.7504                   21502444.5044
 -16313636.04848 -12697334.86446  21451927.2504                   21451927.1174
 11  8 20  2 16 30.0000000  0  9G26G10G29G15G12G05G30G02G25
   8114612.31546   6334709.24443  23797002.4144                   23797000.9774
 -24875603.34246 -19355291.13443  23790117.2974                   23790115.7734
  -1114732.22447   -856360.31445  22722523.0634                   22722521.6684
  18187082.48246  14184380.41143  24703091.5314                   24703090.5514
 -27903171.17647 -21713911.94546  21625713.2274                   21625711.2974
 -29593016.08248 -23030004.93747  20540038.2664                   20540035.3984
 -13345438.93748 -10385209.02046  21808643.0234                   21808640.7774
 -41064399.77448 -31967056.66746  21796474.5084                   21796470.1414
 -14806345.78547 -11522822.96246  21738754.9844                   21738755.0984
 11  8 20  2 17  0.0000000  0  9G26G10G29G15G12G05G30G02G25
   7951609.76047   6207694.36244  23765984.2584                   23765983.5394
 -24839543.17746 -19327192.32943  23796979.8674                   23796977.2114
  -1264912.06447   -973383.49445  22693945.0164                   22693942.5864
  18024974.85946  14058063.06743  24672243.5704                   24672242.7624
 -27909357.87647 -21718732.75346  21624536.2814                   21624534.3244
 -29634390.54548 -23062244.74647  20532164.9454                   20532162.7074
 -13396044.31648 -10424641.77345  21799012.8594                   21799010.8094
 -41094631.92248 -31990614.15846  21790721.4064                   21790717.2234
 -14873914.35247 -11575473.77446  21725897.4304                   21725897.1604
 11  8 20  2 17 30.0000000  0  9G26G10G29G15G12G05G30G02G25
   7788668.13147   6080727.00544  23734976.5394                   23734975.8754
 -24803342.25646 -19298983.80643  23803867.9694                   23803866.6914
  -1415024.15947  -1090353.88045  22665379.4384                   22665377.4924
  17862733.94046  13931641.79443  24641370.7114                   24641370.3244
 -27915129.71547 -21723230.28846  21623437.6254                   21623435.6524
 -29675263.52848 -23094093.79447  20524387.2424                   20524384.3524
 -13446088.38848 -10463637.14746  21789490.1094                   21789488.0864
 -41124790.96048 -32014114.68846  21784982.6174                   21784978.0824
 -14940919.06947 -11627685.20646  21713146.6564                   21713146.4964
 11  8 20  2 18  0.0000000  0  9G26G10G29G15G12G05G30G02G25
   7625792.49847   5953810.94844  23703982.4774                   23703981.7034
 -24767001.72947 -19270666.49744  23810783.4614                   23810781.7194
  -1565065.06447  -1207268.80145  22636827.5314                   22636825.8404
  17700363.92046  13805119.84744  24610471.2344                   24610471.5004
 -27920487.59447 -21727405.25746  21622418.2344                   21622416.4104
 -29715635.04148 -23125552.09047  20516704.7274                   20516702.1994
 -13495570.88748 -10502194.93246  21780073.7894                   21780071.4734
 -41154875.01548 -32037556.80646  21779257.7504                   21779253.7304
 -15007358.68448 -11679456.30946  21700503.5704                   21700503.3364
 11  8 20  2 18 30.0000000  0  9G26G10G29G15G12G05G30G02G25
   7462983.95047   5826947.26644  23673001.1094                   23673000.2504
 -24730526.71647 -19242244.43244  23817724.7504                   23817722.6414
  -1715035.30047  -1324128.64345  22608288.7194                   22608286.8014
  17537864.83247  13678497.43944  24579549.1644                   24579548.3554
 -27925436.65447 -21731261.65946  21621476.2664                   21621474.1884
 -29755509.33548 -23156622.95047  20509116.8984                   20509114.0744
 -13544495.73148 -10540318.17546  21770763.4614                   21770761.7504
 -41184887.15848 -32060942.87146  21773546.5784                   21773542.4844
 -15073236.26748 -11730789.47146  21687967.3984                   21687967.4734
 11  8 20  2 19  0.0000000  0  9G26G10G29G15G12G05G30G02G25
   7300246.74147   5700139.12444  23642033.1174                   23642032.0354
 -24693918.84647 -19213718.83343  23824690.2894                   23824688.9224
  -1864932.06147  -1440931.23745  22579764.5864                   22579762.5274
  17375240.26946  13551777.21743  24548602.8134                   24548602.6294
 -27929978.25847 -21734800.58546  21620612.2814                   21620609.4614
 -29794887.00248 -23187306.82547  20501623.8594                   20501620.5234
 -13592863.35348 -10578007.21246  21761559.3984                   21761557.6254
 -41214826.19348 -32084271.97646  21767849.5554                   21767845.2274
 -15138551.39148 -11781684.33946  21675538.4534                   21675538.4344
 11  8 20  2 19 30.0000000  0  9G26G10G29G15G12G05G30G02G25
   7137584.20347   5573389.20544  23611079.4454                   23611078.9264
 -24657181.22147 -19185092.13943  23831681.4454                   23831680.2894
  -2014753.65447  -1557675.27145  22551254.2974                   22551252.7424
  17212492.45546  13424960.91943  24517632.1644                   24517632.1914
 -27934115.18148 -21738024.16246  21619825.0164                   21619822.4574
 -29833769.88048 -23217605.14047  20494224.1644                   20494221.3094
 -13640675.44348 -10615263.36546  21752461.4384                   21752459.6254
 -41244692.44248 -32107544.37046  21762165.9694                   21762161.5944
 -15203304.87048 -11832141.57446  21663215.9454                   21663216.0904
 11  8 20  2 20  0.0000000  0  9G26G10G29G15G12G05G30G02G25
   6974998.73347   5446699.32544  23580140.3984                   23580139.7304
 -24620317.93047 -19156367.48843  23838696.3204                   23838694.5864
  -2164499.46947  -1674360.26045  22522758.8984                   22522756.8244
  17049622.68046  13298049.69343  24486639.1724                   24486639.0864
 -27937851.57748 -21740935.65146  21619114.0554                   21619111.7154
 -29872161.11348 -23247520.35447  20486918.8524                   20486916.1024
 -13687934.73548 -10652088.77246  21743468.1644                   21743466.1844
 -41274487.35148 -32130761.17746  21756495.9144                   21756491.7664
 -15267498.57348 -11882162.62146  21651000.6564                   21651000.6024
 11  8 20  2 20 30.0000000  0  9G26G10G29G15G12G05G30G02G25
   6812498.35247   5320075.75744  23549218.0394                   23549216.6604
 -24583326.72446 -19127543.12843  23845735.7194                   23845733.8284
  -2314163.03747  -1790981.15745  22494278.0004                   22494275.9844
  16886637.99346  13171048.75943  24455623.6024                   24455623.0204
 -27941185.21548 -21743533.29346  21618479.8054                   21618476.9414
 -29910057.84548 -23277050.25547  20479707.3594                   20479704.2424
 -13734638.14548 -10688481.00945  21734580.7894                   21734579.0864
 -41304206.49548 -32153918.93746  21750841.0864                   21750836.2624
 -15331128.55648 -11931744.41046  21638892.3444                   21638892.2344
 11  8 20  2 21  0.0000000  0  9G26G10G29G15G12G05G30G02G25
   6650085.35447   5193520.25544  23518310.9694                   23518310.6954
 -24546211.20247 -19098621.97143  23852797.7344                   23852796.3984
  -2463743.66747  -1907537.44745  22465814.2194                   22465812.2544
  16723539.85146  13043959.50043  24424587.3284                   24424586.7114
 -27944120.09248 -21745820.20346  21617921.3984                   21617918.9844
 -29947463.27848 -23306197.32547  20472589.1094                   20472586.4844
 -13780788.41548 -10724442.23846  21725798.4774                   21725797.0634
 -41333851.47848 -32177018.89746  21745199.1484                   21745195.5824
 -15394196.66248 -11980888.36146  21626890.8524                   21626890.5904
 11  8 20  2 21 30.0000000  0  9G26G10G29G15G12G05G30G02G25
   6487759.62947   5067032.74344  23487421.6174                   23487420.7934
 -24508977.72546 -19069608.87743  23859883.8364                   23859881.7424
  -2613243.13448  -2024030.48245  22437365.5394                   22437364.0354
  16560327.00346  12916780.88344  24393529.0944                   24393529.0084
 -27946662.26548 -21747801.13446  21617437.3754                   21617435.3244
 -29984382.61848 -23334965.62147  20465563.6254                   20465560.6334
 -13826390.70448 -10759976.46945  21717120.5704                   21717118.8594
 -41363425.59748 -32200063.65546  21739571.5554                   21739567.5084
 -15456707.22348 -12029597.86746  21614995.2034                   21614995.3984
 11  8 20  2 22  0.0000000  0  9G26G10G29G15G12G05G30G02G25
   6325527.50647   4940618.19544  23456549.7344                   23456549.2814
 -24471626.35346 -19040503.89243  23866990.9774                   23866988.8404
  -2762656.72347  -2140456.59945  22408932.6884                   22408930.5744
  16397004.94646  12789517.07944  24362449.3914                   24362449.7774
 -27948811.67848 -21749476.00546  21617028.6334                   21617025.8954
 -30020814.76348 -23363354.28347  20458630.4144                   20458627.5164
 -13871443.85748 -10795082.80445  21708547.3054                   21708545.7894
 -41392926.38948 -32223051.27746  21733958.1174                   21733954.0594
 -15518658.19548 -12077871.33446  21603206.3834                   21603206.6254
 11  8 20  2 22 30.0000000  0  9G26G10G29G15G12G05G30G02G25
   6163388.53446   4814276.22444  23425695.6564                   23425695.1994
 -24434163.86047 -19011312.31743  23874120.3204                   23874117.4654
  -2911986.30047  -2256817.27045  22380516.5474                   22380514.7814
  16233572.18146  12662167.00744  24331349.4614                   24331348.9414
 -27950575.01047 -21750850.03746  21616692.6334                   21616690.5234
 -30056765.63348 -23391367.92947  20451789.5784                   20451786.8524
 -13915953.58648 -10829765.68545  21700077.1954                   21700075.5984
 -41422358.04647 -32245985.03746  21728357.3914                   21728353.0744
 -15580054.40948 -12125712.53146  21591523.0634                   21591522.9384
 11  8 20  2 23  0.0000000  0  9G26G10G29G15G12G05G30G02G25
   6001349.20247   4688011.89644  23394860.6884                   23394860.2704
 -24396589.89346 -18982033.86843  23881270.1334                   23881267.0984
  -3061226.87047  -2373108.58546  22352116.9924                   22352115.1094
  16070034.59346  12534735.25944  24300228.8754                   24300229.0514
 -27951951.85947 -21751922.90646  21616431.2584                   21616429.0004
 -30092234.11648 -23419005.68547  20445040.2814                   20445037.1024
 -13959918.32648 -10864023.89445  21691711.1884                   21691708.9694
 -41451717.56447 -32268862.58845  21722770.4384                   21722765.9924
 -15640893.54447 -12173119.62846  21579945.6724                   21579945.3984
 11  8 20  2 23 30.0000000  0  9G26G10G29G15G12G05G30G02G25
   5839413.12047   4561828.02444  23364045.7504                   23364044.3794
 -24358906.80146 -18952670.44743  23888441.8364                   23888439.8054
  -3210376.74447  -2489329.23845  22323734.7664                   22323732.4534
  15906394.37046  12407223.54544  24269088.8914                   24269088.3164
 -27952945.14147 -21752696.90446  21616242.0944                   21616239.8444
 -30127222.08248 -23446269.01247  20438382.4384                   20438379.4844
 -14003339.85948 -10897858.83546  21683448.1954                   21683446.3094
 -41481004.93047 -32291683.88746  21717197.3914                   21717192.9304
 -15701176.29147 -12220093.19646  21568474.1804                   21568474.4344
 11  8 20  2 24  0.0000000  0  9G26G10G29G15G12G05G30G02G25
   5677586.14847   4435729.15244  23333250.7584                   23333249.6684
 -24321114.73646 -18923222.10443  23895632.9304                   23895631.7034
  -3359431.51847  -2605475.77545  22295369.9384                   22295368.5434
  15742656.87046  12279636.00343  24237930.8134                   24237930.3244
 -27953554.62547 -21753171.83846  21616125.6954                   21616123.0434
 -30161728.89348 -23473157.42347  20431815.6644                   20431812.7464
 -14046217.39247 -10931269.89145  21675288.8524                   21675286.8554
 -41510218.05947 -32314447.35745  21711638.1724                   21711634.1644
 -15760901.20748 -12266632.08946  21557109.3284                   21557109.2274
 11  8 20  2 24 30.0000000  0  9G26G10G29G15G12G05G30G02G25
   5515867.67447   4309714.84244  23302476.8444                   23302475.9804
 -24283220.73346 -18893694.37343  23902843.2814                   23902841.4064
  -3508393.66147  -2721550.15645  22267023.5004                   22267022.2544
  15578820.37846  12151971.39843  24206753.4384                   24206752.6914
 -27953787.74747 -21753353.49146  21616081.7114                   21616079.4494
 -30195760.47148 -23499675.52447  20425339.9614                   20425337.1804
 -14088556.84048 -10964261.66745  21667232.0864                   21667230.4104
 -41539361.28947 -32337156.35345  21706092.4144                   21706087.5554
 -15820073.36948 -12312740.26046  21545849.2504                   21545848.6334
 11  8 20  2 25  0.0000000  0  9G26G10G29G15G12G05G30G02G25
   5354264.16747   4183790.10844  23271724.0944                   23271723.2704
 -24245224.39746 -18864086.81443  23910073.8204                   23910071.9344
  -3657257.95947  -2837548.28345  22238695.3754                   22238693.9104
  15414890.21646  12024233.68143  24175558.9924                   24175557.5984
 -27953644.30147 -21753241.71746  21616108.9614                   21616106.5594
 -30229316.11748 -23525822.76047  20418954.5474                   20418951.8984
 -14130357.11148 -10996833.29046  21659277.8674                   21659275.8874
 -41568431.44647 -32359808.40146  21700560.4064                   21700555.8484
 -15878690.66148 -12358416.07246  21534694.5554                   21534694.5084
 11  8 20  2 25 30.0000000  0  9G26G10G29G15G12G05G30G02G25
   5192778.44647   4057957.15344  23240994.6174                   23240993.7154
 -24207129.29746 -18834402.33143  23917324.1804                   23917321.4144
  -3806023.19847  -2953469.21345  22210386.5634                   22210384.6644
  15250868.63646  11896424.78743  24144346.2424                   24144345.8324
 -27953127.47147 -21752839.02446  21616207.5784                   21616204.7934
 -30262398.36848 -23551601.12547  20412658.7424                   20412656.1994
 -14171620.58448 -11028986.63945  21651425.5784                   21651424.2344
 -41597429.46147 -32382404.25345  21695042.2194                   21695038.2034
 -15936754.69847 -12403660.76146  21523645.5234                   21523645.1414
 11  8 20  2 26  0.0000000  0  9G26G10G29G15G12G05G30G02G25
   5031410.72147   3932216.14544  23210286.8914                   23210285.5904
 -24168941.29547 -18804645.47844  23924591.1094                   23924589.7274
  -3954690.99247  -3069314.22045  22182096.2114                   22182094.5984
  15086754.95746  11768544.03843  24113117.3134                   24113114.9414
 -27952243.47847 -21752150.19146  21616375.7344                   21616372.9064
 -30295012.44548 -23577014.68347  20406452.5704                   20406449.6884
 -14212352.52448 -11060725.81345  21643674.4224                   21643672.5314
 -41626358.78247 -32404946.58446  21689536.8134                   21689533.4884
 -15994269.86848 -12448477.76946  21512700.4774                   21512700.3444
 11  8 20  2 26 30.0000000  0  9G26G10G29G15G12G05G30G02G25
   4870165.71047   3806570.77944  23179603.0944                   23179602.2154
 -24130661.47147 -18774817.05544  23931875.6644                   23931873.7424
  -4103257.91447  -3185080.61245  22153825.0864                   22153822.8834
  14922552.93746  11640594.50643  24081869.6644                   24081868.3834
 -27950993.71847 -21751176.36046  21616613.2344                   21616611.0554
 -30327159.32648 -23602064.17947  20400335.2424                   20400332.6684
 -14252553.45547 -11092051.20045  21636024.6254                   21636022.6294
 -41655218.25847 -32427434.49946  21684045.3134                   21684041.0904
 -16051235.88948 -12492866.88346  21501860.2114                   21501859.9574
 11  8 20  2 27  0.0000000  0  9G26G10G29G15G12G05G30G02G25
   4709048.61646   3681025.04044  23148942.6644                   23148942.8444
 -24092291.12347 -18744918.09744  23939176.6334                   23939175.0164
  -4251720.31147  -3300765.55245  22125573.2584                   22125571.2974
  14758266.59346  11512579.33543  24050606.7034                   24050605.7624
 -27949379.66647 -21749918.66846  21616920.2664                   21616917.9694
 -30358839.26048 -23626749.83847  20394306.5474                   20394304.2234
 -14292223.72047 -11122963.09345  21628475.5234                   21628473.3634
 -41684006.44047 -32449866.85546  21678567.3594                   21678562.8754
 -16107652.20648 -12536827.65246  21491124.3054                   21491124.5634
 11  8 20  2 27 30.0000000  0  9G26G10G29G15G12G05G30G02G25
   4548063.38846   3555582.09944  23118308.9614                   23118308.7624
 -24053832.35847 -18714950.23043  23946494.9454                   23946493.2624
  -4400075.89747  -3416367.27545  22097342.6564                   22097339.6174
  14593899.03646  11384500.87843  24019328.6884                   24019327.8874
 -27947403.52547 -21748378.83946  21617296.5004                   21617293.8244
 -30390053.79748 -23651072.82247  20388366.8134                   20388363.6644
 -14331364.71547 -11153462.55645  21621026.7664                   21621024.8554
 -41712723.14147 -32472243.49645  21673102.6484                   21673097.9264
 -16163519.48248 -12580360.59646  21480493.5004                   21480493.4734
 11  8 20  2 28  0.0000000  0  9G26G10G29G15G12G05G30G02G25
   5962640.27247   4657849.86944  23387493.9384                   23387492.4654
 -22439867.69147 -17457315.42743  24253622.7274                   24253620.4104
  -2972896.56747  -2304279.42245  22368925.2664                   22368923.6294
  16004879.44346  12483966.31044  24287829.1414                   24287828.1214
 -26369646.95247 -20518958.14846  21917533.6724                   21917531.6454
 -28845382.91048 -22447433.15747  20682307.7424                   20682305.0354
 -12794555.89048  -9955949.18245  21913472.5704                   21913470.6024
 -40165946.02647 -31266962.62145  21967444.5944                   21967439.7664
 -14643415.63148 -11395864.09546  21769759.5004                   21769759.4694
 11  8 20  2 28 30.0000000  0  9G26G10G29G15G12G05G30G02G25
   5801928.96046   4532620.36144  23356912.0394                   23356910.4844
 -22401240.24147 -17427216.06143  24260973.0164                   24260971.2544
  -3121033.31947  -2419710.59545  22340735.2734                   22340733.5514
  15840357.02046  12355767.16844  24256520.6724                   24256520.8594
 -26366955.59647 -20516860.99446  21918045.8984                   21918043.2194
 -28875673.40247 -22471036.11747  20676543.8284                   20676540.7234
 -12832644.65247  -9985628.74445  21906224.3054                   21906222.6804
 -40194520.03147 -31289228.07645  21962006.9224                   21962002.3634
 -14698188.40848 -11438544.17346  21759336.3204                   21759336.3554
 11  8 20  2 29  0.0000000  0  9G26G10G29G15G12G05G30G02G25
   5641358.47446   4407500.58444  23326356.0004                   23326354.8634
 -22362533.91146 -17397055.26843  24268338.3364                   24268335.2034
  -3269058.82247  -2535055.07645  22312566.9224                   22312565.1134
  15675759.71347  12227509.65144  24225200.0704                   24225199.3444
 -26363912.47847 -20514489.74546  21918624.9064                   21918622.3094
 -28905506.16248 -22494282.41846  20670866.7194                   20670863.6024
 -12870211.65147 -10014901.72345  21899075.2734                   21899073.9024
 -40223024.04147 -31311439.01045  21956583.0314                   21956578.1684
 -14752417.08448 -11480800.28446  21749017.3524                   21749017.2774
 11  8 20  2 29 30.0000000  0  9G26G10G29G15G12G05G30G02G25
   5480932.42347   4282493.33644  23295828.2584                   23295826.6094
 -22323751.71646 -17366835.39743  24275718.9384                   24275715.7774
  -3416971.45547  -2650311.60345  22284420.1564                   22284418.6524
  15511089.81547  12099195.54344  24193864.7034                   24193862.1954
 -26360520.49747 -20511846.66546  21919270.2344                   21919267.6374
 -28934883.43148 -22517173.75747  20665276.4924                   20665273.6214
 -12907259.04348 -10043769.82545  21892025.5944                   21892023.6724
 -40251458.52347 -31333595.74645  21951172.2274                   21951167.3594
 -14806102.88248 -11522633.38246  21738801.2274                   21738801.1604
 11  8 20  2 30  0.0000000  0  9G26G10G29G15G12G05G30G02G25
   5320658.19447   4157604.42244  23265328.7894                   23265327.6764
 -22284891.48346 -17336554.61943  24283113.5004                   24283111.6214
  -3564764.85047  -2765475.21045  22256296.3054                   22256294.2894
  15346354.48147  11970830.40743  24162516.2274                   24162513.6454
 -26356778.38547 -20508930.74346  21919982.6564                   21919980.0944
 -28963803.52248 -22539708.88147  20659773.1804                   20659769.9104
 -12943784.56847 -10072231.27545  21885074.6564                   21885073.3164
 -40279819.31047 -31355695.06145  21945775.5314                   21945770.8094
 -14859242.88548 -11564041.17546  21728688.9774                   21728689.1724
 11  8 20  2 30 30.0000000  0  9G26G10G29G15G12G05G30G02G25
   5160536.57646   4032834.39144  23234857.4614                   23234857.3524
 -22245958.59646 -17306217.31642  24290521.7814                   24290519.1024
  -3712440.19747  -2880546.84546  22228194.3364                   22228192.7154
  15181553.41247  11842413.98043  24131155.2034                   24131152.5044
 -26352691.80547 -20505746.41246  21920759.7274                   21920757.4804
 -28992271.00848 -22561891.30946  20654356.0554                   20654353.6914
 -12979793.29847 -10100290.04145  21878222.6724                   21878220.8714
 -40308109.42648 -31377739.30045  21940391.6644                   21940387.4184
 -14911841.22348 -11605026.89246  21718679.8754                   21718679.6684
 11  8 20  2 31  0.0000000  0  9G26G10G29G15G12G05G30G02G25
   5000572.85146   3908187.40144  23204418.3284                   23204417.1844
 -22206954.27245 -17275824.36742  24297943.6724                   24297942.0354
  -3859993.84347  -2995523.63945  22200115.8754                   22200114.2504
  15016690.68246  11713949.59443  24099782.7974                   24099781.0314
 -26348262.14847 -20502294.74946  21921603.2814                   21921600.5354
 -29020286.73148 -22583721.73446  20649024.8674                   20649022.1334
 -13015285.60248 -10127946.37845  21871469.2034                   21871467.0354
 -40336327.10648 -31399727.10445  21935021.8594                   21935017.1724
 -14963897.44148 -11645590.19446  21708773.8594                   21708773.9574
 11  8 20  2 31 30.0000000  0  9G26G10G29G15G12G05G30G02G25
   4840769.41447   3783665.33944  23174008.5314                   23174007.3164
 -22167882.31146 -17245378.73842  24305379.2504                   24305376.6804
  -4007424.62747  -3110404.69445  22172060.4694                   22172058.5984
  14851767.92746  11585438.47843  24068398.6334                   24068398.2074
 -26343493.39948 -20498578.83846  21922510.4384                   21922508.1604
 -29047853.59248 -22605202.39447  20643779.4224                   20643776.2664
 -13050264.59948 -10155202.73645  21864812.3134                   21864810.8914
 -40364473.59547 -31421659.42945  21929666.3364                   21929661.8054
 -15015413.83648 -11685732.83746  21698970.4304                   21698970.7974
 11  8 20  2 32  0.0000000  0  9G26G10G29G15G12G05G30G02G25
   4681130.96647   3659271.80844  23143630.7814                   23143629.4804
 -22128743.86046 -17214881.28543  24312826.5394                   24312825.4224
  -4154729.42947  -3225187.60546  22144029.5554                   22144027.5394
  14686789.21946  11456883.83743  24037003.2344                   24037003.5084
 -26338387.33047 -20494600.09346  21923482.2584                   21923479.8914
 -29074972.88048 -22626334.28746  20638618.4384                   20638615.3914
 -13084731.28548 -10182059.90245  21858253.3204                   21858251.8054
 -40392547.77947 -31443535.40445  21924323.5704                   21924318.6094
 -15066390.60048 -11725455.00246  21689270.1024                   21689270.0634
 11  8 20  2 32 30.0000000  0  9G26G10G29G15G12G05G30G02G25
   4521662.77147   3535010.94744  23113285.2504                   23113283.5044
 -22089539.73646 -17184332.57243  24320287.5004                   24320285.4264
  -4301904.73547  -3339869.59446  22116022.9534                   22116020.9344
  14521758.75446  11328288.79344  24005599.5944                   24005599.3284
 -26332944.96248 -20490359.30146  21924517.6484                   21924515.8284
 -29101645.10447 -22647117.83846  20633542.5084                   20633539.6604
 -13118686.20747 -10208518.29545  21851792.6414                   21851790.4064
 -40420547.96747 -31465353.72245  21918995.1174                   21918990.8984
 -15116827.51248 -11764756.49346  21679672.4454                   21679672.1294
 11  8 20  2 33  0.0000000  0  9G26G10G29G15G12G05G30G02G25
   4362366.14047   3410883.78844  23082972.0004                   23082970.4734
 -22050274.69246 -17153736.44143  24327759.1884                   24327756.9574
  -4448950.61947  -3454450.74345  22088040.7664                   22088038.5554
  14356677.27047  11199653.97445  23974186.8204                   23974185.5554
 -26327171.71048 -20485860.68246  21925616.7664                   21925614.2774
 -29127874.23948 -22667556.11146  20628551.8204                   20628548.5594
 -13152133.60448 -10234581.20745  21845427.4534                   21845425.5824
 -40448476.48447 -31487116.18145  21913681.0554                   21913676.3524
 -15166727.93948 -11803639.93746  21670176.4304                   21670176.4384
 11  8 20  2 33 30.0000000  0  9G26G10G29G15G12G05G30G02G25
   4203242.88447   3286891.70944  23052691.8134                   23052690.0634
 -22010953.28046 -17123096.30243  24335242.0164                   24335239.8484
  -4595866.68247  -3568930.73945  22060083.3594                   22060081.4344
  14191545.39447  11070979.90044  23942762.9384                   23942761.8834
 -26321072.37948 -20481107.95846  21926777.0234                   21926775.0554
 -29153664.41348 -22687652.33846  20623644.0554                   20623640.7584
 -13185077.49248 -10260251.76845  21839158.4454                   21839155.8594
 -40476335.03447 -31508824.12445  21908379.6254                   21908374.5784
 -15216095.12448 -11842107.88546  21660782.3444                   21660782.0904
 11  8 20  2 34  0.0000000  0  9G26G10G29G15G12G05G30G02G25
   4044299.71147   3163039.97344  23022445.4144                   23022443.6174
 -21971574.77846 -17092411.72543  24342735.9224                   24342733.8484
  -4742648.07747  -3683305.80146  22032152.5784                   22032150.1954
  14026368.92647  10942271.04044  23911330.4224                   23911330.0314
 -26314646.43748 -20476100.74046  21927999.9064                   21927997.9264
 -29179015.19748 -22707406.18346  20618819.6414                   20618816.6844
 -13217517.02648 -10285529.32545  21832985.0474                   21832983.7304
 -40504120.58947 -31530475.17045  21903091.8204                   21903087.2384
 -15264927.41948 -11880159.00946  21651489.8284                   21651489.7114
 11  8 20  2 34 30.0000000  0  9G26G10G29G15G12G05G30G02G25
   3885540.23947   3039331.38244  22992234.3834                   22992233.3524
 -21932141.74046 -17061684.72143  24350239.5234                   24350237.7544
  -4889292.60047  -3797574.21646  22004246.6334                   22004244.5124
  13861150.65046  10813529.65843  23879890.2814                   23879889.0824
 -26307897.39347 -20470841.76246  21929284.1884                   21929281.8794
 -29203928.36848 -22726819.04446  20614078.5634                   20614075.6954
 -13249454.43347 -10310415.61745  21826907.8674                   21826905.7234
 -40531833.18447 -31552069.38645  21897818.4774                   21897813.7074
 -15313226.21148 -11917794.44446  21642298.8284                   21642298.9924
 11  8 20  2 35  0.0000000  0  9G26G10G29G15G12G05G30G02G25
   3726968.86547   2915769.34544  22962058.9224                   22962057.4454
 -21892655.63647 -17030916.27744  24357753.6334                   24357752.7344
  -5035797.31747  -3911733.69646  21976367.5164                   21976365.9454
  13695893.96046  10684758.34043  23848441.7114                   23848440.9024
 -26300826.99248 -20465332.36546  21930629.8284                   21930627.5164
 -29228405.23848 -22745891.92046  20609421.0554                   20609418.0664
 -13280890.96948 -10334911.62245  21820925.8054                   21820924.0004
 -40559471.94247 -31573606.05845  21892558.7974                   21892554.6294
 -15360992.02248 -11955014.55546  21633209.4304                   21633209.0554
 11  8 20  2 35 30.0000000  0  9G26G10G29G15G12G05G30G02G25
   3568588.23447   2792355.93944  22931921.1094                   22931919.1844
 -21853120.07946 -17000109.38743  24365275.8134                   24365275.4694
  -5182160.83347  -4025783.15446  21948515.6804                   21948513.7734
  13530601.01246  10555958.72043  23816988.2114                   23816986.7464
 -26293439.08947 -20459575.57646  21932035.7894                   21932033.0634
 -29252448.92248 -22764627.24846  20604845.3594                   20604842.5634
 -13311829.67648 -10359019.72045  21815038.0704                   21815036.5664
 -40587037.79147 -31595085.90945  21887313.2894                   21887309.1414
 -15408227.04248 -11991821.06246  21624220.7424                   21624220.6214
 11  8 20  2 36  0.0000000  0  9G26G10G29G15G12G05G30G02G25
   3410402.44747   2669094.36844  22901818.4774                   22901816.8204
 -21813536.86046 -16969265.27243  24372809.3834                   24372808.0394
  -5328380.87647  -4139720.80446  21920690.6564                   21920688.6214
  13365275.06546  10427133.46144  23785527.6724                   23785525.7934
 -26285736.51247 -20453573.56846  21933501.6724                   21933499.5004
 -29276061.42448 -22783026.58546  20600352.0474                   20600349.5784
 -13342272.62148 -10382741.47245  21809245.2424                   21809242.7194
 -40614530.20547 -31616508.55245  21882081.7504                   21882077.2274
 -15454932.55448 -12028214.96146  21615332.8054                   21615333.0704
 11  8 20  2 36 30.0000000  0  9G26G10G29G15G12G05G30G02G25
   3252414.41747   2545986.88044  22871754.2344                   22871752.9384
 -21773908.94946 -16938386.32443  24380349.3594                   24380348.1684
  -5474455.76447  -4253545.35446  21892894.1024                   21892891.8404
  13199918.07747  10298283.92944  23754061.6094                   23754060.0704
 -26277722.52247 -20447328.91546  21935026.0394                   21935024.0394
 -29299245.39548 -22801092.01246  20595940.6954                   20595937.9304
 -13372222.41748 -10406078.97345  21803545.7424                   21803544.0004
 -40641949.56247 -31637874.26345  21876864.2034                   21876859.3444
 -15501110.47948 -12064197.73946  21606545.5784                   21606545.6844
 11  8 20  2 37  0.0000000  0  9G26G10G29G15G12G05G30G02G25
   3094629.03347   2423037.29444  22841728.4924                   22841727.1214
 -21734237.83946 -16907473.77143  24387899.2814                   24387896.7034
  -5620382.61047  -4367254.54746  21865124.4844                   21865122.4414
  13034533.81447  10169413.22944  23722590.4844                   23722589.2774
 -26269399.20647 -20440843.23146  21936610.3054                   21936607.8164
 -29322002.16148 -22818824.54146  20591609.9924                   20591607.0434
 -13401680.62748 -10429033.42245  21797940.5314                   21797938.5124
 -40669295.04247 -31659182.40045  21871660.5234                   21871654.9734
 -15546761.48148 -12099769.94846  21597858.4614                   21597858.5594
 11  8 20  2 37 30.0000000  0  9G26G10G29G15G12G05G30G02G25
   2937051.16547   2300249.37944  22811742.3754                   22811740.5664
 -21694524.35945 -16876528.14842  24395456.1254                   24395454.3834
  -5766157.60047  -4480845.39746  21837384.3134                   21837382.3164
  12869126.88547  10040524.84144  23691113.8914                   23691112.2034
 -26260767.79047 -20434117.45045  21938252.4924                   21938250.6454
 -29344332.35648 -22836224.68946  20587360.4924                   20587358.1054
 -13430647.75148 -10451605.21645  21792428.3134                   21792426.3014
 -40696564.96547 -31680431.65445  21866470.7814                   21866466.3014
 -15591885.33148 -12134931.38746  21589271.7344                   21589271.3594
 11  8 20  2 38  0.0000000  0  9G26G10G29G15G12G05G30G02G25
   2779679.49347   2177622.17544  22781795.8834                   22781793.6954
 -21654775.88045 -16845555.35942  24403020.0634                   24403019.0704
  -5911783.76147  -4594320.28746  21809672.5164                   21809670.4304
  12703694.93447   9911616.97044  23659632.9534                   23659631.3914
 -26251836.41247 -20427157.93145  21939952.0004                   21939950.0394
 -29366243.25348 -22853298.09346  20583191.0394                   20583188.4384
 -13459131.33548 -10473800.19845  21787007.8524                   21787006.0594
 -40723764.39247 -31701625.97745  21861294.9224                   21861290.2154
 -15636488.78048 -12169687.31246  21580784.0704                   21580784.0704
 11  8 20  2 38 30.0000000  0 10G26G10G29G15G12G05G30G02G25G21
   2622520.86647   2055160.97744  22751889.5234                   22751886.8524
 -21614991.86645 -16814554.82442  24410591.2734                   24410588.7464
  -6057255.66647  -4707674.96946  21781990.5394                   21781988.0594
  12538243.77247   9782694.11044  23628149.2424                   23628147.2624
 -26242605.15347 -20419964.74245  21941709.0314                   21941706.5204
 -29387734.06348 -22870044.17846  20579101.6954                   20579098.7274
 -13487130.55048 -10495617.76445  21781679.4774                   21781678.2344
 -40750890.09647 -31722762.87145  21856132.9064                   21856128.5514
 -15680570.30048 -12204036.54846  21572395.4924                   21572395.1604
  20299949.11456  15827804.08453  25036796.8674                   25036795.1094
 11  8 20  2 39  0.0000000  0 10G26G10G29G15G12G05G30G02G25G21
   2465574.01647   1932864.78344  22722023.0554                   22722021.7464
 -21575179.32645 -16783532.00842  24418166.3834                   24418163.7734
  -6202576.05047  -4820911.59246  21754336.7194                   21754334.6524
  12372771.65947   9653754.95444  23596660.3674                   23596658.8674
 -26233081.45147 -20412543.67646  21943521.2734                   21943518.8244
 -29408811.85148 -22886468.41946  20575090.5784                   20575087.6564
 -13514652.44548 -10517063.39745  21776442.2814                   21776441.1134
 -40777946.35248 -31743845.64745  21850984.5554                   21850980.0474
 -15724136.09248 -12237983.91046  21564105.4304                   21564105.4774
  20174681.28246  15730192.89543  25012958.9224                   25012958.2424
 11  8 20  2 39 30.0000000  0 10G26G10G29G15G12G05G30G02G25G21
   3884266.15447   3038339.24544  22991991.4224                   22991989.4964
 -19959923.81646 -15524891.34943  24725540.0314                   24725536.9264
  -4772319.69247  -3706426.07246  22026505.6024                   22026503.6644
  13782704.94947  10752404.36244  23864962.0004                   23864959.6994
 -24647850.60948 -19177298.87145  22245180.7504                   22245178.1764
 -27854060.25248 -21674973.65146  20870950.1254                   20870947.5004
 -11966280.37447  -9310539.70145  22071087.5314                   22071086.2154
 -39229514.61547 -30537275.44845  22145641.0784                   22145637.2584
 -14191768.24248 -11043931.03846  21855705.1564   21855705.1174   21624829.54346
  16860178.60242                  25288912.9774                   25288911.3914
 11  8 20  2 40  0.0000000  0  9G26G29G15G12G05G30G02G25G21
   3727752.47547   2916380.58044  22962207.9224                   22962205.9694
  -4917331.74947  -3819422.43246  21998910.7194                   21998908.2154
  13617197.49247  10623437.63544  23833466.4614                   23833464.7664
 -24637752.74747 -19169430.42245  22247101.9384                   22247099.9694
 -27874320.01348 -21690760.46846  20867094.9774                   20867092.2774
 -11992856.23847  -9331248.17945  22066030.7814                   22066028.7854
 -39256434.03847 -30558251.59945  22140518.8444                   22140514.2974
 -14234309.01348 -11077079.68546  21847609.5864   21847609.5594   21499547.18946
  16762556.03942                  25265072.3284                   25265070.3714
 11  8 20  2 40 30.0000000  0  9G26G29G15G12G05G30G02G25G21
   3571466.35147   2794599.25344  22932467.2344                   22932466.1414
  -5062180.86147  -3932291.83546  21971346.7664                   21971344.5314
  13451682.46347  10494464.99244  23801970.2584                   23801968.2544
 -24627366.64647 -19161337.36545  22249078.5784                   22249076.3204
 -27894168.59248 -21706226.88346  20863317.5704                   20863314.4804
 -12018957.19147  -9351586.58145  22061063.8524                   22061061.7934
 -39283279.16848 -30579169.85845  22135409.8134                   22135405.5704
 -14276334.17048 -11109826.55346  21839613.1174   21839613.2974   21374262.22546
  16664931.46142                  25241231.1884                   25241229.8714
 11  8 20  2 41  0.0000000  0  9G26G29G15G12G05G30G02G25G21
   3415415.94547   2673001.59444  22902772.0634                   22902770.5594
  -5206860.35347  -4045029.04646  21943814.8204                   21943813.4264
  13286166.97347  10365491.98544  23770473.4304                   23770471.9344
 -24616690.78147 -19153018.48045  22251110.2584                   22251107.9534
 -27913604.11148 -21721371.43146  20859619.4694                   20859616.3094
 -12044581.18947  -9371553.32445  22056187.7424                   22056185.4534
 -39310045.55547 -30600026.76145  22130316.7274                   22130311.9454
 -14317840.98648 -11142169.52746  21831714.6564   21831714.1804   21248978.71645
  16567308.05142                  25217389.9064                   25217388.1684
 11  8 20  2 41 30.0000000  0  9G26G29G15G12G05G30G02G25G21
   3259612.54647   2551596.40244  22873123.4224                   22873122.0744
  -5351360.67548  -4157626.65346  21916317.2814                   21916314.8014
  13120661.36447  10236526.66544  23738979.0704                   23738976.7974
 -24605721.18647 -19144470.74545  22253197.5314                   22253195.3244
 -27932621.19648 -21736189.93646  20856000.5784                   20855997.4144
 -12069723.24147  -9391144.53745  22051403.0554                   22051401.2774
 -39336725.65047 -30620816.41945  22125239.7814                   22125235.2544
 -14358823.67748 -11174104.08846  21823915.7584   21823915.8054   21123703.030 5
                                  25193550.586
 11  8 20  2 42  0.0000000  0  9G26G29G15G12G05G30G02G25G21
   3104053.62947   2430381.75344  22843521.7974                   22843519.9964
  -5495685.44648  -4270087.46946  21888853.1564                   21888851.1604
  12955162.80247  10107566.84944  23707485.1484                   23707483.7274
 -24594466.42347 -19135700.81545  22255339.1414                   22255337.1484
 -27951228.11348 -21750688.81846  20852459.7274                   20852456.9224
 -12094391.53448  -9410366.60445  22046709.2664                   22046706.8134
 -39363325.23548 -30641543.37345  22120177.9454                   22120173.1604
 -14399289.78248 -11205636.11546  21816215.1334   21816214.9964   20998428.823 6
                                  25169712.586
 11  8 20  2 42 30.0000000  0  9G26G29G15G12G05G30G02G25G21
   2948740.40847   2309358.52444  22813966.3914                   22813964.8164
  -5639834.93348  -4382411.69646  21861422.3364                   21861420.3014
  12789671.36047   9978612.56444  23675992.4064                   23675991.1844
 -24582932.17947 -19126713.09245  22257534.4774                   22257532.5004
 -27969429.73248 -21764871.89446  20848996.0944                   20848993.6254
 -12118591.24448  -9429223.51745  22042104.2734                   22042102.1994
 -39389846.61448 -30662209.36545  22115130.9064                   22115126.2034
 -14439243.70248 -11236769.04046  21808612.2274   21808612.1484   20873152.89446
  16274457.00852                  25145873.5784                   25145871.3794
 11  8 20  2 43  0.0000000  0  9G26G29G15G12G05G30G02G25G21
   2793673.58547   2188527.28244  22784458.3524                   22784456.1374
  -5783809.83248  -4494599.89246  21834024.9694                   21834022.7114
  12624187.13346   9849663.93544  23644502.0164                   23644500.9774
 -24571124.01547 -19117511.93745  22259781.5004                   22259779.2074
 -27987231.22348 -21778743.18546  20845608.6484                   20845605.4024
 -12142327.59547  -9447719.37945  22037587.4304                   22037585.4734
 -39416292.41548 -30682816.48145  22110098.6174                   22110093.4654
 -14478689.88248 -11267506.31946  21801105.6024   21801105.9344   20747871.97746
  16176835.61843                  25122033.3444                   25122030.5314
 11  8 20  2 43 30.0000000  0  9G26G29G15G12G05G30G02G25G21
   2638856.62747   2067890.77644  22754997.5704                   22754995.3284
  -5927608.41248  -4606650.69346  21806661.1414                   21806658.6954
  12458712.81347   9720722.99144  23613014.1414                   23613012.2074
 -24559045.56447 -19108100.16445  22262079.7114                   22262077.0824
 -28004635.31348 -21792304.80546  20842296.2974                   20842293.6524
 -12165603.53847  -9465856.48445  22033158.0554                   22033156.0704
 -39442662.79248 -30703364.81145  22105080.0164                   22105076.1724
 -14517630.61048 -11297849.74846  21793695.3284   21793695.1804   20622585.09346
  16079209.52643                  25098191.7034                   25098189.9304
 11  8 20  2 44  0.0000000  0  9G26G29G15G12G05G30G02G25G21
   2484292.66447   1947451.36145  22725584.6954                   22725583.3204
  -6071228.42948  -4718562.35046  21779331.1414                   21779328.7504
  12293250.90646   9591791.71244  23581527.0704                   23581525.0634
 -24546700.34047 -19098480.50645  22264429.0784                   22264426.4884
 -28021644.63548 -21805558.80746  20839059.7344                   20839056.7734
 -12188421.93347  -9483637.04045  22028815.6804                   22028813.9924
 -39468958.11648 -30723854.67545  22100076.6334                   22100071.8954
 -14556068.00448 -11327800.95146  21786381.3594   21786380.9414   20497290.80046
  15981577.70943                  25074348.5164                   25074346.8444
 11  8 20  2 44 30.0000000  0  9G26G29G15G12G05G30G02G25G21
   2329986.05147   1827212.50744  22696221.3984                   22696219.8524
  -6214667.57848  -4830333.07546  21752035.1254                   21752032.8714
  12127804.73346   9462872.66444  23550043.5554                   23550041.7974
 -24534090.68647 -19088654.80445  22266828.5084                   22266826.5314
 -28038260.81648 -21818506.48146  20835897.7034                   20835895.1954
 -12210784.63347  -9501062.52645  22024560.5314                   22024557.8954
 -39495177.55047 -30744285.41045  22095086.7034                   22095082.3444
 -14594003.20348 -11357360.83746  21779162.3674   21779162.1024   20371989.76846
  15883940.66143                  25050505.0704                   25050503.2584
 11  8 20  2 45  0.0000000  0  9G26G29G15G12G05G30G02G25G21
   2175937.03247   1707174.35645  22666907.2034                   22666904.8954
  -6357926.83148  -4941963.62046  21724774.0004                   21724771.7734
  11962374.12746   9333965.74644  23518563.2504                   23518561.5984
 -24521222.86247 -19078627.93545  22269277.3134                   22269274.5664
 -28054489.67048 -21831152.32946  20832809.7344                   20832806.3134
 -12232697.60747  -9518137.57145  22020390.3834                   22020388.3324
 -39521324.55147 -30764659.69845  22090111.7344                   22090107.5824
 -14631441.45248 -11386533.49046  21772037.9924   21772038.1524   20246677.83746
  15786295.12143                  25026658.8984                   25026656.9694
 11  8 20  2 45 30.0000000  0  9G26G29G15G12G05G30G02G25G21
   2022149.45047   1587339.93345  22637641.4384                   22637639.8554
  -6501003.67048  -5053452.04446  21697547.5704                   21697544.9964
  11796961.92646   9205073.21944  23487086.1724                   23487084.7974
 -24508099.75047 -19068402.15445  22271774.3834                   22271771.9184
 -28070333.41648 -21843498.09646  20829794.5944                   20829791.6454
 -12254163.27047  -9534864.05345  22016305.6724                   22016303.4774
 -39547398.61048 -30784977.15745  22085149.3594                   22085145.0274
 -14668384.46948 -11415320.26346  21765008.2894   21765008.0354   20121354.36746
  15688640.57143                  25002810.0164                   25002808.3364
 11  8 20  2 46  0.0000000  0  9G26G29G15G12G05G30G02G25G21
   1868630.72747   1467714.98444  22608428.0634                   22608426.6484
  -6643891.94748  -5164793.52446  21670356.9224                   21670354.3054
  11631574.98246   9076200.36444  23455614.5784                   23455612.5274
 -24494720.73147 -19057976.95645  22274320.5164                   22274317.8164
 -28085790.64448 -21855542.67946  20826853.2424                   20826850.4494
 -12275180.34647  -9551240.98645  22012305.9534                   22012304.4774
 -39573395.38347 -30805234.38545  22080202.7814                   22080197.9774
 -14704830.32348 -11443719.61346  21758072.7734   21758073.1174   19996022.53546
  15590979.56943                  24978959.9064                   24978959.1724
 11  8 20  2 46 30.0000000  0  9G26G29G15G12G05G30G02G25G21
   1715385.96847   1348303.54545  22579266.4454                   22579264.2624
  -6786588.23748  -5275985.41046  21643202.5394                   21643200.0984
  11466217.79347   8947350.67244  23424148.1884                   23424146.1954
 -24481087.36547 -19047353.54645  22276914.6954                   22276912.5044
 -28100862.60848 -21867287.04546  20823985.1564                   20823982.2344
 -12295750.05947  -9567269.32945  22008391.5164                   22008390.0164
 -39599313.59048 -30825430.40145  22075270.9534                   22075265.6054
 -14740779.49248 -11471731.95846  21751231.5164   21751232.0664   19870683.26346
  15493312.83043                  24955108.7974                   24955106.8674
 11  8 20  2 47  0.0000000  0  9G26G29G15G12G05G30G02G25G21
   1562417.45547   1229107.34645  22550157.5234                   22550155.5354
  -6929091.50748  -5387026.89646  21616085.0474                   21616082.4844
  11300891.76246   8818525.29744  23392687.6254                   23392685.9224
 -24467204.10447 -19036535.43845  22279557.1024                   22279554.2774
 -28115552.28448 -21878733.53746  20821189.3524                   20821186.3984
 -12315876.39047  -9582952.16345  22004561.6254                   22004559.9614
 -39625154.48048 -30845566.17145  22070353.3754                   22070349.0394
 -14776235.24748 -11499359.80846  21744484.9304   21744485.3484   19745334.57945
  15395638.55542                  24931256.0394                   24931253.9304
 11  8 20  2 47 30.0000000  0  9G26G29G15G12G05G30G02G25G21
   1409729.63947   1110129.84045  22521101.9064                   22521100.2304
  -7071398.67648  -5497915.56646  21589004.7894                   21589002.6564
  11135600.53647   8689727.00344  23361233.0234                   23361231.5434
 -24453073.18847 -19025524.36445  22282245.7274                   22282242.8714
 -28129861.65848 -21889883.68846  20818466.5004                   20818463.9534
 -12335561.27048  -9598291.02645  22000816.2344                   22000814.6054
 -39650916.87948 -30865640.78045  22065451.0234                   22065445.9414
 -14811198.81948 -11526604.14146  21737831.4614   21737831.5784   19619976.61046
  15297957.13543                  24907401.3914                   24907398.7934
 11  8 20  2 48  0.0000000  0  9G26G29G15G12G05G30G02G25G21
   1257324.03447    991372.26844  22492100.7344                   22492098.9454
  -7213509.31448  -5608651.09646  21561962.0234                   21561959.5474
  10970345.22347   8560956.72644  23329785.9774                   23329783.4184
 -24438699.50647 -19014324.09845  22284980.6094                   22284978.5744
 -28143794.94047 -21900740.78246  20815814.8674                   20815812.5124
 -12354809.13347  -9613289.35345  21997153.4844                   21997151.2194
 -39676602.39748 -30885655.48445  22060562.9384                   22060558.5744
 -14845674.06848 -11553467.96746  21731270.9534   21731271.1454   19494606.90945
  15200266.57343                  24883543.5004                   24883541.8524
 11  8 20  2 48 30.0000000  0  9G26G29G15G12G05G30G02G25G21
   1105206.16647    872838.91545  22463153.2814                   22463151.3054
  -7355419.68848  -5719230.56246  21534957.2974                   21534954.8404
  10805130.35247   8432217.93644  23298347.5394                   23298344.9694
 -24424084.78247 -19002936.01745  22287761.8284                   22287759.6024
 -28157353.36448 -21911305.78146  20813235.3914                   20813232.0234
 -12373621.12948  -9627948.04745  21993573.4774                   21993572.0354
 -39702209.75447 -30905609.26545  22055690.3204                   22055685.6024
 -14879661.36348 -11579951.57546  21724803.6024   21724803.8524   19369226.40846
  15102567.60043                  24859684.4614                   24859683.1094
 11  8 20  2 49  0.0000000  0  9G26G29G15G12G05G30G02G25G21
    953378.08747    754531.37645  22434261.6024                   22434259.8444
  -7497129.09948  -5829653.44046  21507991.0554                   21507988.1214
  10639957.70747   8303512.06244  23266915.4384                   23266913.2974
 -24409233.36447 -18991363.49345  22290588.0234                   22290586.0784
 -28170540.82948 -21921581.70646  20810725.6254                   20810722.4064
 -12392001.47847  -9642270.37745  21990075.5554                   21990073.7704
 -39727739.87048 -30925502.87645  22050832.1804                   22050827.2704
 -14913164.23948 -11606057.70446  21718427.9924   21718428.0084   19243832.91946
  15004858.44743                  24835822.4304                   24835821.8634
 11  8 20  2 49 30.0000000  0  9G26G29G15G12G05G30G02G25G21
    801844.45247    636453.25245  22405425.4774                   22405423.4614
  -7638634.00848  -5939916.97446  21481063.2974                   21481061.0704
  10474831.05247   8174842.03844  23235492.8754                   23235490.5274
 -24394147.41647 -18979608.23545  22293458.9224                   22293456.7934
 -28183358.23948 -21931569.29746  20808286.8444                   20808283.7504
 -12409951.83247  -9656257.67145  21986659.7734                   21986657.7544
 -39753191.73148 -30945335.51245  22045988.8594                   22045984.6994
 -14946183.71148 -11631787.16046  21712144.4304   21712144.1054   19118426.96747
  14907139.61943                  24811960.1954                   24811956.7034
 11  8 20  2 50  0.0000000  0  9G26G29G15G12G05G30G02G25G21
    650607.01247    518605.96745  22376646.0234                   22376644.3874
  -7779934.06048  -6050020.86646  21454174.5474                   21454172.5824
  10309751.42147   8046208.66644  23204078.3754                   23204076.8834
 -24378831.62847 -18967673.85745  22296373.7194                   22296371.3984
 -28195809.80248 -21941271.80246  20805917.2894                   20805914.2304
 -12427476.52647  -9669913.27345  21983324.9924                   21983322.9654
 -39778566.57248 -30965108.12745  22041159.8364                   22041155.5354
 -14978723.55948 -11657142.89146  21705952.6804   21705952.4924   18993006.17047
  14809409.22643                  24788092.6644                   24788091.0864
 11  8 20  2 50 30.0000000  0  9G26G29G15G12G05G30G02G25G21
    499671.46647    400993.89745  22347923.5704                   22347921.9964
  -7921025.28048  -6159962.04246  21427325.7344                   21427323.9694
  10144723.82147   7917615.82544  23172675.7814                   23172673.6764
 -24363287.43547 -18955561.51845  22299331.2274                   22299328.9534
 -28207896.35548 -21950689.88446  20803617.1254                   20803614.0864
 -12444576.51047  -9683237.91945  21980071.0394                   21980068.9884
 -39803862.38848 -30984819.16245  22036346.5164                   22036342.1684
 -15010783.96748 -11682125.02746  21699851.6644   21699851.9734   18867571.90746
  14711668.30843                  24764223.1564                   24764220.3404
 11  8 20  2 51  0.0000000  0  9G26G29G15G12G05G30G02G25G21
   1924464.59647   1511222.36945  22619052.1724                   22619051.0784
  -6486482.36848  -5042136.35346  21700310.5704                   21700308.2074
  11555174.89247   9016668.69244  23441075.0394                   23441072.8984
 -22772100.09147 -17715675.27545  22602124.4454                   22602121.9064
 -26644201.77748 -20732226.57246  21101178.1334                   21101175.5664
 -10885835.86947  -8468634.81945  22276689.5314                   22276687.9264
 -38253659.98447 -29776869.23645  22331340.2504                   22331335.6024
 -13466947.84048 -10479135.83646  21993633.8444   21993634.1764   20317545.77947
  15841518.15643                  25040143.5084                   25040142.4774
 11  8 20  2 51 30.0000000  0  9G26G29G15G12G05G30G02G25G21
   1774143.53647   1394089.11545  22590447.8594                   22590445.6644
  -6627148.43548  -5151746.23646  21673542.3284                   21673540.1804
  11390260.54346   8888164.09144  23409692.6954                   23409691.4884
 -22756107.96747 -17703213.89745  22605167.7274                   22605165.5044
 -26655565.26248 -20741081.23546  21099015.7974                   21099012.3984
 -10902094.45547  -8481303.85045  22273595.5634                   22273593.8834
 -38278796.70448 -29796456.29545  22326557.0234                   22326552.5044
 -13498055.47248 -10503375.55546  21987714.0704   21987714.3634   20192082.98346
  15743755.06743                  25016268.7974                   25016266.6724
 11  8 20  2 52  0.0000000  0  9G26G29G15G12G05G30G02G25G21
   1624135.78047   1277200.02945  22561901.5864                   22561900.3674
  -6767598.11948  -5261187.50846  21646815.7344                   21646813.2624
  11225407.67547   8759707.40844  23378322.4694                   23378319.9574
 -22739896.04447 -17690581.21945  22608253.0864                   22608250.4844
 -26666570.38548 -20749656.65346  21096921.5704                   21096918.7424
 -10917936.14147  -8493648.03045  22270580.9304                   22270579.2234
 -38303853.51347 -29815981.08145  22321788.8524                   22321783.8204
 -13528689.58848 -10527246.30546  21981884.9774   21981884.8404   20066605.50046
  15645980.49543                  24992390.9384                   24992389.5944
 11  8 20  2 52 30.0000000  0  9G26G29G15G12G05G30G02G25G21
   1474445.22947   1160558.08445  22533416.0314                   22533414.3754
  -6907828.54848  -5370457.93346  21620130.3674                   21620128.4804
  11060619.81947   8631301.36244  23346964.7344                   23346962.1254
 -22723466.75947 -17677779.19545  22611378.5164                   22611376.6174
 -26677218.99447 -20757954.27646  21094895.3134                   21094892.4844
 -10933363.05847  -8505668.99545  22267645.0944                   22267643.5824
 -38328829.40547 -29835442.82045  22317036.1954                   22317030.9804
 -13558851.59848 -10550749.17746  21976144.9844   21976145.0594   19941113.33346
  15548194.52343                  24968510.6484                   24968508.6994
 11  8 20  2 53  0.0000000  0  9G26G29G15G12G05G30G02G25G21
   1325074.98947   1044165.74644  22504992.6564                   22504990.6954
  -7047837.83948  -5479556.05746  21593487.7034                   21593485.3874
  10895899.22847   8502947.72444  23315619.1954                   23315617.2974
 -22706824.11147 -17664810.88845  22614546.0704                   22614544.2304
 -26687514.36048 -20765976.63946  21092936.5944                   21092933.1844
 -10948378.77347  -8517369.56145  22264788.0864                   22264786.1254
 -38353724.62347 -29854841.67345  22312298.5634                   22312293.5984
 -13588544.45848 -10573886.47946  21970494.6644   21970495.0084   19815605.02746
  15450395.88343                  24944626.5554                   24944624.4224
 11  8 20  2 53 30.0000000  0  9G26G29G15G12G05G30G02G25G21
   1176027.88147    928025.21645  22476629.7424                   22476627.6684
  -7187624.69348  -5588480.85146  21566887.6254                   21566884.9184
  10731248.18447   8374648.30244  23284287.0004                   23284284.8754
 -22689971.90047 -17651679.29445  22617752.7194                   22617750.2974
 -26697459.60648 -20773726.17946  21091043.8754                   21091040.1454
 -10962986.62447  -8528752.32045  22262008.2584                   22262006.4344
 -38378539.72247 -29874178.12445  22307576.3674                   22307571.3834
 -13617771.05248 -10596660.47346  21964933.1174   21964933.0354   19690079.47246
  15352583.93543                  24920740.2424                   24920737.8054
 11  8 20  2 54  0.0000000  0  9G26G29G15G12G05G30G02G25G21
   1027310.22847    812141.37845  22448329.6334                   22448327.1094
  -7327184.41048  -5697228.64046  21540330.0634                   21540327.3954
  10566672.50447   8246407.57945  23252968.5554                   23252966.8324
 -22672910.56347 -17638384.74945  22620999.5084                   22620997.3054
 -26707054.53148 -20781202.74546  21089218.1254                   21089215.3204
 -10977186.98847  -8539817.54445  22259305.7114                   22259304.2384
 -38403271.93747 -29893449.97445  22302869.7274                   22302865.4104
 -13646531.00648 -10619070.83846  21959460.4614   21959460.5354   19564538.48246
  15254759.82843                  24896850.9774                   24896848.4844
 11  8 20  2 54 30.0000000  0  9G26G29G15G12G05G30G02G25G21
    878924.99447    696516.57645  22420092.6644                   22420091.0944
  -7466514.71448  -5805797.68546  21513816.3284                   21513813.8634
  10402174.70447   8118227.54545  23221665.9534                   23221664.3484
 -22655643.36047 -17624929.80445  22624285.3444                   22624282.7544
 -26716302.07748 -20788408.62046  21087457.9774                   21087455.1134
 -10990983.06447  -8550567.75545  22256680.5704                   22256679.1214
 -38427921.22847 -29912657.21845  22298179.1024                   22298174.8674
 -13674826.87948 -10641119.59246  21954075.8444   21954075.7734   19438981.38746
  15156923.34243                  24872957.6804                   24872954.0784
 11  8 20  2 55  0.0000000  0  9G26G29G15G12G05G30G02G25G21
    730874.24347    581152.39945  22391919.2194                   22391917.3714
  -7605614.96948  -5914187.47046  21487346.5474                   21487344.7384
  10237755.99147   7990109.16044  23190377.8914                   23190376.8134
 -22638175.26547 -17611318.28945  22627609.4844                   22627607.1294
 -26725206.60148 -20795347.21646  21085763.4064                   21085760.8404
 -11004379.47447  -8561006.51645  22254131.9694                   22254129.2234
 -38452489.30347 -29931801.16445  22293504.0004                   22293499.8364
 -13702662.67448 -10662809.83546  21948778.7734   21948778.7344   19313405.55646
  15059072.13343                  24849060.8674                   24849059.1564
 11  8 20  2 55 30.0000000  0  9G26G29G15G12G05G30G02G25G21
    583163.45347    466053.15045  22363811.2584                   22363808.8524
  -7744481.04848  -6022394.78146  21460920.8284                   21460918.5824
  10073421.36847   7862056.27145  23159105.9224                   23159104.3834
 -22620507.58947 -17597551.26845  22630971.4064                   22630969.1054
 -26733768.38748 -20802018.73646  21084134.6564                   21084131.3834
 -11017377.03347  -8571134.48645  22251657.6484                   22251656.2344
 -38476973.79847 -29950879.98445  22288845.4144                   22288840.8164
 -13730038.73148 -10684141.83946  21943569.5704   21943569.5234   19187812.61146
  14961207.66343                  24825161.0474                   24825159.4494
 11  8 20  2 56  0.0000000  0  9G26G29G15G12G05G30G02G25G21
    435792.60147    351218.77745  22335767.2504                   22335765.5984
  -7883114.45548  -6130420.78446  21434540.2894                   21434537.7304
   9909170.49647   7734068.64945  23127850.1174                   23127848.9614
 -22602646.73947 -17583633.72445  22634369.8914                   22634367.8134
 -26741993.45247 -20808427.87646  21082569.4844                   21082566.6294
 -11029982.34147  -8580956.82045  22249259.2344                   22249257.2074
 -38501378.01847 -29969896.26545  22284201.1644                   22284196.4494
 -13756960.92148 -10705120.19646  21938446.2274   21938445.9104   19062198.16046
  14863326.45343                  24801257.1254                   24801255.8874
 11  8 20  2 56 30.0000000  0  9G26G29G15G12G05G30G02G25G21
    288769.04747    236655.03045  22307789.7274                   22307787.6914
  -8021508.86348  -6238260.55346  21408204.5784                   21408201.8444
   9745010.00747   7606151.46544  23096611.1884                   23096609.3014
 -22584592.42747 -17569565.43045  22637805.9774                   22637803.5864
 -26749880.61248 -20814573.72046  21081068.3674                   21081065.4414
 -11042194.28047  -8590472.63045  22246935.5864                   22246933.7274
 -38525697.83647 -29988846.78245  22279573.3674                   22279568.1524
 -13783427.59948 -10725743.60146  21933409.3594   21933409.7074   18936565.52546
  14765431.10443                  24777350.5554                   24777349.4694
 11  8 20  2 57  0.0000000  0  9G26G29G15G12G05G30G02G25G21
    142093.58547    122362.50845  22279878.3674                   22279876.8794
  -8159664.88648  -6345914.57546  21381914.2034                   21381912.0664
   9580940.08247   7478304.81845  23065390.3204                   23065388.6414
 -22566350.29747 -17555350.78145  22641277.3594                   22641274.6954
 -26757434.86348 -20820460.13246  21079630.7814                   21079628.0394
 -11054018.66447  -8599686.45245  22244685.2664                   22244683.4534
 -38549935.95947 -30007733.62945  22274960.7344                   22274956.0434
 -13809443.99048 -10746016.12446  21928458.9064   21928459.1414   18810911.48045
  14667519.06443                  24753438.9384                   24753437.4384
 11  8 20  2 57 30.0000000  0  9G26G29G15G12G05G30G02G25G21
     -4228.89647      8345.03045  22252034.1174                   22252032.2464
  -8297578.62148  -6453379.79446  21355669.9924                   21355667.4614
   9416965.12447   7350532.21345  23034186.6174                   23034184.7194
 -22547922.16147 -17540991.19145  22644783.7584                   22644781.1604
 -26764657.64548 -20826088.27146  21078256.6644                   21078253.8244
 -11065457.02647  -8608599.47745  22242508.8914                   22242507.2154
 -38574090.69346 -30026555.49445  22270363.9614                   22270359.3594
 -13835011.09247 -10765938.55946  21923593.7584   21923594.2114   18685236.58845
  14569590.81343                  24729522.6334                   24729522.4184
 11  8 20  2 58  0.0000000  0  9G26G29G15G12G05G30G02G25G21
   -150193.54247   -105393.58145  22224257.6804                   22224256.2814
  -8435246.14248  -6560653.15846  21329472.8594                   21329470.4104
   9253089.63247   7222837.09145  23003002.2664                   23003000.7734
 -22529309.83847 -17526488.06145  22648326.0474                   22648323.3284
 -26771549.88348 -20831458.84546  21076945.2664                   21076942.1764
 -11076510.97147  -8617212.94945  22240405.3284                   22240403.4694
 -38598160.46147 -30045311.17145  22265783.8134                   22265778.6954
 -13860129.86448 -10785511.64346  21918813.9534   21918813.9884   18559541.81945
  14471647.10343                  24705604.0864                   24705603.1724
 11  8 20  2 58 30.0000000  0  9G26G29G15G12G05G30G02G25G21
   -295798.76447   -218852.14545  22196550.3444                   22196547.6954
  -8572667.61848  -6667734.80746  21303322.1724                   21303319.7384
   9089314.40047   7095220.08845  22971836.6804                   22971834.4964
 -22510518.41647 -17511845.40445  22651901.9144                   22651899.8404
 -26778116.23148 -20836575.47446  21075694.9454                   21075692.3484
 -11087185.40847  -8625530.70745  22238374.1334                   22238372.2114
 -38622146.71147 -30064001.76245  22261219.3284                   22261214.8134
 -13884804.64348 -10804738.74946  21914118.6024   21914118.7464   18433824.46346
  14373685.65543                  24681681.4224                   24681679.2854
 11  8 20  2 59  0.0000000  0  9G26G29G15G12G05G30G02G25G21
   -441040.80747   -332027.71245  22168911.2424                   22168909.1804
  -8709840.58348  -6774622.79746  21277219.3984                   21277217.1174
   8925642.82747   6967683.84545  22940690.6024                   22940689.0044
 -22491550.74147 -17497065.40245  22655511.2344                   22655508.9964
 -26784359.19848 -20841440.11546  21074507.4534                   21074504.4184
 -11097483.13847  -8633554.94145  22236414.5394                   22236412.8554
 -38646049.00047 -30082626.92645  22256670.9694                   22256666.6954
 -13909037.79748 -10823621.74546  21909506.9454   21909506.7664   18308084.08146
  14275706.28444                  24657753.8054                   24657751.3674
 11  8 20  2 59 30.0000000  0  9G26G29G15G12G05G30G02G25G21
   -585916.81447   -444918.06445  22141342.1094                   22141339.9774
  -8846762.79548  -6881315.41146  21251163.8364                   21251160.9964
   8762077.63747   6840230.52344  22909565.5474                   22909563.0394
 -22472410.46147 -17482150.89245  22659153.1334                   22659151.1254
 -26790281.29548 -20846054.73346  21073380.2194                   21073376.8444
 -11107407.53647  -8641288.25645  22234526.1884                   22234523.7934
 -38669867.44547 -30101186.76245  22252138.5864                   22252133.9844
 -13932831.98348 -10842162.66646  21904979.1094   21904979.0394   18182319.80646
  14177708.29543                  24633821.8204                   24633819.6604
 11  8 20  3  0  0.0000000  0  9G26G29G15G12G05G30G02G25G21
   -730422.18647   -557519.60145  22113844.1484                   22113841.7854
  -8983431.29448  -6987810.30646  21225156.7274                   21225153.6954
   8598622.38447   6712862.84645  22878460.8984                   22878458.5394
 -22453099.88247 -17467103.67145  22662828.2974                   22662825.6914
 -26795884.41148 -20850420.78446  21072314.3674                   21072311.3164
 -11116960.76447  -8648732.32945  22232708.1414                   22232706.2304
 -38693601.31147 -30119680.69245  22247622.2814                   22247617.3204
 -13956188.94048 -10860362.90646  21900534.5944   21900534.7074   18056531.81747
  14079691.79343                  24609884.7504                   24609882.6374
 11  8 20  3  0 30.0000000  0  9G26G29G15G12G05G30G02G25G21
   -874553.71347   -669829.81945  22086416.2424                   22086414.3554
  -9119843.90848  -7094105.82546  21199198.0164                   21199195.4064
   8435280.12447   6585583.23445  22847378.2424                   22847375.8594
 -22433622.21147 -17451926.27245  22666534.2034                   22666532.1054
 -26801171.24248 -20854540.38446  21071307.8914                   21071305.1374
 -11126146.04047  -8655889.69645  22230959.8524                   22230958.2194
 -38717250.31447 -30138108.49345  22243122.1024                   22243117.5474
 -13979111.25348 -10878224.45646  21896172.5394   21896172.6724   17930719.34846
  13981656.19343                  24585944.0314                   24585940.5664
 11  8 20  3  1  0.0000000  0 10G26G18G29G15G12G05G30G02G25G21
  -1018308.44847   -781846.45745  22059060.7504                   22059058.4694
  23402359.90656  18249043.71353  24534778.6254                   24534777.8674
  -9255998.87848  -7200200.56646  21173288.2274                   21173285.7664
   8272053.45447   6458393.64745  22816317.1094                   22816315.0434
 -22413981.46547 -17436621.80045  22670272.2114                   22670269.7424
 -26806144.99248 -20858416.02546  21070361.5944                   21070358.1954
 -11134966.85047  -8662763.06445  22229281.7424                   22229280.1294
 -38740814.42347 -30156470.15945  22238637.6884                   22238633.4414
 -14001601.94447 -10895749.67046  21891892.9064   21891892.7814   17804881.44646
  13883600.72443                  24561997.6174                   24561993.6914
 11  8 20  3  1 30.0000000  0 10G26G18G29G15G12G05G30G02G25G21
  -1161685.48647   -893568.77845  22031777.1954                   22031774.7304
  23243372.71046  18125157.69043  24504523.7504                   24504523.4384
  -9391896.39648  -7306094.68946  21147427.8134                   21147425.1054
   8108942.66447   6331294.38845  22785278.1884                   22785275.8484
 -22394182.84347 -17421194.29845  22674039.9774                   22674037.1214
 -26810810.44048 -20862051.42446  21069473.8444                   21069470.8794
 -11143428.70247  -8669356.74145  22227671.3984                   22227669.3404
 -38764296.33547 -30174767.74545  22234169.4534                   22234164.3754
 -14023665.95548 -10912942.41146  21887694.0634   21887694.4694   17679014.93046
  13785522.99242                  24538046.2664                   24538041.1254
 11  8 20  3  2  0.0000000  0 10G26G18G29G15G12G05G30G02G25G21
    270740.80547    222607.59345  22304358.1174                   22304355.4884
  24659961.03546  19228992.88143  24774092.1254                   24774091.0004
  -7952112.39048  -6184185.04246  21421409.8594                   21421407.6254
   9521373.70747   7431890.06145  23054054.3754                   23054052.2894
 -20798812.93047 -16178048.89445  22977628.1884                   22977626.0474
 -25239752.89748 -19637850.73746  21368436.1724                   21368433.1174
  -9576117.09947  -7448074.98245  22525920.5944                   22525919.2704
 -37212277.38247 -28965402.33445  22529508.9774                   22529504.1884
 -12469887.87948  -9702206.25046  22183367.9614   22183368.0164   19128540.60445
  14915023.54342                  24813880.8134                   24813876.7034
 11  8 20  3  2 30.0000000  0 10G26G18G29G15G12G05G30G02G25G21
    128125.50647    111478.82745  22277219.7114                   22277217.3984
  24501276.79745  19105342.95543  24743895.4454                   24743893.4654
  -8087492.23348  -6289675.79246  21395647.8674                   21395645.5354
   9358499.83347   7304975.41245  23023060.6414                   23023058.8554
 -20778712.41847 -16162386.15045  22981453.1804                   22981451.4654
 -25243813.80248 -19641015.06046  21367663.3134                   21367660.4844
  -9583874.38947  -7454119.60945  22524444.7114                   22524442.3244
 -37235597.61447 -28983573.92045  22525070.7814                   22525066.4024
 -12491110.35348  -9718743.24446  22179329.7034   22179329.6724   19002610.84245
  14816896.57842                  24789916.1024                   24789913.1094
 11  8 20  3  3  0.0000000  0 10G26G18G29G15G12G05G30G02G25G21
    -14097.60947       655.64145  22250155.6334                   22250153.5004
  24342751.98045  18981817.34743  24713728.6884                   24713727.9384
  -8222603.66548  -6394957.39546  21369936.7974                   21369934.4494
   9195755.13847   7178161.41445  22992091.4454                   22992089.2974
 -20758459.62347 -16146604.76245  22985307.5084                   22985305.4534
 -25247570.06048 -19643942.02146  21366948.3204                   21366945.8134
  -9591277.86747  -7459888.58245  22523036.1024                   22523033.6334
 -37258830.67347 -29001677.61045  22520649.6484                   22520645.3634
 -12511909.75348  -9734950.56546  22175371.8524   22175371.7624   18876654.76946
  14718749.11843                  24765947.7584                   24765946.2704
 11  8 20  3  3 30.0000000  0 10G26G18G29G15G12G05G30G02G25G21
   -155920.70147   -109855.81645  22223166.9774                   22223165.3054
  24184392.40545  18858420.38343  24683593.7504                   24683592.1094
  -8357439.80348  -6500024.48446  21344278.3054                   21344276.2384
   9033147.19947   7051453.97745  22961148.0314                   22961145.5044
 -20738053.31147 -16130703.73845  22989190.2664                   22989188.9924
 -25251019.68448 -19646630.03346  21366292.4304                   21366289.1564
  -9598326.09347  -7465380.71545  22521694.6334                   22521692.6804
 -37281971.36747 -29019709.30145  22516246.2814                   22516241.4804
 -12532284.11948  -9750826.68646  22171494.6954   22171494.6564   18750676.11846
  14620584.02843                  24741974.8674                   24741973.5784
 11  8 20  3  4  0.0000000  0 10G26G18G29G15G12G05G30G02G25G21
   -297342.02647   -220054.23045  22196255.8364                   22196253.3914
  24026197.56145  18735151.85943  24653489.8914                   24653489.0354
  -8492000.27948  -6604876.76446  21318672.4454                   21318670.0864
   8870677.12447   6924853.96545  22930230.7734                   22930228.7384
 -20717498.07647 -16114686.64245  22993102.3984                   22993099.1804
 -25254167.15248 -19649082.61246  21365693.1884                   21365689.8284
  -9605023.91947  -7470599.79045  22520420.4384                   22520417.8984
 -37305021.21747 -29037670.23545  22511860.2504                   22511854.9964
 -12552237.83348  -9766375.03746  22167697.6804   22167697.3364   18624672.80247
  14522399.75444                  24717998.2734                   24717995.5704
 11  8 20  3  4 30.0000000  0 10G26G18G29G15G12G05G30G02G25G21
   -438358.79647   -329937.38045  22169421.2974                   22169418.6884
  23868168.13946  18612012.21943  24623418.0004                   24623417.3754
  -8626283.22748  -6709512.80646  21293119.2894                   21293116.7234
   8708347.37247   6798363.31545  22899340.8054                   22899338.8634
 -20696797.58747 -16098556.38345  22997041.2114                   22997038.5314
 -25257015.61948 -19651302.20046  21365150.9384                   21365148.0594
  -9611375.10247  -7475548.75045  22519211.5394                   22519209.7234
 -37327980.73947 -29055560.78645  22507491.2274                   22507486.7034
 -12571774.10048  -9781598.09746  22163979.6804   22163979.8914   18498643.83347
  14424195.47044                  24694015.8834                   24694013.0904
 11  8 20  3  5  0.0000000  0 10G26G18G29G15G12G05G30G02G25G21
   -578966.33247   -439501.65745  22142664.2114                   22142662.3874
  23710306.27146  18489003.17543  24593377.3134                   24593376.4224
  -8760285.12248  -6813929.82146  21267619.5314                   21267616.9494
   8546162.25447   6671985.36545  22868477.5314                   22868475.3324
 -20675954.32047 -16082314.85545  23001007.4064                   23001004.8094
 -25259566.19748 -19653289.67146  21364665.7504                   21364662.4064
  -9617381.41847  -7480228.99945  22518068.3134                   22518066.8204
 -37350848.61347 -29073379.88645  22503139.1094                   22503134.5394
 -12590894.27348  -9796496.93146  22160341.5004   22160341.4924   18372589.70147
  14325971.57044                  24670028.4454                   24670026.4774
 11  8 20  3  5 30.0000000  0 10G26G18G29G15G12G05G30G02G25G21
   -719160.69447   -548743.98545  22115986.2814                   22115984.3204
  23552613.99346  18366126.22143  24563369.7664                   24563367.6294
  -8894002.99748  -6918125.54646  21242173.9144                   21242171.0434
   8384125.26547   6545722.85245  22837642.9144                   22837640.7664
 -20654970.54347 -16065963.87045  23005000.0784                   23004998.5274
 -25261821.06148 -19655046.70746  21364236.7814                   21364233.8404
  -9623045.39147  -7484642.46945  22516990.9304                   22516989.3714
 -37373623.50047 -29091126.56245  22498805.7664                   22498800.6684
 -12609600.39948  -9811073.12646  22156781.9224   22156781.9574   18246510.19847
  14227727.92244                  24646035.6094                   24646033.1134
 11  8 20  3  6  0.0000000  0 10G26G18G29G15G12G05G30G02G25G21
   -858938.95747   -657662.08645  22089387.4844                   22089385.0904
  23395092.26246  18243382.26143  24533394.5554                   24533392.5434
  -9027434.90148  -7022098.44046  21216782.6884                   21216779.9774
   8222239.42147   6419578.08245  22806836.9924                   22806835.3164
 -20633849.49447 -16049505.91845  23009020.0704                   23009017.7464
 -25263782.97948 -19656575.48146  21363863.4224                   21363860.1174
  -9628370.37247  -7488791.81045  22515978.0394                   22515975.4964
 -37396305.46747 -29108800.81645  22494489.1174                   22494484.5904
 -12627895.28447  -9825328.87546  22153300.5234   22153300.4844   18120404.87346
  14129464.09643                  24622038.3054                   24622036.1994
 11  8 20  3  6 30.0000000  0 10G26G18G29G15G12G05G30G02G25G21
   -998297.63147   -766253.21145  22062868.3284                   22062866.3984
  23237741.78946  18120771.62343  24503452.2664                   24503449.7544
  -9160578.97248  -7125847.05246  21191445.8914                   21191443.6484
   8060507.48747   6293553.25345  22776061.0004                   22776058.5824
 -20612594.65847 -16032943.69345  23013064.5554                   23013062.5204
 -25265454.36248 -19657877.86546  21363545.7814                   21363542.3794
  -9633359.78247  -7492679.67645  22515028.0554                   22515026.4304
 -37418894.50647 -29126402.64645  22490190.8984                   22490186.3094
 -12645781.87348  -9839266.47046  22149896.6334   22149896.5634   17994272.83046
  14031179.49543                  24598036.4384                   24598032.8014
 11  8 20  3  7  0.0000000  0 10G26G18G29G15G12G05G30G02G25G21
  -1137235.76447   -874516.65845  22036429.4454                   22036427.3554
  23080561.73546  17998293.83943  24473541.0394                   24473538.8164
  -9293434.65648  -7229370.94046  21166164.3204                   21166161.6094
   7898930.58047   6167649.22945  22745313.4304                   22745310.7384
 -20591211.23547 -16016281.29445  23017133.7274                   23017131.4574
 -25266839.81948 -19658957.44846  21363281.7584                   21363278.7974
  -9638018.82247  -7496310.08745  22514141.3594                   22514139.8794
 -37441392.35847 -29143933.44945  22485909.5784                   22485905.0124
 -12663264.94848  -9852889.63846  22146569.3204   22146569.5944   17868111.29246
  13932871.87643                  24574028.2974                   24574023.9024
 11  8 20  3  7 30.0000000  0 10G26G18G29G15G12G05G30G02G25G21
  -1275748.17747   -982448.39145  22010070.8364                   22010069.2304
  22923554.97046  17875951.00042  24443664.2424                   24443661.0314
  -9425998.05048  -7332667.07646  21140938.6254                   21140935.7424
   7737512.90747   6041869.25545  22714596.7664                   22714594.4224
 -20569700.89747 -15999519.94545  23021226.9614                   23021224.6054
 -25267941.00348 -19659815.52046  21363072.2344                   21363069.0554
  -9642349.06147  -7499684.28945  22513317.6094                   22513315.4184
 -37463797.23747 -29161391.80945  22481646.1804                   22481641.4384
 -12680345.66748  -9866199.28746  22143319.1724   22143319.1334   17741921.28846
  13834542.09042                  24550014.7734                   24550011.1214
 11  8 20  3  8  0.0000000  0 10G26G18G29G15G12G05G30G02G25G21
  -1413832.38547  -1090046.43645  21983794.9454                   21983792.8324
  22766721.62546  17753743.40243  24413818.3754                   24413815.6564
  -9558267.91348  -7435734.48346  21115768.1564                   21115765.9184
   7576257.00747   5916215.36145  22683910.8834                   22683908.1684
 -20548067.57647 -15982662.76644  23025343.9304                   23025340.7194
 -25268760.68248 -19660454.22846  21362916.2974                   21362913.1764
  -9646354.32747  -7502805.27145  22512555.1644                   22512553.3834
 -37486109.39947 -29178777.91945  22477400.0864                   22477395.9224
 -12697027.30048  -9879197.95446  22140145.2114   22140145.4184   17615701.83246
  13736189.30543                  24525995.5474                   24525992.9304
 11  8 20  3  8 30.0000000  0 10G26G18G29G15G12G05G30G02G25G21
  -1551484.52847  -1197307.81745  21957600.3524                   21957598.0514
  22610063.52246  17631672.27043  24384007.9924                   24384005.4184
  -9690241.23248  -7538570.81546  21090654.7114                   21090651.7734
   7415166.30647   5790690.17245  22653256.0864                   22653253.7074
 -20526313.56047 -15965711.58744  23029482.5084                   23029480.5234
 -25269300.88848 -19660875.17846  21362813.1024                   21362810.4414
  -9650037.15547  -7505674.99645  22511854.1884                   22511851.8204
 -37508328.03747 -29196091.15845  22473172.1334                   22473167.4224
 -12713312.04947  -9891887.36546  22137045.8204   22137046.0314   17489452.69946
  13637813.43843                  24501972.1484                   24501970.0164
 11  8 20  3  9  0.0000000  0 10G26G18G29G15G12G05G30G02G25G21
  -1688700.58247  -1304229.38345  21931489.0314                   21931486.8284
  22453582.65946  17509739.31843  24354229.9224                   24354227.9414
  -9821914.88248  -7641173.64846  21065597.9534                   21065595.1134
   7254244.81647   5665296.85045  22622633.4924                   22622631.2344
 -20504441.31747 -15948668.27744  23033644.6644                   23033642.5044
 -25269563.56548 -19661079.87346  21362763.4844                   21362760.3204
  -9653400.07147  -7508295.44345  22511214.4614                   22511211.8594
 -37530451.94647 -29213330.56645  22468962.1884                   22468957.5704
 -12729201.91147  -9904269.07446  22134022.1724   22134022.3914   17363174.17146
  13539414.69643                  24477941.9774                   24477939.5234
 11  8 20  3  9 30.0000000  0 10G26G18G29G15G12G05G30G02G25G21
  -1825479.51647  -1410810.34145  21905460.8914                   21905458.8554
  22297277.94446  17387943.55943  24324486.3284                   24324483.7814
  -9953288.96748  -7743543.04746  21040598.3594                   21040595.7344
   7093493.43047   5540036.05845  22592044.0004                   22592042.2974
 -20482456.28347 -15931537.07845  23037828.4844                   23037826.9064
 -25269553.51748 -19661072.04046  21362765.3834                   21362762.5164
  -9656448.52947  -7510670.85145  22510634.4774                   22510631.6134
 -37552483.02347 -29230497.62745  22464769.7344                   22464765.3914
 -12744701.95147  -9916347.04246  22131072.5944   22131072.4964   17236863.56146
  13440990.94044                  24453906.0634                   24453903.0124
 11  8 20  3 10  0.0000000  0 10G26G18G29G15G12G05G30G02G25G21
  -1961814.96447  -1517045.71245  21879516.6094                   21879514.9304
  22141153.21846  17266288.06643  24294776.2664                   24294774.2114
 -10084358.23348  -7845674.93146  21015656.7424                   21015654.0984
   6932917.90047   5414912.32445  22561486.9454                   22561485.0274
 -20460358.78247 -15914318.23345  23042034.0634                   23042032.0904
 -25269270.41548 -19660851.43846  21362818.9694                   21362815.8244
  -9659182.76447  -7512801.40845  22510114.3834                   22510112.2934
 -37574418.24747 -29247590.01045  22460595.4774                   22460590.8954
 -12759812.00847  -9928121.10846  22128197.6644   22128197.5704   17110523.08546
  13342543.87644                  24429864.0084                   24429861.8364
 11  8 20  3 10 30.0000000  0 10G26G18G29G15G12G05G30G02G25G21
  -2097705.49247  -1622934.39645  21853658.0864                   21853655.2034
  21985207.90446  17144772.41843  24265101.3914                   24265098.5394
 -10215122.05548  -7947568.79746  20990773.1094                   20990770.5084
   6772519.48647   5289926.58045  22530964.7504                   22530962.4184
 -20438153.65447 -15897015.53745  23046259.8524                   23046257.7304
 -25268718.34248 -19660421.26246  21362924.5084                   21362921.2424
  -9661607.73347  -7514690.98245  22509652.7274                   22509650.7854
 -37596259.04447 -29264608.81045  22456439.2664                   22456435.4104
 -12774536.52347  -9939594.76046  22125395.8204   22125395.7974   16984150.63946
  13244071.93243                  24405815.8204                   24405813.4964
 11  8 20  3 11  0.0000000  0 10G26G18G29G15G12G05G30G02G25G21
  -2233148.73747  -1728474.55145  21827883.8364                   21827881.4924
  21829442.33246  17023396.79743  24235459.3204                   24235458.0824
 -10345578.65547  -8049223.27646  20965947.5474                   20965945.4694
   6612300.65447   5165080.77645  22500475.8524                   22500473.6484
 -20415844.79747 -15879632.00145  23050504.5784                   23050502.6954
 -25267900.75048 -19659784.18246  21363080.0084                   21363077.1914
  -9663727.32747  -7516342.61045  22509249.4304                   22509247.6564
 -37618005.82047 -29281554.38745  22452301.4144                   22452296.7974
 -12788879.06447  -9950770.77646  22122665.9144   22122666.1684   16857744.57546
  13145573.81743                  24381761.2034                   24381759.0634
 11  8 20  3 11 30.0000000  0 10G26G18G29G15G12G05G30G02G25G21
  -2368140.08947  -1833662.58845  21802195.5394                   21802193.3284
  21673858.94446  16902163.18543  24205853.7664                   24205851.0984
 -10475724.78948  -8150635.84146  20941182.1094                   20941179.7344
   6452265.73647   5040378.29445  22470022.0704                   22470019.4304
 -20393433.84847 -15862168.91745  23054769.2424                   23054767.5314
 -25266818.67548 -19658941.00946  21363285.8444                   21363282.4884
  -9665543.46747  -7517757.77745  22508903.0394                   22508901.9064
 -37639656.94047 -29298425.38745  22448181.4304                   22448176.6524
 -12802841.03147  -9961650.23046  22120009.3674   22120009.5354   16731306.01546
  13047050.34843                  24357701.1724                   24357698.7504
 11  8 20  3 12  0.0000000  0 10G26G18G29G15G12G05G30G02G25G21
  -2502676.14247  -1938495.84545  21776594.6484                   21776592.1174
  21518459.37246  16781072.76943  24176281.5634                   24176279.2894
 -10605558.10148  -8251804.64146  20916475.3834                   20916473.2114
   6292417.84147   4915821.53145  22439603.8444                   22439601.4694
 -20370923.76947 -15844628.60344  23059051.8284                   23059050.5634
 -25265474.80048 -19657893.83846  21363541.3364                   21363539.1764
  -9667059.20147  -7518938.85245  22508615.5784                   22508613.1564
 -37661211.57647 -29315221.22645  22444079.6644                   22444075.1374
 -12816425.15447  -9972235.27745  22117423.8524   22117424.0164   16604834.48046
  12948501.16443                  24333634.1644                   24333631.3634
 11  8 20  3 12 30.0000000  0 10G26G18G29G15G12G05G30G02G25G21
  -2636753.80147  -2042971.90245  21751080.3364                   21751078.0234
  21363243.78746  16660125.77043  24146744.6024                   24146742.5904
 -10735076.14448  -8352727.77146  20891829.2424                   20891827.0234
   6132759.94447   4791412.82545  22409222.1254                   22409219.4224
 -20348317.99746 -15827013.73944  23063353.4694                   23063351.8364
 -25263871.69948 -19656644.67946  21363846.1724                   21363843.6134
  -9668277.86247  -7519888.44045  22508383.3594                   22508381.2734
 -37682669.69947 -29331941.86145  22439996.0084                   22439991.7074
 -12829634.35547  -9982528.16445  22114910.7894   22114910.5984   16478329.38346
  12849925.90943                  24309560.9924                   24309559.2464
 11  8 20  3 13  0.0000000  0 10G26G18G29G15G12G05G30G02G25G21
  -2770369.51047  -2147088.00545  21725653.6024                   21725652.0434
  21208213.68546  16539323.19443  24117243.2034                   24117241.0274
 -10864276.63448  -8453403.45646  20867242.9064                   20867240.3244
   5973294.98447   4667154.44545  22378876.8834                   22378874.6644
 -20325619.35347 -15809326.48244  23067673.5704                   23067670.6094
 -25262011.50848 -19655195.18546  21364200.4924                   21364197.7194
  -9669202.43747  -7520608.88845  22508206.5004                   22508204.8914
 -37704031.09447 -29348587.10545  22435931.5944                   22435927.1884
 -12842471.19947  -9992530.89345  22112467.9064   22112467.8914   16351790.73946
  12751324.44543                  24285481.0314                   24285478.1134
 11  8 20  3 13 30.0000000  0 10G26G18G29G15G12G05G30G02G25G21
  -1328097.36747  -1023239.54945  22000108.8834                   22000106.7504
  22628793.93646  17646269.04643  24387570.7034                   24387568.5514
  -9417734.41247  -7326227.69046  21142510.8284                   21142507.9774
   7389450.22547   5770652.08845  22648362.2114                   22648360.0164
 -18727413.33347 -14563971.06844  23371802.5634                   23371799.0864
 -23684478.65748 -18425948.80946  21664394.8204                   21664391.9144
  -8094417.73747  -6293503.90845  22807878.5784                   22807877.0864
 -36149875.74847 -28137556.94745  22731677.1644                   22731672.6334
 -11279519.75547  -8774646.66445  22409887.8674   22409887.9304   17800640.08246
  13880298.11443                  24561187.7974                   24561185.7234
 11  8 20  3 14  0.0000000  0 10G26G18G29G15G12G05G30G02G25G21
  -1460780.79547  -1126629.18845  21974860.1334                   21974857.8204
  22474137.53246  17525757.65243  24358141.4844                   24358138.2384
  -9546293.73147  -7426403.75646  21118046.6954                   21118044.2234
   7230380.19847   5646701.45845  22618092.5314                   22618089.8714
 -18704539.06247 -14546146.94845  23376155.8914                   23376152.3794
 -23682113.06448 -18424105.49246  21664844.9924                   21664842.2344
  -8094764.68547  -6293774.25845  22807813.1484                   22807811.0904
 -36171042.57247 -28154050.57545  22727649.5234                   22727645.0314
 -11291621.34047  -8784076.46746  22407584.8674   22407584.6764   17674031.07046
  13781641.81843                  24537094.6414                   24537093.2114
 11  8 20  3 14 30.0000000  0 10G26G18G29G15G12G05G30G02G25G21
  -1592993.46847  -1229652.02745  21949700.5084                   21949698.6884
  22319669.34246  17405393.02843  24328745.7974                   24328744.0744
  -9674528.76147  -7526327.15546  21093644.1884                   21093641.6094
   7071512.05747   5522908.13645  22587860.2584                   22587858.3014
 -18681581.69747 -14528258.04045  23380524.2194                   23380521.6484
 -23679498.82448 -18422068.42546  21665342.7344                   21665339.4024
  -8094827.84847  -6293823.47145  22807800.5864                   22807798.7934
 -36192111.86947 -28170468.22145  22723640.1484                   22723634.4924
 -11303359.71747  -8793223.24645  22405350.9924   22405351.4384   17547386.10446
  13682957.57843                  24512995.7344                   24512992.9574
 11  8 20  3 15  0.0000000  0 10G26G18G29G15G12G05G30G02G25G21
  -1724731.27047  -1332304.81145  21924632.2274                   21924630.2194
  22165391.40246  17285176.52643  24299388.1724                   24299385.4064
  -9802436.64547  -7625995.60246  21069304.1414                   21069301.5664
   6912849.81647   5399275.25945  22557667.8054                   22557665.3594
 -18658543.84647 -14510306.44345  23384908.4144                   23384906.3014
 -23676637.39548 -18419838.75346  21665887.0944                   21665884.4884
  -8094609.51547  -6293653.34545  22807842.7974                   22807840.5824
 -36213082.61647 -28186809.08045  22719649.2504                   22719644.4064
 -11314736.83047  -8802088.52745  22403185.9694   22403186.1374   17420705.76446
  13584245.73843                  24488888.7664                   24488885.6094
 11  8 20  3 15 30.0000000  0 10G26G18G29G15G12G05G30G02G25G21
  -1855990.51747  -1434584.72245  21899654.4534                   21899652.1094
  22011305.19346  17165109.49843  24270066.0004                   24270063.9224
  -9930014.73647  -7725407.08946  21045026.9534                   21045024.5394
   6754396.82647   5275805.44545  22527515.4224                   22527513.5164
 -18635427.35346 -14492293.61245  23389306.2814                   23389304.7774
 -23673530.67848 -18417417.94846  21666478.3364                   21666474.9064
  -8094112.28147  -6293265.87445  22807936.5164                   22807935.5744
 -36233953.65947 -28203072.20345  22715678.0864                   22715672.9844
 -11325754.99747  -8810674.12945  22401089.2194   22401089.6804   17293990.06946
  13485506.31643                  24464775.8524                   24464773.0234
 11  8 20  3 16  0.0000000  0 10G26G18G29G15G12G05G30G02G25G21
  -1986770.53647  -1536491.21145  21874767.4454                   21874765.6884
  21857409.57047  17045190.95943  24240780.9304                   24240777.3674
 -10057262.80947  -7824561.40146  21020812.6724                   21020809.9224
   6596153.80847   5152499.24245  22497403.1644                   22497400.2734
 -18612237.84346 -14474223.86644  23393718.8364                   23393717.3714
 -23670183.55248 -18414809.80146  21667115.3594                   21667112.2894
  -8093341.75247  -6292665.46945  22808083.1334                   22808081.9574
 -36254726.72647 -28219259.03145  22711724.6804                   22711719.8164
 -11336419.37247  -8818984.03545  22399060.0474   22399060.0204   17167236.07046
  13386737.03843                  24440655.8524                   24440652.3834
 11  8 20  3 16 30.0000000  0 10G26G18G29G15G12G05G30G02G25G21
  -2117067.41047  -1638021.19845  21849972.5784                   21849971.0634
  21703705.93047  16925422.01043  24211532.0944                   24211529.2274
 -10184177.94548  -7923456.29046  20996661.3204                   20996658.3444
   6438124.98547   5029359.93845  22467330.6564                   22467328.1994
 -18588978.01146 -14456099.31744  23398145.9304                   23398143.3984
 -23666597.74748 -18412015.66846  21667797.6724                   21667794.4264
  -8092300.39947  -6291854.04745  22808281.6174                   22808279.8484
 -36275400.91747 -28235368.76345  22707791.0084                   22707785.5594
 -11346732.11647  -8827019.93345  22397097.5864   22397097.6054   17040444.18646
  13287938.26844                  24416526.9384                   24416524.3484
